<?xml version="1.0" encoding="UTF-8" standalone="no" ?>
<gpx xmlns="http://www.topografix.com/GPX/1/1" creator="www.plotaroute.com" version="1.1"  xmlns:xsi="http://www.w3.org/2001/XMLSchema-instance" xsi:schemaLocation="http://www.topografix.com/GPX/1/1 http://www.topografix.com/GPX/1/1/gpx.xsd">
<metadata>
<desc>Route created on plotaroute.com</desc>
</metadata>
<trk>
<name>1ª Etapa VPFuturo 2026_V2</name>
<trkseg>
<trkpt lat="39.450346" lon="-8.181747">
<ele>32</ele>
<time>2026-05-08T00:00:00Z</time></trkpt>
<trkpt lat="39.450776" lon="-8.17876">
<ele>33</ele>
<time>2026-05-08T00:00:47Z</time></trkpt>
<trkpt lat="39.4509" lon="-8.178118">
<ele>34</ele>
<time>2026-05-08T00:00:57Z</time></trkpt>
<trkpt lat="39.451714" lon="-8.175272">
<ele>34</ele>
<time>2026-05-08T00:01:44Z</time></trkpt>
<trkpt lat="39.452501" lon="-8.172965">
<ele>35</ele>
<time>2026-05-08T00:02:23Z</time></trkpt>
<trkpt lat="39.452593" lon="-8.172523">
<ele>35</ele>
<time>2026-05-08T00:02:30Z</time></trkpt>
<trkpt lat="39.453015" lon="-8.170109">
<ele>36</ele>
<time>2026-05-08T00:03:09Z</time></trkpt>
<trkpt lat="39.453157" lon="-8.169342">
<ele>37</ele>
<time>2026-05-08T00:03:21Z</time></trkpt>
<trkpt lat="39.453212" lon="-8.169151">
<ele>37</ele>
<time>2026-05-08T00:03:24Z</time></trkpt>
<trkpt lat="39.453333" lon="-8.168909">
<ele>37</ele>
<time>2026-05-08T00:03:28Z</time></trkpt>
<trkpt lat="39.454838" lon="-8.16714">
<ele>36</ele>
<time>2026-05-08T00:04:09Z</time></trkpt>
<trkpt lat="39.455047" lon="-8.166885">
<ele>36</ele>
<time>2026-05-08T00:04:15Z</time></trkpt>
<trkpt lat="39.455228" lon="-8.166642">
<ele>37</ele>
<time>2026-05-08T00:04:20Z</time></trkpt>
<trkpt lat="39.455392" lon="-8.166367">
<ele>38</ele>
<time>2026-05-08T00:04:26Z</time></trkpt>
<trkpt lat="39.455623" lon="-8.165796">
<ele>41</ele>
<time>2026-05-08T00:04:35Z</time></trkpt>
<trkpt lat="39.456475" lon="-8.163403">
<ele>52</ele>
<time>2026-05-08T00:05:16Z</time></trkpt>
<trkpt lat="39.456662" lon="-8.162993">
<ele>53</ele>
<time>2026-05-08T00:05:24Z</time></trkpt>
<trkpt lat="39.456969" lon="-8.16269">
<ele>54</ele>
<time>2026-05-08T00:05:31Z</time></trkpt>
<trkpt lat="39.457379" lon="-8.16221">
<ele>56</ele>
<time>2026-05-08T00:05:42Z</time></trkpt>
<trkpt lat="39.45759" lon="-8.16194">
<ele>58</ele>
<time>2026-05-08T00:05:48Z</time></trkpt>
<trkpt lat="39.457708" lon="-8.161751">
<ele>59</ele>
<time>2026-05-08T00:05:52Z</time></trkpt>
<trkpt lat="39.45785" lon="-8.161444">
<ele>61</ele>
<time>2026-05-08T00:05:58Z</time></trkpt>
<trkpt lat="39.458305" lon="-8.160348">
<ele>67</ele>
<time>2026-05-08T00:06:17Z</time></trkpt>
<trkpt lat="39.458585" lon="-8.159637">
<ele>74</ele>
<time>2026-05-08T00:06:29Z</time></trkpt>
<trkpt lat="39.458866" lon="-8.159006">
<ele>80</ele>
<time>2026-05-08T00:06:41Z</time></trkpt>
<trkpt lat="39.459045" lon="-8.158675">
<ele>82</ele>
<time>2026-05-08T00:06:47Z</time></trkpt>
<trkpt lat="39.459453" lon="-8.158204">
<ele>85</ele>
<time>2026-05-08T00:06:58Z</time></trkpt>
<trkpt lat="39.459648" lon="-8.157863">
<ele>87</ele>
<time>2026-05-08T00:07:04Z</time></trkpt>
<trkpt lat="39.460242" lon="-8.156032">
<ele>91</ele>
<time>2026-05-08T00:07:35Z</time></trkpt>
<trkpt lat="39.460632" lon="-8.154426">
<ele>92</ele>
<time>2026-05-08T00:08:01Z</time></trkpt>
<trkpt lat="39.461603" lon="-8.152133">
<ele>94</ele>
<time>2026-05-08T00:08:42Z</time></trkpt>
<trkpt lat="39.461661" lon="-8.151952">
<ele>95</ele>
<time>2026-05-08T00:08:45Z</time></trkpt>
<trkpt lat="39.461836" lon="-8.15114">
<ele>95</ele>
<time>2026-05-08T00:08:58Z</time></trkpt>
<trkpt lat="39.461895" lon="-8.15093">
<ele>95</ele>
<time>2026-05-08T00:09:01Z</time></trkpt>
<trkpt lat="39.461929" lon="-8.150634">
<ele>95</ele>
<time>2026-05-08T00:09:06Z</time></trkpt>
<trkpt lat="39.461985" lon="-8.149727">
<ele>94</ele>
<time>2026-05-08T00:09:20Z</time></trkpt>
<trkpt lat="39.462077" lon="-8.149328">
<ele>94</ele>
<time>2026-05-08T00:09:26Z</time></trkpt>
<trkpt lat="39.462098" lon="-8.149141">
<ele>94</ele>
<time>2026-05-08T00:09:29Z</time></trkpt>
<trkpt lat="39.462054" lon="-8.149004">
<ele>94</ele>
<time>2026-05-08T00:09:31Z</time></trkpt>
<trkpt lat="39.461885" lon="-8.148784">
<ele>93</ele>
<time>2026-05-08T00:09:36Z</time></trkpt>
<trkpt lat="39.461435" lon="-8.148168">
<ele>93</ele>
<time>2026-05-08T00:09:49Z</time></trkpt>
<trkpt lat="39.461294" lon="-8.147903">
<ele>93</ele>
<time>2026-05-08T00:09:54Z</time></trkpt>
<trkpt lat="39.461274" lon="-8.147863">
<ele>93</ele>
<time>2026-05-08T00:09:55Z</time></trkpt>
<trkpt lat="39.460892" lon="-8.146779">
<ele>94</ele>
<time>2026-05-08T00:10:13Z</time></trkpt>
<trkpt lat="39.460532" lon="-8.146011">
<ele>95</ele>
<time>2026-05-08T00:10:27Z</time></trkpt>
<trkpt lat="39.459485" lon="-8.144496">
<ele>96</ele>
<time>2026-05-08T00:10:59Z</time></trkpt>
<trkpt lat="39.459451" lon="-8.144406">
<ele>96</ele>
<time>2026-05-08T00:11:00Z</time></trkpt>
<trkpt lat="39.459451" lon="-8.144338">
<ele>96</ele>
<time>2026-05-08T00:11:01Z</time></trkpt>
<trkpt lat="39.459606" lon="-8.143483">
<ele>95</ele>
<time>2026-05-08T00:11:15Z</time></trkpt>
<trkpt lat="39.45976" lon="-8.142783">
<ele>94</ele>
<time>2026-05-08T00:11:26Z</time></trkpt>
<trkpt lat="39.459764" lon="-8.142489">
<ele>94</ele>
<time>2026-05-08T00:11:31Z</time></trkpt>
<trkpt lat="39.459631" lon="-8.142111">
<ele>94</ele>
<time>2026-05-08T00:11:37Z</time></trkpt>
<trkpt lat="39.459131" lon="-8.141258">
<ele>95</ele>
<time>2026-05-08T00:11:54Z</time></trkpt>
<trkpt lat="39.457419" lon="-8.13811">
<ele>97</ele>
<time>2026-05-08T00:12:53Z</time></trkpt>
<trkpt lat="39.456922" lon="-8.136974">
<ele>97</ele>
<time>2026-05-08T00:13:14Z</time></trkpt>
<trkpt lat="39.456705" lon="-8.136231">
<ele>97</ele>
<time>2026-05-08T00:13:26Z</time></trkpt>
<trkpt lat="39.456379" lon="-8.134643">
<ele>100</ele>
<time>2026-05-08T00:13:51Z</time></trkpt>
<trkpt lat="39.455288" lon="-8.128473">
<ele>101</ele>
<time>2026-05-08T00:15:29Z</time></trkpt>
<trkpt lat="39.454885" lon="-8.12621">
<ele>104</ele>
<time>2026-05-08T00:16:05Z</time></trkpt>
<trkpt lat="39.454751" lon="-8.125235">
<ele>106</ele>
<time>2026-05-08T00:16:21Z</time></trkpt>
<trkpt lat="39.454749" lon="-8.12465">
<ele>107</ele>
<time>2026-05-08T00:16:30Z</time></trkpt>
<trkpt lat="39.454773" lon="-8.124165">
<ele>107</ele>
<time>2026-05-08T00:16:37Z</time></trkpt>
<trkpt lat="39.455049" lon="-8.122651">
<ele>110</ele>
<time>2026-05-08T00:17:01Z</time></trkpt>
<trkpt lat="39.455595" lon="-8.119788">
<ele>110</ele>
<time>2026-05-08T00:17:47Z</time></trkpt>
<trkpt lat="39.455859" lon="-8.118151">
<ele>113</ele>
<time>2026-05-08T00:18:13Z</time></trkpt>
<trkpt lat="39.455932" lon="-8.117741">
<ele>113</ele>
<time>2026-05-08T00:18:19Z</time></trkpt>
<trkpt lat="39.456074" lon="-8.116357">
<ele>111</ele>
<time>2026-05-08T00:18:41Z</time></trkpt>
<trkpt lat="39.456144" lon="-8.115796">
<ele>112</ele>
<time>2026-05-08T00:18:50Z</time></trkpt>
<trkpt lat="39.456166" lon="-8.115585">
<ele>112</ele>
<time>2026-05-08T00:18:53Z</time></trkpt>
<trkpt lat="39.456613" lon="-8.1118">
<ele>118</ele>
<time>2026-05-08T00:19:52Z</time></trkpt>
<trkpt lat="39.456702" lon="-8.111315">
<ele>119</ele>
<time>2026-05-08T00:20:00Z</time></trkpt>
<trkpt lat="39.457014" lon="-8.10854">
<ele>112</ele>
<time>2026-05-08T00:20:43Z</time></trkpt>
<trkpt lat="39.457043" lon="-8.108175">
<ele>113</ele>
<time>2026-05-08T00:20:49Z</time></trkpt>
<trkpt lat="39.457036" lon="-8.107791">
<ele>114</ele>
<time>2026-05-08T00:20:55Z</time></trkpt>
<trkpt lat="39.456997" lon="-8.107477">
<ele>114</ele>
<time>2026-05-08T00:21:00Z</time></trkpt>
<trkpt lat="39.456916" lon="-8.107055">
<ele>114</ele>
<time>2026-05-08T00:21:06Z</time></trkpt>
<trkpt lat="39.456449" lon="-8.105666">
<ele>114</ele>
<time>2026-05-08T00:21:30Z</time></trkpt>
<trkpt lat="39.455338" lon="-8.102731">
<ele>111</ele>
<time>2026-05-08T00:22:20Z</time></trkpt>
<trkpt lat="39.454222" lon="-8.099868">
<ele>107</ele>
<time>2026-05-08T00:23:10Z</time></trkpt>
<trkpt lat="39.453223" lon="-8.097491">
<ele>108</ele>
<time>2026-05-08T00:23:52Z</time></trkpt>
<trkpt lat="39.453193" lon="-8.097375">
<ele>108</ele>
<time>2026-05-08T00:23:54Z</time></trkpt>
<trkpt lat="39.452522" lon="-8.095695">
<ele>104</ele>
<time>2026-05-08T00:24:23Z</time></trkpt>
<trkpt lat="39.451672" lon="-8.093726">
<ele>103</ele>
<time>2026-05-08T00:24:58Z</time></trkpt>
<trkpt lat="39.450219" lon="-8.090935">
<ele>103</ele>
<time>2026-05-08T00:25:50Z</time></trkpt>
<trkpt lat="39.449586" lon="-8.089788">
<ele>103</ele>
<time>2026-05-08T00:26:12Z</time></trkpt>
<trkpt lat="39.448403" lon="-8.087957">
<ele>105</ele>
<time>2026-05-08T00:26:49Z</time></trkpt>
<trkpt lat="39.448071" lon="-8.087188">
<ele>104</ele>
<time>2026-05-08T00:27:02Z</time></trkpt>
<trkpt lat="39.447982" lon="-8.086455">
<ele>103</ele>
<time>2026-05-08T00:27:14Z</time></trkpt>
<trkpt lat="39.448083" lon="-8.085683">
<ele>104</ele>
<time>2026-05-08T00:27:26Z</time></trkpt>
<trkpt lat="39.448249" lon="-8.08517">
<ele>106</ele>
<time>2026-05-08T00:27:35Z</time></trkpt>
<trkpt lat="39.448538" lon="-8.084208">
<ele>109</ele>
<time>2026-05-08T00:27:51Z</time></trkpt>
<trkpt lat="39.4486" lon="-8.083462">
<ele>107</ele>
<time>2026-05-08T00:28:02Z</time></trkpt>
<trkpt lat="39.448418" lon="-8.082565">
<ele>105</ele>
<time>2026-05-08T00:28:17Z</time></trkpt>
<trkpt lat="39.448113" lon="-8.081486">
<ele>100</ele>
<time>2026-05-08T00:28:34Z</time></trkpt>
<trkpt lat="39.448093" lon="-8.080454">
<ele>93</ele>
<time>2026-05-08T00:28:50Z</time></trkpt>
<trkpt lat="39.448228" lon="-8.079587">
<ele>93</ele>
<time>2026-05-08T00:29:04Z</time></trkpt>
<trkpt lat="39.44857" lon="-8.077072">
<ele>106</ele>
<time>2026-05-08T00:29:44Z</time></trkpt>
<trkpt lat="39.448679" lon="-8.075957">
<ele>109</ele>
<time>2026-05-08T00:30:01Z</time></trkpt>
<trkpt lat="39.448862" lon="-8.07396">
<ele>109</ele>
<time>2026-05-08T00:30:32Z</time></trkpt>
<trkpt lat="39.448743" lon="-8.073167">
<ele>106</ele>
<time>2026-05-08T00:30:45Z</time></trkpt>
<trkpt lat="39.448749" lon="-8.072847">
<ele>105</ele>
<time>2026-05-08T00:30:50Z</time></trkpt>
<trkpt lat="39.44882" lon="-8.072689">
<ele>105</ele>
<time>2026-05-08T00:30:52Z</time></trkpt>
<trkpt lat="39.449489" lon="-8.071832">
<ele>106</ele>
<time>2026-05-08T00:31:11Z</time></trkpt>
<trkpt lat="39.450364" lon="-8.071151">
<ele>109</ele>
<time>2026-05-08T00:31:32Z</time></trkpt>
<trkpt lat="39.450632" lon="-8.070966">
<ele>111</ele>
<time>2026-05-08T00:31:38Z</time></trkpt>
<trkpt lat="39.451244" lon="-8.070964">
<ele>112</ele>
<time>2026-05-08T00:31:50Z</time></trkpt>
<trkpt lat="39.451436" lon="-8.070937">
<ele>112</ele>
<time>2026-05-08T00:31:54Z</time></trkpt>
<trkpt lat="39.451532" lon="-8.070888">
<ele>112</ele>
<time>2026-05-08T00:31:56Z</time></trkpt>
<trkpt lat="39.451608" lon="-8.070816">
<ele>112</ele>
<time>2026-05-08T00:31:58Z</time></trkpt>
<trkpt lat="39.45176" lon="-8.070642">
<ele>112</ele>
<time>2026-05-08T00:32:02Z</time></trkpt>
<trkpt lat="39.451897" lon="-8.070364">
<ele>111</ele>
<time>2026-05-08T00:32:07Z</time></trkpt>
<trkpt lat="39.452116" lon="-8.06887">
<ele>109</ele>
<time>2026-05-08T00:32:31Z</time></trkpt>
<trkpt lat="39.452163" lon="-8.068685">
<ele>110</ele>
<time>2026-05-08T00:32:34Z</time></trkpt>
<trkpt lat="39.452221" lon="-8.068567">
<ele>110</ele>
<time>2026-05-08T00:32:36Z</time></trkpt>
<trkpt lat="39.452298" lon="-8.068487">
<ele>110</ele>
<time>2026-05-08T00:32:38Z</time></trkpt>
<trkpt lat="39.453062" lon="-8.068134">
<ele>111</ele>
<time>2026-05-08T00:32:54Z</time></trkpt>
<trkpt lat="39.453149" lon="-8.068085">
<ele>111</ele>
<time>2026-05-08T00:32:56Z</time></trkpt>
<trkpt lat="39.453695" lon="-8.067729">
<ele>110</ele>
<time>2026-05-08T00:33:08Z</time></trkpt>
<trkpt lat="39.45395" lon="-8.067429">
<ele>110</ele>
<time>2026-05-08T00:33:15Z</time></trkpt>
<trkpt lat="39.454048" lon="-8.067279">
<ele>110</ele>
<time>2026-05-08T00:33:18Z</time></trkpt>
<trkpt lat="39.454143" lon="-8.067066">
<ele>111</ele>
<time>2026-05-08T00:33:22Z</time></trkpt>
<trkpt lat="39.454163" lon="-8.066933">
<ele>111</ele>
<time>2026-05-08T00:33:24Z</time></trkpt>
<trkpt lat="39.454245" lon="-8.065709">
<ele>112</ele>
<time>2026-05-08T00:33:43Z</time></trkpt>
<trkpt lat="39.45434" lon="-8.065197">
<ele>111</ele>
<time>2026-05-08T00:33:51Z</time></trkpt>
<trkpt lat="39.454639" lon="-8.064341">
<ele>109</ele>
<time>2026-05-08T00:34:06Z</time></trkpt>
<trkpt lat="39.454967" lon="-8.063764">
<ele>106</ele>
<time>2026-05-08T00:34:17Z</time></trkpt>
<trkpt lat="39.457459" lon="-8.060609">
<ele>87</ele>
<time>2026-05-08T00:35:27Z</time></trkpt>
<trkpt lat="39.457714" lon="-8.060281">
<ele>87</ele>
<time>2026-05-08T00:35:34Z</time></trkpt>
<trkpt lat="39.458319" lon="-8.059922">
<ele>88</ele>
<time>2026-05-08T00:35:47Z</time></trkpt>
<trkpt lat="39.460537" lon="-8.059485">
<ele>87</ele>
<time>2026-05-08T00:36:32Z</time></trkpt>
<trkpt lat="39.461183" lon="-8.058889">
<ele>86</ele>
<time>2026-05-08T00:36:48Z</time></trkpt>
<trkpt lat="39.463369" lon="-8.056541">
<ele>81</ele>
<time>2026-05-08T00:37:45Z</time></trkpt>
<trkpt lat="39.463522" lon="-8.056331">
<ele>80</ele>
<time>2026-05-08T00:37:49Z</time></trkpt>
<trkpt lat="39.463575" lon="-8.056219">
<ele>80</ele>
<time>2026-05-08T00:37:51Z</time></trkpt>
<trkpt lat="39.463556" lon="-8.056128">
<ele>79</ele>
<time>2026-05-08T00:37:53Z</time></trkpt>
<trkpt lat="39.463558" lon="-8.056034">
<ele>79</ele>
<time>2026-05-08T00:37:54Z</time></trkpt>
<trkpt lat="39.463582" lon="-8.055945">
<ele>79</ele>
<time>2026-05-08T00:37:56Z</time></trkpt>
<trkpt lat="39.463633" lon="-8.055857">
<ele>79</ele>
<time>2026-05-08T00:37:57Z</time></trkpt>
<trkpt lat="39.463705" lon="-8.055798">
<ele>78</ele>
<time>2026-05-08T00:37:59Z</time></trkpt>
<trkpt lat="39.463788" lon="-8.055774">
<ele>78</ele>
<time>2026-05-08T00:38:01Z</time></trkpt>
<trkpt lat="39.463864" lon="-8.055785">
<ele>78</ele>
<time>2026-05-08T00:38:02Z</time></trkpt>
<trkpt lat="39.463933" lon="-8.055826">
<ele>78</ele>
<time>2026-05-08T00:38:04Z</time></trkpt>
<trkpt lat="39.46399" lon="-8.055893">
<ele>78</ele>
<time>2026-05-08T00:38:05Z</time></trkpt>
<trkpt lat="39.464026" lon="-8.055975">
<ele>78</ele>
<time>2026-05-08T00:38:07Z</time></trkpt>
<trkpt lat="39.464042" lon="-8.056067">
<ele>78</ele>
<time>2026-05-08T00:38:08Z</time></trkpt>
<trkpt lat="39.46418" lon="-8.056287">
<ele>79</ele>
<time>2026-05-08T00:38:13Z</time></trkpt>
<trkpt lat="39.46447" lon="-8.056678">
<ele>78</ele>
<time>2026-05-08T00:38:21Z</time></trkpt>
<trkpt lat="39.465539" lon="-8.057692">
<ele>75</ele>
<time>2026-05-08T00:38:48Z</time></trkpt>
<trkpt lat="39.467447" lon="-8.059445">
<ele>75</ele>
<time>2026-05-08T00:39:35Z</time></trkpt>
<trkpt lat="39.468694" lon="-8.06062">
<ele>71</ele>
<time>2026-05-08T00:40:05Z</time></trkpt>
<trkpt lat="39.469136" lon="-8.061163">
<ele>69</ele>
<time>2026-05-08T00:40:18Z</time></trkpt>
<trkpt lat="39.469434" lon="-8.061738">
<ele>67</ele>
<time>2026-05-08T00:40:28Z</time></trkpt>
<trkpt lat="39.469826" lon="-8.062631">
<ele>60</ele>
<time>2026-05-08T00:40:44Z</time></trkpt>
<trkpt lat="39.471892" lon="-8.067667">
<ele>46</ele>
<time>2026-05-08T00:42:12Z</time></trkpt>
<trkpt lat="39.472034" lon="-8.068138">
<ele>52</ele>
<time>2026-05-08T00:42:20Z</time></trkpt>
<trkpt lat="39.472194" lon="-8.068943">
<ele>61</ele>
<time>2026-05-08T00:42:33Z</time></trkpt>
<trkpt lat="39.472213" lon="-8.069587">
<ele>64</ele>
<time>2026-05-08T00:42:43Z</time></trkpt>
<trkpt lat="39.47237" lon="-8.07024">
<ele>67</ele>
<time>2026-05-08T00:42:54Z</time></trkpt>
<trkpt lat="39.472594" lon="-8.070746">
<ele>68</ele>
<time>2026-05-08T00:43:03Z</time></trkpt>
<trkpt lat="39.472887" lon="-8.071177">
<ele>71</ele>
<time>2026-05-08T00:43:12Z</time></trkpt>
<trkpt lat="39.473306" lon="-8.071604">
<ele>74</ele>
<time>2026-05-08T00:43:22Z</time></trkpt>
<trkpt lat="39.474071" lon="-8.072131">
<ele>73</ele>
<time>2026-05-08T00:43:40Z</time></trkpt>
<trkpt lat="39.474321" lon="-8.07236">
<ele>73</ele>
<time>2026-05-08T00:43:46Z</time></trkpt>
<trkpt lat="39.47463" lon="-8.072719">
<ele>74</ele>
<time>2026-05-08T00:43:54Z</time></trkpt>
<trkpt lat="39.474972" lon="-8.073362">
<ele>74</ele>
<time>2026-05-08T00:44:06Z</time></trkpt>
<trkpt lat="39.475205" lon="-8.074031">
<ele>74</ele>
<time>2026-05-08T00:44:17Z</time></trkpt>
<trkpt lat="39.475332" lon="-8.074722">
<ele>75</ele>
<time>2026-05-08T00:44:28Z</time></trkpt>
<trkpt lat="39.475398" lon="-8.075323">
<ele>76</ele>
<time>2026-05-08T00:44:38Z</time></trkpt>
<trkpt lat="39.475824" lon="-8.078672">
<ele>81</ele>
<time>2026-05-08T00:45:30Z</time></trkpt>
<trkpt lat="39.475894" lon="-8.079078">
<ele>81</ele>
<time>2026-05-08T00:45:37Z</time></trkpt>
<trkpt lat="39.47602" lon="-8.08041">
<ele>82</ele>
<time>2026-05-08T00:45:58Z</time></trkpt>
<trkpt lat="39.476084" lon="-8.081262">
<ele>80</ele>
<time>2026-05-08T00:46:11Z</time></trkpt>
<trkpt lat="39.476129" lon="-8.081642">
<ele>79</ele>
<time>2026-05-08T00:46:17Z</time></trkpt>
<trkpt lat="39.476174" lon="-8.081879">
<ele>78</ele>
<time>2026-05-08T00:46:21Z</time></trkpt>
<trkpt lat="39.476241" lon="-8.082158">
<ele>77</ele>
<time>2026-05-08T00:46:25Z</time></trkpt>
<trkpt lat="39.476348" lon="-8.082503">
<ele>76</ele>
<time>2026-05-08T00:46:31Z</time></trkpt>
<trkpt lat="39.476502" lon="-8.082834">
<ele>76</ele>
<time>2026-05-08T00:46:37Z</time></trkpt>
<trkpt lat="39.476638" lon="-8.08308">
<ele>76</ele>
<time>2026-05-08T00:46:41Z</time></trkpt>
<trkpt lat="39.476995" lon="-8.083568">
<ele>77</ele>
<time>2026-05-08T00:46:52Z</time></trkpt>
<trkpt lat="39.480969" lon="-8.086998">
<ele>94</ele>
<time>2026-05-08T00:48:28Z</time></trkpt>
<trkpt lat="39.482869" lon="-8.08862">
<ele>106</ele>
<time>2026-05-08T00:49:13Z</time></trkpt>
<trkpt lat="39.483554" lon="-8.089247">
<ele>109</ele>
<time>2026-05-08T00:49:30Z</time></trkpt>
<trkpt lat="39.483857" lon="-8.089574">
<ele>111</ele>
<time>2026-05-08T00:49:38Z</time></trkpt>
<trkpt lat="39.484105" lon="-8.089929">
<ele>113</ele>
<time>2026-05-08T00:49:45Z</time></trkpt>
<trkpt lat="39.484394" lon="-8.090454">
<ele>112</ele>
<time>2026-05-08T00:49:55Z</time></trkpt>
<trkpt lat="39.484566" lon="-8.090799">
<ele>112</ele>
<time>2026-05-08T00:50:02Z</time></trkpt>
<trkpt lat="39.484707" lon="-8.091214">
<ele>112</ele>
<time>2026-05-08T00:50:09Z</time></trkpt>
<trkpt lat="39.484943" lon="-8.091996">
<ele>114</ele>
<time>2026-05-08T00:50:22Z</time></trkpt>
<trkpt lat="39.485063" lon="-8.092468">
<ele>115</ele>
<time>2026-05-08T00:50:29Z</time></trkpt>
<trkpt lat="39.485576" lon="-8.094253">
<ele>118</ele>
<time>2026-05-08T00:50:59Z</time></trkpt>
<trkpt lat="39.486006" lon="-8.0956">
<ele>112</ele>
<time>2026-05-08T00:51:21Z</time></trkpt>
<trkpt lat="39.486263" lon="-8.09631">
<ele>111</ele>
<time>2026-05-08T00:51:33Z</time></trkpt>
<trkpt lat="39.486483" lon="-8.096814">
<ele>113</ele>
<time>2026-05-08T00:51:42Z</time></trkpt>
<trkpt lat="39.486712" lon="-8.097237">
<ele>116</ele>
<time>2026-05-08T00:51:50Z</time></trkpt>
<trkpt lat="39.487043" lon="-8.097712">
<ele>119</ele>
<time>2026-05-08T00:52:00Z</time></trkpt>
<trkpt lat="39.487396" lon="-8.098077">
<ele>120</ele>
<time>2026-05-08T00:52:09Z</time></trkpt>
<trkpt lat="39.487776" lon="-8.098384">
<ele>120</ele>
<time>2026-05-08T00:52:18Z</time></trkpt>
<trkpt lat="39.488146" lon="-8.09861">
<ele>120</ele>
<time>2026-05-08T00:52:26Z</time></trkpt>
<trkpt lat="39.48859" lon="-8.098801">
<ele>120</ele>
<time>2026-05-08T00:52:36Z</time></trkpt>
<trkpt lat="39.489174" lon="-8.098938">
<ele>120</ele>
<time>2026-05-08T00:52:48Z</time></trkpt>
<trkpt lat="39.489595" lon="-8.098986">
<ele>121</ele>
<time>2026-05-08T00:52:56Z</time></trkpt>
<trkpt lat="39.491743" lon="-8.098968">
<ele>128</ele>
<time>2026-05-08T00:53:39Z</time></trkpt>
<trkpt lat="39.492346" lon="-8.098974">
<ele>129</ele>
<time>2026-05-08T00:53:51Z</time></trkpt>
<trkpt lat="39.49325" lon="-8.098976">
<ele>131</ele>
<time>2026-05-08T00:54:09Z</time></trkpt>
<trkpt lat="39.493964" lon="-8.098986">
<ele>130</ele>
<time>2026-05-08T00:54:24Z</time></trkpt>
<trkpt lat="39.494865" lon="-8.098999">
<ele>135</ele>
<time>2026-05-08T00:54:42Z</time></trkpt>
<trkpt lat="39.495769" lon="-8.099026">
<ele>144</ele>
<time>2026-05-08T00:55:00Z</time></trkpt>
<trkpt lat="39.496815" lon="-8.099022">
<ele>151</ele>
<time>2026-05-08T00:55:21Z</time></trkpt>
<trkpt lat="39.49719" lon="-8.098951">
<ele>157</ele>
<time>2026-05-08T00:55:28Z</time></trkpt>
<trkpt lat="39.497352" lon="-8.098899">
<ele>159</ele>
<time>2026-05-08T00:55:32Z</time></trkpt>
<trkpt lat="39.49769" lon="-8.098752">
<ele>161</ele>
<time>2026-05-08T00:55:39Z</time></trkpt>
<trkpt lat="39.49787" lon="-8.09865">
<ele>161</ele>
<time>2026-05-08T00:55:43Z</time></trkpt>
<trkpt lat="39.498241" lon="-8.098384">
<ele>163</ele>
<time>2026-05-08T00:55:51Z</time></trkpt>
<trkpt lat="39.498563" lon="-8.098078">
<ele>165</ele>
<time>2026-05-08T00:55:59Z</time></trkpt>
<trkpt lat="39.499041" lon="-8.097471">
<ele>170</ele>
<time>2026-05-08T00:56:13Z</time></trkpt>
<trkpt lat="39.500196" lon="-8.095547">
<ele>175</ele>
<time>2026-05-08T00:56:50Z</time></trkpt>
<trkpt lat="39.500238" lon="-8.095426">
<ele>175</ele>
<time>2026-05-08T00:56:52Z</time></trkpt>
<trkpt lat="39.50024" lon="-8.095312">
<ele>175</ele>
<time>2026-05-08T00:56:54Z</time></trkpt>
<trkpt lat="39.500221" lon="-8.095259">
<ele>175</ele>
<time>2026-05-08T00:56:55Z</time></trkpt>
<trkpt lat="39.500234" lon="-8.095145">
<ele>176</ele>
<time>2026-05-08T00:56:57Z</time></trkpt>
<trkpt lat="39.500265" lon="-8.095101">
<ele>176</ele>
<time>2026-05-08T00:56:58Z</time></trkpt>
<trkpt lat="39.500306" lon="-8.095076">
<ele>176</ele>
<time>2026-05-08T00:56:59Z</time></trkpt>
<trkpt lat="39.500394" lon="-8.095094">
<ele>177</ele>
<time>2026-05-08T00:57:01Z</time></trkpt>
<trkpt lat="39.500428" lon="-8.095134">
<ele>177</ele>
<time>2026-05-08T00:57:01Z</time></trkpt>
<trkpt lat="39.500612" lon="-8.095236">
<ele>177</ele>
<time>2026-05-08T00:57:05Z</time></trkpt>
<trkpt lat="39.500778" lon="-8.095172">
<ele>178</ele>
<time>2026-05-08T00:57:09Z</time></trkpt>
<trkpt lat="39.502669" lon="-8.095321">
<ele>179</ele>
<time>2026-05-08T00:57:47Z</time></trkpt>
<trkpt lat="39.502831" lon="-8.095362">
<ele>179</ele>
<time>2026-05-08T00:57:50Z</time></trkpt>
<trkpt lat="39.501952" lon="-8.097722">
<ele>171</ele>
<time>2026-05-08T00:58:31Z</time></trkpt>
<trkpt lat="39.501866" lon="-8.09786">
<ele>171</ele>
<time>2026-05-08T00:58:33Z</time></trkpt>
<trkpt lat="39.501414" lon="-8.098334">
<ele>167</ele>
<time>2026-05-08T00:58:45Z</time></trkpt>
<trkpt lat="39.501325" lon="-8.098499">
<ele>165</ele>
<time>2026-05-08T00:58:48Z</time></trkpt>
<trkpt lat="39.501284" lon="-8.098667">
<ele>164</ele>
<time>2026-05-08T00:58:51Z</time></trkpt>
<trkpt lat="39.501264" lon="-8.099036">
<ele>163</ele>
<time>2026-05-08T00:58:57Z</time></trkpt>
<trkpt lat="39.501226" lon="-8.099161">
<ele>162</ele>
<time>2026-05-08T00:58:59Z</time></trkpt>
<trkpt lat="39.500892" lon="-8.099585">
<ele>157</ele>
<time>2026-05-08T00:59:08Z</time></trkpt>
<trkpt lat="39.50082" lon="-8.099775">
<ele>156</ele>
<time>2026-05-08T00:59:11Z</time></trkpt>
<trkpt lat="39.50079" lon="-8.099982">
<ele>156</ele>
<time>2026-05-08T00:59:15Z</time></trkpt>
<trkpt lat="39.500815" lon="-8.100179">
<ele>155</ele>
<time>2026-05-08T00:59:18Z</time></trkpt>
<trkpt lat="39.50097" lon="-8.10035">
<ele>155</ele>
<time>2026-05-08T00:59:22Z</time></trkpt>
<trkpt lat="39.501165" lon="-8.100634">
<ele>155</ele>
<time>2026-05-08T00:59:28Z</time></trkpt>
<trkpt lat="39.501215" lon="-8.100774">
<ele>154</ele>
<time>2026-05-08T00:59:30Z</time></trkpt>
<trkpt lat="39.501207" lon="-8.10094">
<ele>153</ele>
<time>2026-05-08T00:59:33Z</time></trkpt>
<trkpt lat="39.501159" lon="-8.101072">
<ele>153</ele>
<time>2026-05-08T00:59:35Z</time></trkpt>
<trkpt lat="39.501046" lon="-8.101181">
<ele>153</ele>
<time>2026-05-08T00:59:38Z</time></trkpt>
<trkpt lat="39.500607" lon="-8.101278">
<ele>150</ele>
<time>2026-05-08T00:59:47Z</time></trkpt>
<trkpt lat="39.500482" lon="-8.10139">
<ele>149</ele>
<time>2026-05-08T00:59:50Z</time></trkpt>
<trkpt lat="39.500359" lon="-8.101554">
<ele>148</ele>
<time>2026-05-08T00:59:53Z</time></trkpt>
<trkpt lat="39.500277" lon="-8.10174">
<ele>147</ele>
<time>2026-05-08T00:59:57Z</time></trkpt>
<trkpt lat="39.500251" lon="-8.101925">
<ele>146</ele>
<time>2026-05-08T00:59:59Z</time></trkpt>
<trkpt lat="39.500325" lon="-8.102354">
<ele>146</ele>
<time>2026-05-08T01:00:06Z</time></trkpt>
<trkpt lat="39.500288" lon="-8.102529">
<ele>145</ele>
<time>2026-05-08T01:00:09Z</time></trkpt>
<trkpt lat="39.500073" lon="-8.102658">
<ele>145</ele>
<time>2026-05-08T01:00:14Z</time></trkpt>
<trkpt lat="39.49994" lon="-8.102639">
<ele>144</ele>
<time>2026-05-08T01:00:16Z</time></trkpt>
<trkpt lat="39.499713" lon="-8.102508">
<ele>142</ele>
<time>2026-05-08T01:00:21Z</time></trkpt>
<trkpt lat="39.499551" lon="-8.102474">
<ele>141</ele>
<time>2026-05-08T01:00:25Z</time></trkpt>
<trkpt lat="39.49933" lon="-8.102513">
<ele>141</ele>
<time>2026-05-08T01:00:29Z</time></trkpt>
<trkpt lat="39.499202" lon="-8.102598">
<ele>141</ele>
<time>2026-05-08T01:00:32Z</time></trkpt>
<trkpt lat="39.499064" lon="-8.102761">
<ele>142</ele>
<time>2026-05-08T01:00:36Z</time></trkpt>
<trkpt lat="39.498609" lon="-8.103355">
<ele>144</ele>
<time>2026-05-08T01:00:49Z</time></trkpt>
<trkpt lat="39.498536" lon="-8.103529">
<ele>145</ele>
<time>2026-05-08T01:00:52Z</time></trkpt>
<trkpt lat="39.498512" lon="-8.103765">
<ele>145</ele>
<time>2026-05-08T01:00:56Z</time></trkpt>
<trkpt lat="39.498598" lon="-8.104792">
<ele>149</ele>
<time>2026-05-08T01:01:12Z</time></trkpt>
<trkpt lat="39.498693" lon="-8.105089">
<ele>150</ele>
<time>2026-05-08T01:01:16Z</time></trkpt>
<trkpt lat="39.499123" lon="-8.106028">
<ele>152</ele>
<time>2026-05-08T01:01:33Z</time></trkpt>
<trkpt lat="39.499309" lon="-8.106785">
<ele>155</ele>
<time>2026-05-08T01:01:46Z</time></trkpt>
<trkpt lat="39.499349" lon="-8.10714">
<ele>155</ele>
<time>2026-05-08T01:01:51Z</time></trkpt>
<trkpt lat="39.499299" lon="-8.109274">
<ele>155</ele>
<time>2026-05-08T01:02:24Z</time></trkpt>
<trkpt lat="39.499297" lon="-8.109675">
<ele>155</ele>
<time>2026-05-08T01:02:30Z</time></trkpt>
<trkpt lat="39.499886" lon="-8.11202">
<ele>150</ele>
<time>2026-05-08T01:03:09Z</time></trkpt>
<trkpt lat="39.499896" lon="-8.112191">
<ele>149</ele>
<time>2026-05-08T01:03:11Z</time></trkpt>
<trkpt lat="39.499867" lon="-8.11238">
<ele>149</ele>
<time>2026-05-08T01:03:14Z</time></trkpt>
<trkpt lat="39.499487" lon="-8.113565">
<ele>146</ele>
<time>2026-05-08T01:03:34Z</time></trkpt>
<trkpt lat="39.499398" lon="-8.113798">
<ele>146</ele>
<time>2026-05-08T01:03:38Z</time></trkpt>
<trkpt lat="39.499296" lon="-8.114017">
<ele>146</ele>
<time>2026-05-08T01:03:42Z</time></trkpt>
<trkpt lat="39.499148" lon="-8.114184">
<ele>147</ele>
<time>2026-05-08T01:03:46Z</time></trkpt>
<trkpt lat="39.498721" lon="-8.114422">
<ele>144</ele>
<time>2026-05-08T01:03:55Z</time></trkpt>
<trkpt lat="39.498568" lon="-8.114544">
<ele>144</ele>
<time>2026-05-08T01:03:59Z</time></trkpt>
<trkpt lat="39.498154" lon="-8.115109">
<ele>140</ele>
<time>2026-05-08T01:04:11Z</time></trkpt>
<trkpt lat="39.49805" lon="-8.115352">
<ele>139</ele>
<time>2026-05-08T01:04:15Z</time></trkpt>
<trkpt lat="39.497876" lon="-8.115861">
<ele>138</ele>
<time>2026-05-08T01:04:24Z</time></trkpt>
<trkpt lat="39.497788" lon="-8.115996">
<ele>137</ele>
<time>2026-05-08T01:04:27Z</time></trkpt>
<trkpt lat="39.497658" lon="-8.116086">
<ele>136</ele>
<time>2026-05-08T01:04:29Z</time></trkpt>
<trkpt lat="39.496813" lon="-8.116402">
<ele>131</ele>
<time>2026-05-08T01:04:47Z</time></trkpt>
<trkpt lat="39.496683" lon="-8.116503">
<ele>130</ele>
<time>2026-05-08T01:04:50Z</time></trkpt>
<trkpt lat="39.496594" lon="-8.116622">
<ele>129</ele>
<time>2026-05-08T01:04:53Z</time></trkpt>
<trkpt lat="39.496091" lon="-8.117869">
<ele>125</ele>
<time>2026-05-08T01:05:14Z</time></trkpt>
<trkpt lat="39.495929" lon="-8.11832">
<ele>125</ele>
<time>2026-05-08T01:05:22Z</time></trkpt>
<trkpt lat="39.495875" lon="-8.118597">
<ele>124</ele>
<time>2026-05-08T01:05:27Z</time></trkpt>
<trkpt lat="39.495849" lon="-8.120358">
<ele>121</ele>
<time>2026-05-08T01:05:54Z</time></trkpt>
<trkpt lat="39.495807" lon="-8.120511">
<ele>120</ele>
<time>2026-05-08T01:05:56Z</time></trkpt>
<trkpt lat="39.495737" lon="-8.120645">
<ele>120</ele>
<time>2026-05-08T01:05:59Z</time></trkpt>
<trkpt lat="39.495332" lon="-8.121062">
<ele>118</ele>
<time>2026-05-08T01:06:09Z</time></trkpt>
<trkpt lat="39.495091" lon="-8.121301">
<ele>119</ele>
<time>2026-05-08T01:06:15Z</time></trkpt>
<trkpt lat="39.495025" lon="-8.121488">
<ele>119</ele>
<time>2026-05-08T01:06:18Z</time></trkpt>
<trkpt lat="39.495015" lon="-8.121625">
<ele>120</ele>
<time>2026-05-08T01:06:21Z</time></trkpt>
<trkpt lat="39.495122" lon="-8.122349">
<ele>119</ele>
<time>2026-05-08T01:06:32Z</time></trkpt>
<trkpt lat="39.495104" lon="-8.122481">
<ele>119</ele>
<time>2026-05-08T01:06:34Z</time></trkpt>
<trkpt lat="39.495044" lon="-8.122613">
<ele>119</ele>
<time>2026-05-08T01:06:36Z</time></trkpt>
<trkpt lat="39.493821" lon="-8.124114">
<ele>105</ele>
<time>2026-05-08T01:07:10Z</time></trkpt>
<trkpt lat="39.493709" lon="-8.124314">
<ele>103</ele>
<time>2026-05-08T01:07:14Z</time></trkpt>
<trkpt lat="39.49368" lon="-8.124587">
<ele>103</ele>
<time>2026-05-08T01:07:18Z</time></trkpt>
<trkpt lat="39.493854" lon="-8.125499">
<ele>101</ele>
<time>2026-05-08T01:07:33Z</time></trkpt>
<trkpt lat="39.493964" lon="-8.125634">
<ele>102</ele>
<time>2026-05-08T01:07:36Z</time></trkpt>
<trkpt lat="39.494095" lon="-8.125678">
<ele>102</ele>
<time>2026-05-08T01:07:39Z</time></trkpt>
<trkpt lat="39.494211" lon="-8.125649">
<ele>103</ele>
<time>2026-05-08T01:07:41Z</time></trkpt>
<trkpt lat="39.494745" lon="-8.125279">
<ele>100</ele>
<time>2026-05-08T01:07:53Z</time></trkpt>
<trkpt lat="39.494854" lon="-8.125261">
<ele>99</ele>
<time>2026-05-08T01:07:55Z</time></trkpt>
<trkpt lat="39.494983" lon="-8.125299">
<ele>98</ele>
<time>2026-05-08T01:07:58Z</time></trkpt>
<trkpt lat="39.495064" lon="-8.125417">
<ele>97</ele>
<time>2026-05-08T01:08:00Z</time></trkpt>
<trkpt lat="39.495139" lon="-8.125688">
<ele>96</ele>
<time>2026-05-08T01:08:05Z</time></trkpt>
<trkpt lat="39.495549" lon="-8.126623">
<ele>91</ele>
<time>2026-05-08T01:08:21Z</time></trkpt>
<trkpt lat="39.495596" lon="-8.126807">
<ele>91</ele>
<time>2026-05-08T01:08:24Z</time></trkpt>
<trkpt lat="39.49559" lon="-8.126922">
<ele>90</ele>
<time>2026-05-08T01:08:26Z</time></trkpt>
<trkpt lat="39.495553" lon="-8.127095">
<ele>89</ele>
<time>2026-05-08T01:08:29Z</time></trkpt>
<trkpt lat="39.495473" lon="-8.127213">
<ele>87</ele>
<time>2026-05-08T01:08:31Z</time></trkpt>
<trkpt lat="39.49538" lon="-8.127286">
<ele>86</ele>
<time>2026-05-08T01:08:34Z</time></trkpt>
<trkpt lat="39.495272" lon="-8.127296">
<ele>84</ele>
<time>2026-05-08T01:08:36Z</time></trkpt>
<trkpt lat="39.495172" lon="-8.127261">
<ele>83</ele>
<time>2026-05-08T01:08:38Z</time></trkpt>
<trkpt lat="39.494747" lon="-8.126966">
<ele>84</ele>
<time>2026-05-08T01:08:47Z</time></trkpt>
<trkpt lat="39.494588" lon="-8.12693">
<ele>84</ele>
<time>2026-05-08T01:08:51Z</time></trkpt>
<trkpt lat="39.494442" lon="-8.127">
<ele>84</ele>
<time>2026-05-08T01:08:54Z</time></trkpt>
<trkpt lat="39.49425" lon="-8.127138">
<ele>82</ele>
<time>2026-05-08T01:08:58Z</time></trkpt>
<trkpt lat="39.493778" lon="-8.127684">
<ele>73</ele>
<time>2026-05-08T01:09:11Z</time></trkpt>
<trkpt lat="39.493667" lon="-8.127745">
<ele>72</ele>
<time>2026-05-08T01:09:13Z</time></trkpt>
<trkpt lat="39.493555" lon="-8.127736">
<ele>72</ele>
<time>2026-05-08T01:09:16Z</time></trkpt>
<trkpt lat="39.493331" lon="-8.127544">
<ele>75</ele>
<time>2026-05-08T01:09:21Z</time></trkpt>
<trkpt lat="39.493203" lon="-8.127472">
<ele>76</ele>
<time>2026-05-08T01:09:24Z</time></trkpt>
<trkpt lat="39.493082" lon="-8.127499">
<ele>75</ele>
<time>2026-05-08T01:09:26Z</time></trkpt>
<trkpt lat="39.492972" lon="-8.127594">
<ele>72</ele>
<time>2026-05-08T01:09:29Z</time></trkpt>
<trkpt lat="39.492797" lon="-8.127909">
<ele>63</ele>
<time>2026-05-08T01:09:35Z</time></trkpt>
<trkpt lat="39.4927" lon="-8.127971">
<ele>61</ele>
<time>2026-05-08T01:09:37Z</time></trkpt>
<trkpt lat="39.492568" lon="-8.127966">
<ele>60</ele>
<time>2026-05-08T01:09:40Z</time></trkpt>
<trkpt lat="39.492394" lon="-8.127864">
<ele>61</ele>
<time>2026-05-08T01:09:43Z</time></trkpt>
<trkpt lat="39.492015" lon="-8.12749">
<ele>63</ele>
<time>2026-05-08T01:09:53Z</time></trkpt>
<trkpt lat="39.491699" lon="-8.126967">
<ele>65</ele>
<time>2026-05-08T01:10:03Z</time></trkpt>
<trkpt lat="39.491548" lon="-8.126802">
<ele>66</ele>
<time>2026-05-08T01:10:07Z</time></trkpt>
<trkpt lat="39.491468" lon="-8.12676">
<ele>66</ele>
<time>2026-05-08T01:10:09Z</time></trkpt>
<trkpt lat="39.491368" lon="-8.126752">
<ele>66</ele>
<time>2026-05-08T01:10:11Z</time></trkpt>
<trkpt lat="39.491256" lon="-8.126763">
<ele>66</ele>
<time>2026-05-08T01:10:13Z</time></trkpt>
<trkpt lat="39.490789" lon="-8.127158">
<ele>60</ele>
<time>2026-05-08T01:10:24Z</time></trkpt>
<trkpt lat="39.490597" lon="-8.127538">
<ele>55</ele>
<time>2026-05-08T01:10:31Z</time></trkpt>
<trkpt lat="39.490481" lon="-8.127583">
<ele>55</ele>
<time>2026-05-08T01:10:34Z</time></trkpt>
<trkpt lat="39.490227" lon="-8.127628">
<ele>56</ele>
<time>2026-05-08T01:10:39Z</time></trkpt>
<trkpt lat="39.490072" lon="-8.127721">
<ele>55</ele>
<time>2026-05-08T01:10:42Z</time></trkpt>
<trkpt lat="39.489841" lon="-8.127913">
<ele>53</ele>
<time>2026-05-08T01:10:48Z</time></trkpt>
<trkpt lat="39.489663" lon="-8.127968">
<ele>51</ele>
<time>2026-05-08T01:10:52Z</time></trkpt>
<trkpt lat="39.489443" lon="-8.127932">
<ele>51</ele>
<time>2026-05-08T01:10:56Z</time></trkpt>
<trkpt lat="39.48888" lon="-8.127724">
<ele>50</ele>
<time>2026-05-08T01:11:08Z</time></trkpt>
<trkpt lat="39.488748" lon="-8.127753">
<ele>50</ele>
<time>2026-05-08T01:11:10Z</time></trkpt>
<trkpt lat="39.488664" lon="-8.127854">
<ele>49</ele>
<time>2026-05-08T01:11:13Z</time></trkpt>
<trkpt lat="39.488618" lon="-8.127997">
<ele>48</ele>
<time>2026-05-08T01:11:15Z</time></trkpt>
<trkpt lat="39.488527" lon="-8.128454">
<ele>47</ele>
<time>2026-05-08T01:11:22Z</time></trkpt>
<trkpt lat="39.488445" lon="-8.128556">
<ele>48</ele>
<time>2026-05-08T01:11:25Z</time></trkpt>
<trkpt lat="39.488041" lon="-8.128697">
<ele>48</ele>
<time>2026-05-08T01:11:33Z</time></trkpt>
<trkpt lat="39.487965" lon="-8.128772">
<ele>48</ele>
<time>2026-05-08T01:11:35Z</time></trkpt>
<trkpt lat="39.487907" lon="-8.128948">
<ele>48</ele>
<time>2026-05-08T01:11:38Z</time></trkpt>
<trkpt lat="39.487843" lon="-8.129637">
<ele>51</ele>
<time>2026-05-08T01:11:49Z</time></trkpt>
<trkpt lat="39.487775" lon="-8.129803">
<ele>50</ele>
<time>2026-05-08T01:11:52Z</time></trkpt>
<trkpt lat="39.487512" lon="-8.130243">
<ele>46</ele>
<time>2026-05-08T01:12:00Z</time></trkpt>
<trkpt lat="39.487367" lon="-8.130385">
<ele>45</ele>
<time>2026-05-08T01:12:04Z</time></trkpt>
<trkpt lat="39.487296" lon="-8.13053">
<ele>46</ele>
<time>2026-05-08T01:12:07Z</time></trkpt>
<trkpt lat="39.487284" lon="-8.130638">
<ele>46</ele>
<time>2026-05-08T01:12:08Z</time></trkpt>
<trkpt lat="39.487291" lon="-8.130753">
<ele>47</ele>
<time>2026-05-08T01:12:10Z</time></trkpt>
<trkpt lat="39.487351" lon="-8.130934">
<ele>49</ele>
<time>2026-05-08T01:12:13Z</time></trkpt>
<trkpt lat="39.487425" lon="-8.131045">
<ele>50</ele>
<time>2026-05-08T01:12:15Z</time></trkpt>
<trkpt lat="39.487676" lon="-8.131293">
<ele>53</ele>
<time>2026-05-08T01:12:22Z</time></trkpt>
<trkpt lat="39.487793" lon="-8.131511">
<ele>54</ele>
<time>2026-05-08T01:12:26Z</time></trkpt>
<trkpt lat="39.487796" lon="-8.131643">
<ele>54</ele>
<time>2026-05-08T01:12:28Z</time></trkpt>
<trkpt lat="39.487768" lon="-8.131751">
<ele>55</ele>
<time>2026-05-08T01:12:30Z</time></trkpt>
<trkpt lat="39.487737" lon="-8.1318">
<ele>55</ele>
<time>2026-05-08T01:12:31Z</time></trkpt>
<trkpt lat="39.487642" lon="-8.131879">
<ele>56</ele>
<time>2026-05-08T01:12:33Z</time></trkpt>
<trkpt lat="39.487503" lon="-8.131905">
<ele>55</ele>
<time>2026-05-08T01:12:36Z</time></trkpt>
<trkpt lat="39.486857" lon="-8.131787">
<ele>50</ele>
<time>2026-05-08T01:12:49Z</time></trkpt>
<trkpt lat="39.486523" lon="-8.131782">
<ele>50</ele>
<time>2026-05-08T01:12:55Z</time></trkpt>
<trkpt lat="39.486413" lon="-8.131775">
<ele>51</ele>
<time>2026-05-08T01:12:58Z</time></trkpt>
<trkpt lat="39.48631" lon="-8.131741">
<ele>51</ele>
<time>2026-05-08T01:13:00Z</time></trkpt>
<trkpt lat="39.486185" lon="-8.131624">
<ele>51</ele>
<time>2026-05-08T01:13:03Z</time></trkpt>
<trkpt lat="39.485989" lon="-8.131261">
<ele>47</ele>
<time>2026-05-08T01:13:10Z</time></trkpt>
<trkpt lat="39.485818" lon="-8.130991">
<ele>45</ele>
<time>2026-05-08T01:13:15Z</time></trkpt>
<trkpt lat="39.48549" lon="-8.13067">
<ele>42</ele>
<time>2026-05-08T01:13:23Z</time></trkpt>
<trkpt lat="39.485374" lon="-8.130633">
<ele>42</ele>
<time>2026-05-08T01:13:26Z</time></trkpt>
<trkpt lat="39.485311" lon="-8.130651">
<ele>42</ele>
<time>2026-05-08T01:13:27Z</time></trkpt>
<trkpt lat="39.485232" lon="-8.130702">
<ele>43</ele>
<time>2026-05-08T01:13:29Z</time></trkpt>
<trkpt lat="39.485165" lon="-8.130782">
<ele>43</ele>
<time>2026-05-08T01:13:31Z</time></trkpt>
<trkpt lat="39.485093" lon="-8.130989">
<ele>44</ele>
<time>2026-05-08T01:13:34Z</time></trkpt>
<trkpt lat="39.485068" lon="-8.131297">
<ele>45</ele>
<time>2026-05-08T01:13:39Z</time></trkpt>
<trkpt lat="39.485114" lon="-8.131857">
<ele>47</ele>
<time>2026-05-08T01:13:48Z</time></trkpt>
<trkpt lat="39.485164" lon="-8.132219">
<ele>48</ele>
<time>2026-05-08T01:13:53Z</time></trkpt>
<trkpt lat="39.485284" lon="-8.132683">
<ele>51</ele>
<time>2026-05-08T01:14:01Z</time></trkpt>
<trkpt lat="39.485301" lon="-8.132831">
<ele>51</ele>
<time>2026-05-08T01:14:03Z</time></trkpt>
<trkpt lat="39.485278" lon="-8.132974">
<ele>51</ele>
<time>2026-05-08T01:14:05Z</time></trkpt>
<trkpt lat="39.48515" lon="-8.13335">
<ele>50</ele>
<time>2026-05-08T01:14:12Z</time></trkpt>
<trkpt lat="39.485119" lon="-8.13353">
<ele>50</ele>
<time>2026-05-08T01:14:15Z</time></trkpt>
<trkpt lat="39.485118" lon="-8.133761">
<ele>50</ele>
<time>2026-05-08T01:14:18Z</time></trkpt>
<trkpt lat="39.48517" lon="-8.134213">
<ele>51</ele>
<time>2026-05-08T01:14:25Z</time></trkpt>
<trkpt lat="39.485164" lon="-8.134366">
<ele>51</ele>
<time>2026-05-08T01:14:28Z</time></trkpt>
<trkpt lat="39.485137" lon="-8.134456">
<ele>51</ele>
<time>2026-05-08T01:14:29Z</time></trkpt>
<trkpt lat="39.485026" lon="-8.134671">
<ele>49</ele>
<time>2026-05-08T01:14:33Z</time></trkpt>
<trkpt lat="39.485002" lon="-8.134789">
<ele>49</ele>
<time>2026-05-08T01:14:35Z</time></trkpt>
<trkpt lat="39.485021" lon="-8.134949">
<ele>49</ele>
<time>2026-05-08T01:14:37Z</time></trkpt>
<trkpt lat="39.485148" lon="-8.135268">
<ele>53</ele>
<time>2026-05-08T01:14:43Z</time></trkpt>
<trkpt lat="39.485153" lon="-8.135387">
<ele>54</ele>
<time>2026-05-08T01:14:45Z</time></trkpt>
<trkpt lat="39.485103" lon="-8.135546">
<ele>54</ele>
<time>2026-05-08T01:14:48Z</time></trkpt>
<trkpt lat="39.485024" lon="-8.135642">
<ele>53</ele>
<time>2026-05-08T01:14:50Z</time></trkpt>
<trkpt lat="39.484836" lon="-8.135815">
<ele>49</ele>
<time>2026-05-08T01:14:54Z</time></trkpt>
<trkpt lat="39.484765" lon="-8.135932">
<ele>48</ele>
<time>2026-05-08T01:14:57Z</time></trkpt>
<trkpt lat="39.484741" lon="-8.136091">
<ele>48</ele>
<time>2026-05-08T01:14:59Z</time></trkpt>
<trkpt lat="39.484772" lon="-8.136488">
<ele>49</ele>
<time>2026-05-08T01:15:05Z</time></trkpt>
<trkpt lat="39.484757" lon="-8.136636">
<ele>49</ele>
<time>2026-05-08T01:15:08Z</time></trkpt>
<trkpt lat="39.484498" lon="-8.137348">
<ele>46</ele>
<time>2026-05-08T01:15:20Z</time></trkpt>
<trkpt lat="39.484464" lon="-8.137493">
<ele>45</ele>
<time>2026-05-08T01:15:22Z</time></trkpt>
<trkpt lat="39.484466" lon="-8.137588">
<ele>46</ele>
<time>2026-05-08T01:15:24Z</time></trkpt>
<trkpt lat="39.484519" lon="-8.137892">
<ele>48</ele>
<time>2026-05-08T01:15:28Z</time></trkpt>
<trkpt lat="39.484475" lon="-8.138518">
<ele>47</ele>
<time>2026-05-08T01:15:38Z</time></trkpt>
<trkpt lat="39.484489" lon="-8.138824">
<ele>47</ele>
<time>2026-05-08T01:15:43Z</time></trkpt>
<trkpt lat="39.484569" lon="-8.139061">
<ele>49</ele>
<time>2026-05-08T01:15:47Z</time></trkpt>
<trkpt lat="39.484785" lon="-8.139371">
<ele>54</ele>
<time>2026-05-08T01:15:53Z</time></trkpt>
<trkpt lat="39.484819" lon="-8.139471">
<ele>55</ele>
<time>2026-05-08T01:15:55Z</time></trkpt>
<trkpt lat="39.484831" lon="-8.139564">
<ele>55</ele>
<time>2026-05-08T01:15:56Z</time></trkpt>
<trkpt lat="39.484791" lon="-8.139747">
<ele>55</ele>
<time>2026-05-08T01:15:59Z</time></trkpt>
<trkpt lat="39.484564" lon="-8.140129">
<ele>51</ele>
<time>2026-05-08T01:16:07Z</time></trkpt>
<trkpt lat="39.484504" lon="-8.140299">
<ele>50</ele>
<time>2026-05-08T01:16:10Z</time></trkpt>
<trkpt lat="39.484501" lon="-8.140472">
<ele>50</ele>
<time>2026-05-08T01:16:12Z</time></trkpt>
<trkpt lat="39.484568" lon="-8.14078">
<ele>53</ele>
<time>2026-05-08T01:16:17Z</time></trkpt>
<trkpt lat="39.484575" lon="-8.14089">
<ele>53</ele>
<time>2026-05-08T01:16:19Z</time></trkpt>
<trkpt lat="39.484555" lon="-8.141002">
<ele>53</ele>
<time>2026-05-08T01:16:21Z</time></trkpt>
<trkpt lat="39.484438" lon="-8.141357">
<ele>51</ele>
<time>2026-05-08T01:16:27Z</time></trkpt>
<trkpt lat="39.484406" lon="-8.141548">
<ele>51</ele>
<time>2026-05-08T01:16:30Z</time></trkpt>
<trkpt lat="39.48442" lon="-8.141771">
<ele>51</ele>
<time>2026-05-08T01:16:33Z</time></trkpt>
<trkpt lat="39.484475" lon="-8.141941">
<ele>52</ele>
<time>2026-05-08T01:16:36Z</time></trkpt>
<trkpt lat="39.484615" lon="-8.142272">
<ele>55</ele>
<time>2026-05-08T01:16:42Z</time></trkpt>
<trkpt lat="39.484633" lon="-8.142375">
<ele>56</ele>
<time>2026-05-08T01:16:44Z</time></trkpt>
<trkpt lat="39.484629" lon="-8.142488">
<ele>56</ele>
<time>2026-05-08T01:16:45Z</time></trkpt>
<trkpt lat="39.484595" lon="-8.142633">
<ele>55</ele>
<time>2026-05-08T01:16:48Z</time></trkpt>
<trkpt lat="39.484555" lon="-8.142715">
<ele>54</ele>
<time>2026-05-08T01:16:49Z</time></trkpt>
<trkpt lat="39.484245" lon="-8.143084">
<ele>50</ele>
<time>2026-05-08T01:16:58Z</time></trkpt>
<trkpt lat="39.484177" lon="-8.143211">
<ele>50</ele>
<time>2026-05-08T01:17:00Z</time></trkpt>
<trkpt lat="39.484148" lon="-8.143336">
<ele>50</ele>
<time>2026-05-08T01:17:02Z</time></trkpt>
<trkpt lat="39.484147" lon="-8.143404">
<ele>50</ele>
<time>2026-05-08T01:17:03Z</time></trkpt>
<trkpt lat="39.484173" lon="-8.143537">
<ele>51</ele>
<time>2026-05-08T01:17:05Z</time></trkpt>
<trkpt lat="39.484249" lon="-8.143693">
<ele>52</ele>
<time>2026-05-08T01:17:08Z</time></trkpt>
<trkpt lat="39.484343" lon="-8.143785">
<ele>53</ele>
<time>2026-05-08T01:17:10Z</time></trkpt>
<trkpt lat="39.48459" lon="-8.143903">
<ele>55</ele>
<time>2026-05-08T01:17:16Z</time></trkpt>
<trkpt lat="39.484682" lon="-8.144013">
<ele>56</ele>
<time>2026-05-08T01:17:18Z</time></trkpt>
<trkpt lat="39.484709" lon="-8.144087">
<ele>56</ele>
<time>2026-05-08T01:17:20Z</time></trkpt>
<trkpt lat="39.484727" lon="-8.144231">
<ele>56</ele>
<time>2026-05-08T01:17:22Z</time></trkpt>
<trkpt lat="39.4847" lon="-8.144362">
<ele>56</ele>
<time>2026-05-08T01:17:24Z</time></trkpt>
<trkpt lat="39.48462" lon="-8.144469">
<ele>56</ele>
<time>2026-05-08T01:17:26Z</time></trkpt>
<trkpt lat="39.484387" lon="-8.144592">
<ele>55</ele>
<time>2026-05-08T01:17:31Z</time></trkpt>
<trkpt lat="39.4843" lon="-8.144673">
<ele>54</ele>
<time>2026-05-08T01:17:33Z</time></trkpt>
<trkpt lat="39.484222" lon="-8.14486">
<ele>54</ele>
<time>2026-05-08T01:17:37Z</time></trkpt>
<trkpt lat="39.484132" lon="-8.145221">
<ele>54</ele>
<time>2026-05-08T01:17:43Z</time></trkpt>
<trkpt lat="39.483876" lon="-8.146403">
<ele>49</ele>
<time>2026-05-08T01:18:02Z</time></trkpt>
<trkpt lat="39.483867" lon="-8.14653">
<ele>48</ele>
<time>2026-05-08T01:18:03Z</time></trkpt>
<trkpt lat="39.48388" lon="-8.146659">
<ele>47</ele>
<time>2026-05-08T01:18:05Z</time></trkpt>
<trkpt lat="39.48394" lon="-8.14678">
<ele>46</ele>
<time>2026-05-08T01:18:08Z</time></trkpt>
<trkpt lat="39.484018" lon="-8.146859">
<ele>46</ele>
<time>2026-05-08T01:18:10Z</time></trkpt>
<trkpt lat="39.484376" lon="-8.147001">
<ele>48</ele>
<time>2026-05-08T01:18:17Z</time></trkpt>
<trkpt lat="39.484513" lon="-8.147109">
<ele>48</ele>
<time>2026-05-08T01:18:20Z</time></trkpt>
<trkpt lat="39.4846" lon="-8.147262">
<ele>48</ele>
<time>2026-05-08T01:18:23Z</time></trkpt>
<trkpt lat="39.484617" lon="-8.147336">
<ele>47</ele>
<time>2026-05-08T01:18:25Z</time></trkpt>
<trkpt lat="39.484618" lon="-8.147467">
<ele>46</ele>
<time>2026-05-08T01:18:27Z</time></trkpt>
<trkpt lat="39.484586" lon="-8.147563">
<ele>46</ele>
<time>2026-05-08T01:18:28Z</time></trkpt>
<trkpt lat="39.484494" lon="-8.147652">
<ele>46</ele>
<time>2026-05-08T01:18:30Z</time></trkpt>
<trkpt lat="39.4844" lon="-8.147666">
<ele>46</ele>
<time>2026-05-08T01:18:32Z</time></trkpt>
<trkpt lat="39.484088" lon="-8.147621">
<ele>44</ele>
<time>2026-05-08T01:18:39Z</time></trkpt>
<trkpt lat="39.483977" lon="-8.147627">
<ele>43</ele>
<time>2026-05-08T01:18:41Z</time></trkpt>
<trkpt lat="39.483858" lon="-8.14769">
<ele>43</ele>
<time>2026-05-08T01:18:43Z</time></trkpt>
<trkpt lat="39.483676" lon="-8.147859">
<ele>45</ele>
<time>2026-05-08T01:18:48Z</time></trkpt>
<trkpt lat="39.483582" lon="-8.147916">
<ele>45</ele>
<time>2026-05-08T01:18:50Z</time></trkpt>
<trkpt lat="39.483236" lon="-8.147978">
<ele>44</ele>
<time>2026-05-08T01:18:57Z</time></trkpt>
<trkpt lat="39.483058" lon="-8.148048">
<ele>45</ele>
<time>2026-05-08T01:19:01Z</time></trkpt>
<trkpt lat="39.482934" lon="-8.148142">
<ele>46</ele>
<time>2026-05-08T01:19:04Z</time></trkpt>
<trkpt lat="39.482759" lon="-8.148311">
<ele>48</ele>
<time>2026-05-08T01:19:08Z</time></trkpt>
<trkpt lat="39.48244" lon="-8.148656">
<ele>47</ele>
<time>2026-05-08T01:19:16Z</time></trkpt>
<trkpt lat="39.482321" lon="-8.148812">
<ele>47</ele>
<time>2026-05-08T01:19:20Z</time></trkpt>
<trkpt lat="39.482192" lon="-8.14908">
<ele>47</ele>
<time>2026-05-08T01:19:25Z</time></trkpt>
<trkpt lat="39.481346" lon="-8.15121">
<ele>45</ele>
<time>2026-05-08T01:20:02Z</time></trkpt>
<trkpt lat="39.480165" lon="-8.154578">
<ele>48</ele>
<time>2026-05-08T01:20:59Z</time></trkpt>
<trkpt lat="39.479326" lon="-8.156942">
<ele>45</ele>
<time>2026-05-08T01:21:39Z</time></trkpt>
<trkpt lat="39.478417" lon="-8.159488">
<ele>46</ele>
<time>2026-05-08T01:22:23Z</time></trkpt>
<trkpt lat="39.478306" lon="-8.15987">
<ele>45</ele>
<time>2026-05-08T01:22:29Z</time></trkpt>
<trkpt lat="39.47824" lon="-8.16019">
<ele>45</ele>
<time>2026-05-08T01:22:34Z</time></trkpt>
<trkpt lat="39.478208" lon="-8.160478">
<ele>44</ele>
<time>2026-05-08T01:22:38Z</time></trkpt>
<trkpt lat="39.478198" lon="-8.160712">
<ele>44</ele>
<time>2026-05-08T01:22:42Z</time></trkpt>
<trkpt lat="39.478218" lon="-8.161431">
<ele>44</ele>
<time>2026-05-08T01:22:53Z</time></trkpt>
<trkpt lat="39.478174" lon="-8.161736">
<ele>44</ele>
<time>2026-05-08T01:22:58Z</time></trkpt>
<trkpt lat="39.478084" lon="-8.162014">
<ele>44</ele>
<time>2026-05-08T01:23:03Z</time></trkpt>
<trkpt lat="39.477936" lon="-8.162499">
<ele>44</ele>
<time>2026-05-08T01:23:11Z</time></trkpt>
<trkpt lat="39.477913" lon="-8.162778">
<ele>44</ele>
<time>2026-05-08T01:23:15Z</time></trkpt>
<trkpt lat="39.477952" lon="-8.163134">
<ele>45</ele>
<time>2026-05-08T01:23:21Z</time></trkpt>
<trkpt lat="39.4782" lon="-8.164407">
<ele>46</ele>
<time>2026-05-08T01:23:41Z</time></trkpt>
<trkpt lat="39.478226" lon="-8.164634">
<ele>46</ele>
<time>2026-05-08T01:23:44Z</time></trkpt>
<trkpt lat="39.478219" lon="-8.164725">
<ele>46</ele>
<time>2026-05-08T01:23:46Z</time></trkpt>
<trkpt lat="39.478168" lon="-8.164866">
<ele>46</ele>
<time>2026-05-08T01:23:48Z</time></trkpt>
<trkpt lat="39.477855" lon="-8.165351">
<ele>45</ele>
<time>2026-05-08T01:23:58Z</time></trkpt>
<trkpt lat="39.477797" lon="-8.165473">
<ele>45</ele>
<time>2026-05-08T01:24:00Z</time></trkpt>
<trkpt lat="39.477719" lon="-8.165765">
<ele>44</ele>
<time>2026-05-08T01:24:05Z</time></trkpt>
<trkpt lat="39.477423" lon="-8.16708">
<ele>40</ele>
<time>2026-05-08T01:24:26Z</time></trkpt>
<trkpt lat="39.477313" lon="-8.167637">
<ele>38</ele>
<time>2026-05-08T01:24:35Z</time></trkpt>
<trkpt lat="39.477232" lon="-8.167984">
<ele>40</ele>
<time>2026-05-08T01:24:41Z</time></trkpt>
<trkpt lat="39.477197" lon="-8.168107">
<ele>40</ele>
<time>2026-05-08T01:24:43Z</time></trkpt>
<trkpt lat="39.477168" lon="-8.168352">
<ele>42</ele>
<time>2026-05-08T01:24:47Z</time></trkpt>
<trkpt lat="39.477206" lon="-8.168774">
<ele>44</ele>
<time>2026-05-08T01:24:53Z</time></trkpt>
<trkpt lat="39.477181" lon="-8.169315">
<ele>47</ele>
<time>2026-05-08T01:25:02Z</time></trkpt>
<trkpt lat="39.477007" lon="-8.170587">
<ele>49</ele>
<time>2026-05-08T01:25:22Z</time></trkpt>
<trkpt lat="39.47687" lon="-8.171413">
<ele>51</ele>
<time>2026-05-08T01:25:35Z</time></trkpt>
<trkpt lat="39.476676" lon="-8.172268">
<ele>50</ele>
<time>2026-05-08T01:25:48Z</time></trkpt>
<trkpt lat="39.476054" lon="-8.174907">
<ele>51</ele>
<time>2026-05-08T01:26:31Z</time></trkpt>
<trkpt lat="39.475799" lon="-8.175974">
<ele>49</ele>
<time>2026-05-08T01:26:48Z</time></trkpt>
<trkpt lat="39.476082" lon="-8.176081">
<ele>50</ele>
<time>2026-05-08T01:26:54Z</time></trkpt>
<trkpt lat="39.476838" lon="-8.176574">
<ele>50</ele>
<time>2026-05-08T01:27:11Z</time></trkpt>
<trkpt lat="39.478204" lon="-8.17737">
<ele>52</ele>
<time>2026-05-08T01:27:41Z</time></trkpt>
<trkpt lat="39.478213" lon="-8.177335">
<ele>52</ele>
<time>2026-05-08T01:27:42Z</time></trkpt>
<trkpt lat="39.478255" lon="-8.177285">
<ele>52</ele>
<time>2026-05-08T01:27:43Z</time></trkpt>
<trkpt lat="39.478283" lon="-8.177277">
<ele>52</ele>
<time>2026-05-08T01:27:44Z</time></trkpt>
<trkpt lat="39.478338" lon="-8.177299">
<ele>52</ele>
<time>2026-05-08T01:27:45Z</time></trkpt>
<trkpt lat="39.478371" lon="-8.177381">
<ele>52</ele>
<time>2026-05-08T01:27:46Z</time></trkpt>
<trkpt lat="39.478335" lon="-8.177486">
<ele>52</ele>
<time>2026-05-08T01:27:48Z</time></trkpt>
<trkpt lat="39.478366" lon="-8.1777">
<ele>52</ele>
<time>2026-05-08T01:27:51Z</time></trkpt>
<trkpt lat="39.478589" lon="-8.185243">
<ele>62</ele>
<time>2026-05-08T01:29:48Z</time></trkpt>
<trkpt lat="39.477106" lon="-8.185205">
<ele>54</ele>
<time>2026-05-08T01:30:18Z</time></trkpt>
<trkpt lat="39.47671" lon="-8.185311">
<ele>52</ele>
<time>2026-05-08T01:30:26Z</time></trkpt>
<trkpt lat="39.476654" lon="-8.185396">
<ele>51</ele>
<time>2026-05-08T01:30:28Z</time></trkpt>
<trkpt lat="39.476614" lon="-8.185422">
<ele>51</ele>
<time>2026-05-08T01:30:28Z</time></trkpt>
<trkpt lat="39.476433" lon="-8.18581">
<ele>51</ele>
<time>2026-05-08T01:30:35Z</time></trkpt>
<trkpt lat="39.47548" lon="-8.189416">
<ele>57</ele>
<time>2026-05-08T01:31:34Z</time></trkpt>
<trkpt lat="39.475399" lon="-8.189657">
<ele>57</ele>
<time>2026-05-08T01:31:38Z</time></trkpt>
<trkpt lat="39.475028" lon="-8.190356">
<ele>55</ele>
<time>2026-05-08T01:31:52Z</time></trkpt>
<trkpt lat="39.474944" lon="-8.190565">
<ele>55</ele>
<time>2026-05-08T01:31:55Z</time></trkpt>
<trkpt lat="39.47499" lon="-8.190809">
<ele>55</ele>
<time>2026-05-08T01:31:59Z</time></trkpt>
<trkpt lat="39.475017" lon="-8.190848">
<ele>55</ele>
<time>2026-05-08T01:32:00Z</time></trkpt>
<trkpt lat="39.475048" lon="-8.190961">
<ele>55</ele>
<time>2026-05-08T01:32:02Z</time></trkpt>
<trkpt lat="39.475044" lon="-8.191022">
<ele>55</ele>
<time>2026-05-08T01:32:03Z</time></trkpt>
<trkpt lat="39.47499" lon="-8.191133">
<ele>54</ele>
<time>2026-05-08T01:32:05Z</time></trkpt>
<trkpt lat="39.474931" lon="-8.191171">
<ele>54</ele>
<time>2026-05-08T01:32:06Z</time></trkpt>
<trkpt lat="39.474846" lon="-8.191176">
<ele>54</ele>
<time>2026-05-08T01:32:08Z</time></trkpt>
<trkpt lat="39.474799" lon="-8.19115">
<ele>54</ele>
<time>2026-05-08T01:32:09Z</time></trkpt>
<trkpt lat="39.474606" lon="-8.191143">
<ele>53</ele>
<time>2026-05-08T01:32:13Z</time></trkpt>
<trkpt lat="39.474428" lon="-8.191325">
<ele>53</ele>
<time>2026-05-08T01:32:17Z</time></trkpt>
<trkpt lat="39.474311" lon="-8.191481">
<ele>52</ele>
<time>2026-05-08T01:32:21Z</time></trkpt>
<trkpt lat="39.474041" lon="-8.19195">
<ele>52</ele>
<time>2026-05-08T01:32:30Z</time></trkpt>
<trkpt lat="39.473454" lon="-8.193018">
<ele>50</ele>
<time>2026-05-08T01:32:50Z</time></trkpt>
<trkpt lat="39.472892" lon="-8.194031">
<ele>49</ele>
<time>2026-05-08T01:33:09Z</time></trkpt>
<trkpt lat="39.472757" lon="-8.194359">
<ele>49</ele>
<time>2026-05-08T01:33:15Z</time></trkpt>
<trkpt lat="39.472759" lon="-8.194423">
<ele>49</ele>
<time>2026-05-08T01:33:16Z</time></trkpt>
<trkpt lat="39.472717" lon="-8.194542">
<ele>50</ele>
<time>2026-05-08T01:33:18Z</time></trkpt>
<trkpt lat="39.472657" lon="-8.194591">
<ele>50</ele>
<time>2026-05-08T01:33:19Z</time></trkpt>
<trkpt lat="39.47259" lon="-8.194606">
<ele>50</ele>
<time>2026-05-08T01:33:21Z</time></trkpt>
<trkpt lat="39.472526" lon="-8.194589">
<ele>50</ele>
<time>2026-05-08T01:33:22Z</time></trkpt>
<trkpt lat="39.47229" lon="-8.194701">
<ele>51</ele>
<time>2026-05-08T01:33:27Z</time></trkpt>
<trkpt lat="39.471426" lon="-8.19558">
<ele>57</ele>
<time>2026-05-08T01:33:49Z</time></trkpt>
<trkpt lat="39.471164" lon="-8.19589">
<ele>60</ele>
<time>2026-05-08T01:33:56Z</time></trkpt>
<trkpt lat="39.470733" lon="-8.196549">
<ele>64</ele>
<time>2026-05-08T01:34:10Z</time></trkpt>
<trkpt lat="39.470574" lon="-8.196787">
<ele>65</ele>
<time>2026-05-08T01:34:14Z</time></trkpt>
<trkpt lat="39.470457" lon="-8.197036">
<ele>67</ele>
<time>2026-05-08T01:34:19Z</time></trkpt>
<trkpt lat="39.470358" lon="-8.197299">
<ele>69</ele>
<time>2026-05-08T01:34:24Z</time></trkpt>
<trkpt lat="39.47028" lon="-8.197812">
<ele>72</ele>
<time>2026-05-08T01:34:32Z</time></trkpt>
<trkpt lat="39.470129" lon="-8.199117">
<ele>80</ele>
<time>2026-05-08T01:34:52Z</time></trkpt>
<trkpt lat="39.469992" lon="-8.199491">
<ele>81</ele>
<time>2026-05-08T01:34:58Z</time></trkpt>
<trkpt lat="39.469828" lon="-8.19978">
<ele>83</ele>
<time>2026-05-08T01:35:04Z</time></trkpt>
<trkpt lat="39.469405" lon="-8.200311">
<ele>87</ele>
<time>2026-05-08T01:35:16Z</time></trkpt>
<trkpt lat="39.469449" lon="-8.200411">
<ele>86</ele>
<time>2026-05-08T01:35:18Z</time></trkpt>
<trkpt lat="39.46945" lon="-8.200471">
<ele>86</ele>
<time>2026-05-08T01:35:18Z</time></trkpt>
<trkpt lat="39.469427" lon="-8.200544">
<ele>86</ele>
<time>2026-05-08T01:35:20Z</time></trkpt>
<trkpt lat="39.469393" lon="-8.200587">
<ele>86</ele>
<time>2026-05-08T01:35:21Z</time></trkpt>
<trkpt lat="39.469332" lon="-8.200617">
<ele>86</ele>
<time>2026-05-08T01:35:22Z</time></trkpt>
<trkpt lat="39.469284" lon="-8.200615">
<ele>87</ele>
<time>2026-05-08T01:35:23Z</time></trkpt>
<trkpt lat="39.469219" lon="-8.200821">
<ele>87</ele>
<time>2026-05-08T01:35:26Z</time></trkpt>
<trkpt lat="39.469085" lon="-8.202039">
<ele>88</ele>
<time>2026-05-08T01:35:45Z</time></trkpt>
<trkpt lat="39.468984" lon="-8.202866">
<ele>91</ele>
<time>2026-05-08T01:35:58Z</time></trkpt>
<trkpt lat="39.468934" lon="-8.203086">
<ele>91</ele>
<time>2026-05-08T01:36:02Z</time></trkpt>
<trkpt lat="39.468854" lon="-8.203335">
<ele>92</ele>
<time>2026-05-08T01:36:06Z</time></trkpt>
<trkpt lat="39.468678" lon="-8.203658">
<ele>92</ele>
<time>2026-05-08T01:36:12Z</time></trkpt>
<trkpt lat="39.468459" lon="-8.204292">
<ele>91</ele>
<time>2026-05-08T01:36:23Z</time></trkpt>
<trkpt lat="39.468372" lon="-8.205142">
<ele>91</ele>
<time>2026-05-08T01:36:36Z</time></trkpt>
<trkpt lat="39.468347" lon="-8.205664">
<ele>90</ele>
<time>2026-05-08T01:36:44Z</time></trkpt>
<trkpt lat="39.46839" lon="-8.207473">
<ele>91</ele>
<time>2026-05-08T01:37:12Z</time></trkpt>
<trkpt lat="39.468352" lon="-8.20771">
<ele>91</ele>
<time>2026-05-08T01:37:16Z</time></trkpt>
<trkpt lat="39.468267" lon="-8.208004">
<ele>91</ele>
<time>2026-05-08T01:37:21Z</time></trkpt>
<trkpt lat="39.468125" lon="-8.208268">
<ele>92</ele>
<time>2026-05-08T01:37:26Z</time></trkpt>
<trkpt lat="39.467363" lon="-8.209169">
<ele>94</ele>
<time>2026-05-08T01:37:47Z</time></trkpt>
<trkpt lat="39.466956" lon="-8.209729">
<ele>97</ele>
<time>2026-05-08T01:37:58Z</time></trkpt>
<trkpt lat="39.46683" lon="-8.209979">
<ele>97</ele>
<time>2026-05-08T01:38:03Z</time></trkpt>
<trkpt lat="39.466708" lon="-8.210326">
<ele>99</ele>
<time>2026-05-08T01:38:09Z</time></trkpt>
<trkpt lat="39.4666" lon="-8.21083">
<ele>102</ele>
<time>2026-05-08T01:38:17Z</time></trkpt>
<trkpt lat="39.466339" lon="-8.212223">
<ele>112</ele>
<time>2026-05-08T01:38:39Z</time></trkpt>
<trkpt lat="39.466268" lon="-8.212417">
<ele>113</ele>
<time>2026-05-08T01:38:43Z</time></trkpt>
<trkpt lat="39.46618" lon="-8.212578">
<ele>115</ele>
<time>2026-05-08T01:38:46Z</time></trkpt>
<trkpt lat="39.466048" lon="-8.212721">
<ele>116</ele>
<time>2026-05-08T01:38:49Z</time></trkpt>
<trkpt lat="39.465537" lon="-8.213148">
<ele>122</ele>
<time>2026-05-08T01:39:01Z</time></trkpt>
<trkpt lat="39.465407" lon="-8.2133">
<ele>123</ele>
<time>2026-05-08T01:39:05Z</time></trkpt>
<trkpt lat="39.465284" lon="-8.213493">
<ele>125</ele>
<time>2026-05-08T01:39:09Z</time></trkpt>
<trkpt lat="39.464983" lon="-8.214125">
<ele>130</ele>
<time>2026-05-08T01:39:20Z</time></trkpt>
<trkpt lat="39.464932" lon="-8.214313">
<ele>130</ele>
<time>2026-05-08T01:39:23Z</time></trkpt>
<trkpt lat="39.465001" lon="-8.214367">
<ele>130</ele>
<time>2026-05-08T01:39:25Z</time></trkpt>
<trkpt lat="39.465048" lon="-8.21445">
<ele>129</ele>
<time>2026-05-08T01:39:26Z</time></trkpt>
<trkpt lat="39.465067" lon="-8.21455">
<ele>129</ele>
<time>2026-05-08T01:39:28Z</time></trkpt>
<trkpt lat="39.465051" lon="-8.214665">
<ele>129</ele>
<time>2026-05-08T01:39:30Z</time></trkpt>
<trkpt lat="39.464998" lon="-8.214759">
<ele>129</ele>
<time>2026-05-08T01:39:32Z</time></trkpt>
<trkpt lat="39.464919" lon="-8.214815">
<ele>129</ele>
<time>2026-05-08T01:39:33Z</time></trkpt>
<trkpt lat="39.46483" lon="-8.214821">
<ele>129</ele>
<time>2026-05-08T01:39:35Z</time></trkpt>
<trkpt lat="39.464622" lon="-8.216901">
<ele>128</ele>
<time>2026-05-08T01:40:08Z</time></trkpt>
<trkpt lat="39.464442" lon="-8.218654">
<ele>118</ele>
<time>2026-05-08T01:40:35Z</time></trkpt>
<trkpt lat="39.464402" lon="-8.219163">
<ele>114</ele>
<time>2026-05-08T01:40:43Z</time></trkpt>
<trkpt lat="39.464409" lon="-8.219614">
<ele>113</ele>
<time>2026-05-08T01:40:50Z</time></trkpt>
<trkpt lat="39.464467" lon="-8.220124">
<ele>111</ele>
<time>2026-05-08T01:40:58Z</time></trkpt>
<trkpt lat="39.464559" lon="-8.220584">
<ele>110</ele>
<time>2026-05-08T01:41:05Z</time></trkpt>
<trkpt lat="39.464675" lon="-8.22096">
<ele>109</ele>
<time>2026-05-08T01:41:11Z</time></trkpt>
<trkpt lat="39.464796" lon="-8.221276">
<ele>107</ele>
<time>2026-05-08T01:41:17Z</time></trkpt>
<trkpt lat="39.464923" lon="-8.221555">
<ele>104</ele>
<time>2026-05-08T01:41:22Z</time></trkpt>
<trkpt lat="39.465114" lon="-8.221888">
<ele>103</ele>
<time>2026-05-08T01:41:28Z</time></trkpt>
<trkpt lat="39.465582" lon="-8.22247">
<ele>100</ele>
<time>2026-05-08T01:41:41Z</time></trkpt>
<trkpt lat="39.466373" lon="-8.223244">
<ele>93</ele>
<time>2026-05-08T01:42:01Z</time></trkpt>
<trkpt lat="39.466618" lon="-8.223653">
<ele>89</ele>
<time>2026-05-08T01:42:09Z</time></trkpt>
<trkpt lat="39.467723" lon="-8.225992">
<ele>66</ele>
<time>2026-05-08T01:42:52Z</time></trkpt>
<trkpt lat="39.468136" lon="-8.226612">
<ele>60</ele>
<time>2026-05-08T01:43:04Z</time></trkpt>
<trkpt lat="39.468355" lon="-8.226815">
<ele>57</ele>
<time>2026-05-08T01:43:10Z</time></trkpt>
<trkpt lat="39.468496" lon="-8.226904">
<ele>56</ele>
<time>2026-05-08T01:43:13Z</time></trkpt>
<trkpt lat="39.468787" lon="-8.226978">
<ele>55</ele>
<time>2026-05-08T01:43:19Z</time></trkpt>
<trkpt lat="39.468872" lon="-8.227032">
<ele>55</ele>
<time>2026-05-08T01:43:21Z</time></trkpt>
<trkpt lat="39.46894" lon="-8.227158">
<ele>54</ele>
<time>2026-05-08T01:43:23Z</time></trkpt>
<trkpt lat="39.469006" lon="-8.227609">
<ele>52</ele>
<time>2026-05-08T01:43:30Z</time></trkpt>
<trkpt lat="39.469416" lon="-8.228503">
<ele>51</ele>
<time>2026-05-08T01:43:46Z</time></trkpt>
<trkpt lat="39.469577" lon="-8.228774">
<ele>50</ele>
<time>2026-05-08T01:43:52Z</time></trkpt>
<trkpt lat="39.469816" lon="-8.229012">
<ele>50</ele>
<time>2026-05-08T01:43:58Z</time></trkpt>
<trkpt lat="39.47084" lon="-8.229554">
<ele>55</ele>
<time>2026-05-08T01:44:20Z</time></trkpt>
<trkpt lat="39.471231" lon="-8.229714">
<ele>57</ele>
<time>2026-05-08T01:44:28Z</time></trkpt>
<trkpt lat="39.471386" lon="-8.229836">
<ele>59</ele>
<time>2026-05-08T01:44:32Z</time></trkpt>
<trkpt lat="39.471695" lon="-8.230254">
<ele>63</ele>
<time>2026-05-08T01:44:41Z</time></trkpt>
<trkpt lat="39.47193" lon="-8.230523">
<ele>65</ele>
<time>2026-05-08T01:44:47Z</time></trkpt>
<trkpt lat="39.472541" lon="-8.231115">
<ele>72</ele>
<time>2026-05-08T01:45:02Z</time></trkpt>
<trkpt lat="39.473289" lon="-8.23164">
<ele>81</ele>
<time>2026-05-08T01:45:19Z</time></trkpt>
<trkpt lat="39.473662" lon="-8.231893">
<ele>87</ele>
<time>2026-05-08T01:45:28Z</time></trkpt>
<trkpt lat="39.473857" lon="-8.232166">
<ele>91</ele>
<time>2026-05-08T01:45:33Z</time></trkpt>
<trkpt lat="39.474453" lon="-8.233446">
<ele>94</ele>
<time>2026-05-08T01:45:56Z</time></trkpt>
<trkpt lat="39.474577" lon="-8.233872">
<ele>86</ele>
<time>2026-05-08T01:46:03Z</time></trkpt>
<trkpt lat="39.474634" lon="-8.234146">
<ele>82</ele>
<time>2026-05-08T01:46:08Z</time></trkpt>
<trkpt lat="39.474655" lon="-8.234462">
<ele>78</ele>
<time>2026-05-08T01:46:13Z</time></trkpt>
<trkpt lat="39.474614" lon="-8.234863">
<ele>75</ele>
<time>2026-05-08T01:46:19Z</time></trkpt>
<trkpt lat="39.47443" lon="-8.235505">
<ele>72</ele>
<time>2026-05-08T01:46:30Z</time></trkpt>
<trkpt lat="39.474374" lon="-8.235776">
<ele>70</ele>
<time>2026-05-08T01:46:34Z</time></trkpt>
<trkpt lat="39.474345" lon="-8.236139">
<ele>68</ele>
<time>2026-05-08T01:46:40Z</time></trkpt>
<trkpt lat="39.47428" lon="-8.236463">
<ele>66</ele>
<time>2026-05-08T01:46:45Z</time></trkpt>
<trkpt lat="39.474159" lon="-8.236755">
<ele>64</ele>
<time>2026-05-08T01:46:50Z</time></trkpt>
<trkpt lat="39.473999" lon="-8.237011">
<ele>62</ele>
<time>2026-05-08T01:46:55Z</time></trkpt>
<trkpt lat="39.473905" lon="-8.237211">
<ele>60</ele>
<time>2026-05-08T01:46:59Z</time></trkpt>
<trkpt lat="39.47386" lon="-8.237451">
<ele>57</ele>
<time>2026-05-08T01:47:02Z</time></trkpt>
<trkpt lat="39.473841" lon="-8.237726">
<ele>55</ele>
<time>2026-05-08T01:47:07Z</time></trkpt>
<trkpt lat="39.473859" lon="-8.238028">
<ele>54</ele>
<time>2026-05-08T01:47:11Z</time></trkpt>
<trkpt lat="39.474064" lon="-8.23907">
<ele>50</ele>
<time>2026-05-08T01:47:28Z</time></trkpt>
<trkpt lat="39.474181" lon="-8.239362">
<ele>46</ele>
<time>2026-05-08T01:47:33Z</time></trkpt>
<trkpt lat="39.475299" lon="-8.241411">
<ele>31</ele>
<time>2026-05-08T01:48:12Z</time></trkpt>
<trkpt lat="39.475414" lon="-8.241716">
<ele>31</ele>
<time>2026-05-08T01:48:17Z</time></trkpt>
<trkpt lat="39.475437" lon="-8.241971">
<ele>31</ele>
<time>2026-05-08T01:48:21Z</time></trkpt>
<trkpt lat="39.475432" lon="-8.242637">
<ele>32</ele>
<time>2026-05-08T01:48:31Z</time></trkpt>
<trkpt lat="39.475367" lon="-8.243451">
<ele>33</ele>
<time>2026-05-08T01:48:44Z</time></trkpt>
<trkpt lat="39.475272" lon="-8.243995">
<ele>33</ele>
<time>2026-05-08T01:48:53Z</time></trkpt>
<trkpt lat="39.475271" lon="-8.244192">
<ele>33</ele>
<time>2026-05-08T01:48:56Z</time></trkpt>
<trkpt lat="39.475325" lon="-8.244366">
<ele>32</ele>
<time>2026-05-08T01:48:59Z</time></trkpt>
<trkpt lat="39.475465" lon="-8.244596">
<ele>32</ele>
<time>2026-05-08T01:49:03Z</time></trkpt>
<trkpt lat="39.475807" lon="-8.245016">
<ele>32</ele>
<time>2026-05-08T01:49:13Z</time></trkpt>
<trkpt lat="39.476278" lon="-8.245453">
<ele>32</ele>
<time>2026-05-08T01:49:24Z</time></trkpt>
<trkpt lat="39.477649" lon="-8.246331">
<ele>34</ele>
<time>2026-05-08T01:49:55Z</time></trkpt>
<trkpt lat="39.478523" lon="-8.247216">
<ele>32</ele>
<time>2026-05-08T01:50:17Z</time></trkpt>
<trkpt lat="39.480362" lon="-8.24876">
<ele>37</ele>
<time>2026-05-08T01:51:01Z</time></trkpt>
<trkpt lat="39.480673" lon="-8.249043">
<ele>37</ele>
<time>2026-05-08T01:51:09Z</time></trkpt>
<trkpt lat="39.480939" lon="-8.249396">
<ele>36</ele>
<time>2026-05-08T01:51:16Z</time></trkpt>
<trkpt lat="39.482012" lon="-8.250789">
<ele>36</ele>
<time>2026-05-08T01:51:47Z</time></trkpt>
<trkpt lat="39.482597" lon="-8.251488">
<ele>36</ele>
<time>2026-05-08T01:52:03Z</time></trkpt>
<trkpt lat="39.482752" lon="-8.251734">
<ele>36</ele>
<time>2026-05-08T01:52:08Z</time></trkpt>
<trkpt lat="39.482823" lon="-8.251921">
<ele>36</ele>
<time>2026-05-08T01:52:11Z</time></trkpt>
<trkpt lat="39.482871" lon="-8.252102">
<ele>36</ele>
<time>2026-05-08T01:52:14Z</time></trkpt>
<trkpt lat="39.483216" lon="-8.254508">
<ele>37</ele>
<time>2026-05-08T01:52:52Z</time></trkpt>
<trkpt lat="39.483319" lon="-8.254861">
<ele>37</ele>
<time>2026-05-08T01:52:57Z</time></trkpt>
<trkpt lat="39.483847" lon="-8.256158">
<ele>34</ele>
<time>2026-05-08T01:53:20Z</time></trkpt>
<trkpt lat="39.48391" lon="-8.256431">
<ele>34</ele>
<time>2026-05-08T01:53:25Z</time></trkpt>
<trkpt lat="39.48392" lon="-8.256755">
<ele>33</ele>
<time>2026-05-08T01:53:30Z</time></trkpt>
<trkpt lat="39.483888" lon="-8.258058">
<ele>32</ele>
<time>2026-05-08T01:53:50Z</time></trkpt>
<trkpt lat="39.483967" lon="-8.258564">
<ele>32</ele>
<time>2026-05-08T01:53:58Z</time></trkpt>
<trkpt lat="39.484396" lon="-8.260487">
<ele>34</ele>
<time>2026-05-08T01:54:29Z</time></trkpt>
<trkpt lat="39.484946" lon="-8.262056">
<ele>39</ele>
<time>2026-05-08T01:54:55Z</time></trkpt>
<trkpt lat="39.485423" lon="-8.264713">
<ele>39</ele>
<time>2026-05-08T01:55:37Z</time></trkpt>
<trkpt lat="39.485538" lon="-8.265023">
<ele>39</ele>
<time>2026-05-08T01:55:43Z</time></trkpt>
<trkpt lat="39.485793" lon="-8.265362">
<ele>40</ele>
<time>2026-05-08T01:55:50Z</time></trkpt>
<trkpt lat="39.486185" lon="-8.265667">
<ele>42</ele>
<time>2026-05-08T01:55:59Z</time></trkpt>
<trkpt lat="39.486529" lon="-8.265967">
<ele>45</ele>
<time>2026-05-08T01:56:08Z</time></trkpt>
<trkpt lat="39.486623" lon="-8.266081">
<ele>46</ele>
<time>2026-05-08T01:56:10Z</time></trkpt>
<trkpt lat="39.486693" lon="-8.266249">
<ele>47</ele>
<time>2026-05-08T01:56:13Z</time></trkpt>
<trkpt lat="39.486727" lon="-8.266473">
<ele>48</ele>
<time>2026-05-08T01:56:17Z</time></trkpt>
<trkpt lat="39.486695" lon="-8.266739">
<ele>48</ele>
<time>2026-05-08T01:56:21Z</time></trkpt>
<trkpt lat="39.4866" lon="-8.267064">
<ele>48</ele>
<time>2026-05-08T01:56:26Z</time></trkpt>
<trkpt lat="39.486572" lon="-8.267231">
<ele>48</ele>
<time>2026-05-08T01:56:29Z</time></trkpt>
<trkpt lat="39.48641" lon="-8.270513">
<ele>46</ele>
<time>2026-05-08T01:57:20Z</time></trkpt>
<trkpt lat="39.486564" lon="-8.272164">
<ele>51</ele>
<time>2026-05-08T01:57:45Z</time></trkpt>
<trkpt lat="39.486632" lon="-8.272373">
<ele>53</ele>
<time>2026-05-08T01:57:49Z</time></trkpt>
<trkpt lat="39.486755" lon="-8.27254">
<ele>55</ele>
<time>2026-05-08T01:57:53Z</time></trkpt>
<trkpt lat="39.486873" lon="-8.272637">
<ele>56</ele>
<time>2026-05-08T01:57:55Z</time></trkpt>
<trkpt lat="39.486963" lon="-8.272676">
<ele>57</ele>
<time>2026-05-08T01:57:57Z</time></trkpt>
<trkpt lat="39.48729" lon="-8.272696">
<ele>59</ele>
<time>2026-05-08T01:58:04Z</time></trkpt>
<trkpt lat="39.487638" lon="-8.272759">
<ele>62</ele>
<time>2026-05-08T01:58:11Z</time></trkpt>
<trkpt lat="39.487807" lon="-8.27286">
<ele>64</ele>
<time>2026-05-08T01:58:15Z</time></trkpt>
<trkpt lat="39.487932" lon="-8.273089">
<ele>69</ele>
<time>2026-05-08T01:58:19Z</time></trkpt>
<trkpt lat="39.488139" lon="-8.272908">
<ele>68</ele>
<time>2026-05-08T01:58:24Z</time></trkpt>
<trkpt lat="39.488348" lon="-8.272835">
<ele>69</ele>
<time>2026-05-08T01:58:28Z</time></trkpt>
<trkpt lat="39.489334" lon="-8.272872">
<ele>81</ele>
<time>2026-05-08T01:58:48Z</time></trkpt>
<trkpt lat="39.489943" lon="-8.272958">
<ele>86</ele>
<time>2026-05-08T01:59:00Z</time></trkpt>
<trkpt lat="39.490257" lon="-8.273151">
<ele>88</ele>
<time>2026-05-08T01:59:07Z</time></trkpt>
<trkpt lat="39.490464" lon="-8.273489">
<ele>92</ele>
<time>2026-05-08T01:59:14Z</time></trkpt>
<trkpt lat="39.490955" lon="-8.274888">
<ele>116</ele>
<time>2026-05-08T01:59:38Z</time></trkpt>
<trkpt lat="39.491234" lon="-8.275303">
<ele>123</ele>
<time>2026-05-08T01:59:46Z</time></trkpt>
<trkpt lat="39.491677" lon="-8.275732">
<ele>129</ele>
<time>2026-05-08T01:59:57Z</time></trkpt>
<trkpt lat="39.49212" lon="-8.27608">
<ele>126</ele>
<time>2026-05-08T02:00:08Z</time></trkpt>
<trkpt lat="39.493039" lon="-8.276653">
<ele>128</ele>
<time>2026-05-08T02:00:28Z</time></trkpt>
<trkpt lat="39.493361" lon="-8.277125">
<ele>132</ele>
<time>2026-05-08T02:00:38Z</time></trkpt>
<trkpt lat="39.493846" lon="-8.278211">
<ele>141</ele>
<time>2026-05-08T02:00:57Z</time></trkpt>
<trkpt lat="39.494089" lon="-8.278488">
<ele>144</ele>
<time>2026-05-08T02:01:04Z</time></trkpt>
<trkpt lat="39.497621" lon="-8.279734">
<ele>158</ele>
<time>2026-05-08T02:02:17Z</time></trkpt>
<trkpt lat="39.498467" lon="-8.280237">
<ele>163</ele>
<time>2026-05-08T02:02:36Z</time></trkpt>
<trkpt lat="39.501128" lon="-8.281975">
<ele>177</ele>
<time>2026-05-08T02:03:35Z</time></trkpt>
<trkpt lat="39.501657" lon="-8.282403">
<ele>181</ele>
<time>2026-05-08T02:03:48Z</time></trkpt>
<trkpt lat="39.503252" lon="-8.284056">
<ele>200</ele>
<time>2026-05-08T02:04:29Z</time></trkpt>
<trkpt lat="39.506392" lon="-8.287486">
<ele>225</ele>
<time>2026-05-08T02:05:51Z</time></trkpt>
<trkpt lat="39.507265" lon="-8.288407">
<ele>227</ele>
<time>2026-05-08T02:06:14Z</time></trkpt>
<trkpt lat="39.507506" lon="-8.288522">
<ele>228</ele>
<time>2026-05-08T02:06:19Z</time></trkpt>
<trkpt lat="39.507822" lon="-8.288472">
<ele>227</ele>
<time>2026-05-08T02:06:25Z</time></trkpt>
<trkpt lat="39.509045" lon="-8.287941">
<ele>224</ele>
<time>2026-05-08T02:06:51Z</time></trkpt>
<trkpt lat="39.509235" lon="-8.287961">
<ele>224</ele>
<time>2026-05-08T02:06:55Z</time></trkpt>
<trkpt lat="39.509368" lon="-8.288077">
<ele>225</ele>
<time>2026-05-08T02:06:58Z</time></trkpt>
<trkpt lat="39.509487" lon="-8.288256">
<ele>226</ele>
<time>2026-05-08T02:07:02Z</time></trkpt>
<trkpt lat="39.509722" lon="-8.28882">
<ele>225</ele>
<time>2026-05-08T02:07:12Z</time></trkpt>
<trkpt lat="39.509834" lon="-8.288958">
<ele>226</ele>
<time>2026-05-08T02:07:15Z</time></trkpt>
<trkpt lat="39.509956" lon="-8.289076">
<ele>226</ele>
<time>2026-05-08T02:07:18Z</time></trkpt>
<trkpt lat="39.510018" lon="-8.289098">
<ele>226</ele>
<time>2026-05-08T02:07:19Z</time></trkpt>
<trkpt lat="39.510326" lon="-8.289106">
<ele>225</ele>
<time>2026-05-08T02:07:25Z</time></trkpt>
<trkpt lat="39.515784" lon="-8.288541">
<ele>240</ele>
<time>2026-05-08T02:09:15Z</time></trkpt>
<trkpt lat="39.516089" lon="-8.288637">
<ele>242</ele>
<time>2026-05-08T02:09:21Z</time></trkpt>
<trkpt lat="39.516249" lon="-8.288782">
<ele>243</ele>
<time>2026-05-08T02:09:25Z</time></trkpt>
<trkpt lat="39.516466" lon="-8.289074">
<ele>244</ele>
<time>2026-05-08T02:09:31Z</time></trkpt>
<trkpt lat="39.518694" lon="-8.293337">
<ele>258</ele>
<time>2026-05-08T02:10:51Z</time></trkpt>
<trkpt lat="39.51973" lon="-8.295407">
<ele>247</ele>
<time>2026-05-08T02:11:29Z</time></trkpt>
<trkpt lat="39.5215" lon="-8.298084">
<ele>230</ele>
<time>2026-05-08T02:12:24Z</time></trkpt>
<trkpt lat="39.521921" lon="-8.298647">
<ele>226</ele>
<time>2026-05-08T02:12:36Z</time></trkpt>
<trkpt lat="39.522359" lon="-8.299018">
<ele>224</ele>
<time>2026-05-08T02:12:46Z</time></trkpt>
<trkpt lat="39.523487" lon="-8.299849">
<ele>213</ele>
<time>2026-05-08T02:13:12Z</time></trkpt>
<trkpt lat="39.52441" lon="-8.300407">
<ele>208</ele>
<time>2026-05-08T02:13:33Z</time></trkpt>
<trkpt lat="39.524655" lon="-8.30048">
<ele>206</ele>
<time>2026-05-08T02:13:38Z</time></trkpt>
<trkpt lat="39.525544" lon="-8.300499">
<ele>201</ele>
<time>2026-05-08T02:13:55Z</time></trkpt>
<trkpt lat="39.525811" lon="-8.300612">
<ele>198</ele>
<time>2026-05-08T02:14:01Z</time></trkpt>
<trkpt lat="39.526062" lon="-8.300815">
<ele>198</ele>
<time>2026-05-08T02:14:07Z</time></trkpt>
<trkpt lat="39.527053" lon="-8.301776">
<ele>200</ele>
<time>2026-05-08T02:14:32Z</time></trkpt>
<trkpt lat="39.530241" lon="-8.304946">
<ele>198</ele>
<time>2026-05-08T02:15:52Z</time></trkpt>
<trkpt lat="39.530561" lon="-8.30509">
<ele>196</ele>
<time>2026-05-08T02:15:59Z</time></trkpt>
<trkpt lat="39.532517" lon="-8.305609">
<ele>178</ele>
<time>2026-05-08T02:16:39Z</time></trkpt>
<trkpt lat="39.533187" lon="-8.305792">
<ele>174</ele>
<time>2026-05-08T02:16:53Z</time></trkpt>
<trkpt lat="39.533424" lon="-8.305781">
<ele>174</ele>
<time>2026-05-08T02:16:58Z</time></trkpt>
<trkpt lat="39.534862" lon="-8.305271">
<ele>176</ele>
<time>2026-05-08T02:17:27Z</time></trkpt>
<trkpt lat="39.535029" lon="-8.30528">
<ele>175</ele>
<time>2026-05-08T02:17:31Z</time></trkpt>
<trkpt lat="39.535168" lon="-8.305365">
<ele>174</ele>
<time>2026-05-08T02:17:34Z</time></trkpt>
<trkpt lat="39.535359" lon="-8.305646">
<ele>172</ele>
<time>2026-05-08T02:17:40Z</time></trkpt>
<trkpt lat="39.535757" lon="-8.306405">
<ele>169</ele>
<time>2026-05-08T02:17:54Z</time></trkpt>
<trkpt lat="39.536264" lon="-8.306841">
<ele>163</ele>
<time>2026-05-08T02:18:06Z</time></trkpt>
<trkpt lat="39.537255" lon="-8.307619">
<ele>157</ele>
<time>2026-05-08T02:18:29Z</time></trkpt>
<trkpt lat="39.537525" lon="-8.307781">
<ele>159</ele>
<time>2026-05-08T02:18:35Z</time></trkpt>
<trkpt lat="39.538821" lon="-8.302268">
<ele>174</ele>
<time>2026-05-08T02:20:04Z</time></trkpt>
<trkpt lat="39.538884" lon="-8.301768">
<ele>176</ele>
<time>2026-05-08T02:20:12Z</time></trkpt>
<trkpt lat="39.538863" lon="-8.301316">
<ele>176</ele>
<time>2026-05-08T02:20:19Z</time></trkpt>
<trkpt lat="39.538681" lon="-8.299582">
<ele>181</ele>
<time>2026-05-08T02:20:46Z</time></trkpt>
<trkpt lat="39.538668" lon="-8.299193">
<ele>182</ele>
<time>2026-05-08T02:20:52Z</time></trkpt>
<trkpt lat="39.538762" lon="-8.298359">
<ele>186</ele>
<time>2026-05-08T02:21:05Z</time></trkpt>
<trkpt lat="39.539091" lon="-8.29597">
<ele>205</ele>
<time>2026-05-08T02:21:43Z</time></trkpt>
<trkpt lat="39.539149" lon="-8.295362">
<ele>208</ele>
<time>2026-05-08T02:21:52Z</time></trkpt>
<trkpt lat="39.539194" lon="-8.294813">
<ele>210</ele>
<time>2026-05-08T02:22:01Z</time></trkpt>
<trkpt lat="39.539088" lon="-8.294257">
<ele>213</ele>
<time>2026-05-08T02:22:10Z</time></trkpt>
<trkpt lat="39.538902" lon="-8.293935">
<ele>214</ele>
<time>2026-05-08T02:22:16Z</time></trkpt>
<trkpt lat="39.537046" lon="-8.291838">
<ele>224</ele>
<time>2026-05-08T02:23:05Z</time></trkpt>
<trkpt lat="39.536802" lon="-8.291534">
<ele>226</ele>
<time>2026-05-08T02:23:12Z</time></trkpt>
<trkpt lat="39.536492" lon="-8.290943">
<ele>229</ele>
<time>2026-05-08T02:23:23Z</time></trkpt>
<trkpt lat="39.536374" lon="-8.290553">
<ele>229</ele>
<time>2026-05-08T02:23:29Z</time></trkpt>
<trkpt lat="39.536329" lon="-8.290329">
<ele>229</ele>
<time>2026-05-08T02:23:33Z</time></trkpt>
<trkpt lat="39.536318" lon="-8.290219">
<ele>229</ele>
<time>2026-05-08T02:23:35Z</time></trkpt>
<trkpt lat="39.536327" lon="-8.289266">
<ele>231</ele>
<time>2026-05-08T02:23:49Z</time></trkpt>
<trkpt lat="39.536355" lon="-8.288691">
<ele>234</ele>
<time>2026-05-08T02:23:58Z</time></trkpt>
<trkpt lat="39.536672" lon="-8.287064">
<ele>238</ele>
<time>2026-05-08T02:24:24Z</time></trkpt>
<trkpt lat="39.536789" lon="-8.286535">
<ele>238</ele>
<time>2026-05-08T02:24:33Z</time></trkpt>
<trkpt lat="39.536833" lon="-8.286169">
<ele>238</ele>
<time>2026-05-08T02:24:39Z</time></trkpt>
<trkpt lat="39.536808" lon="-8.285779">
<ele>238</ele>
<time>2026-05-08T02:24:45Z</time></trkpt>
<trkpt lat="39.536603" lon="-8.284842">
<ele>236</ele>
<time>2026-05-08T02:25:00Z</time></trkpt>
<trkpt lat="39.536569" lon="-8.284436">
<ele>234</ele>
<time>2026-05-08T02:25:06Z</time></trkpt>
<trkpt lat="39.536645" lon="-8.283826">
<ele>233</ele>
<time>2026-05-08T02:25:15Z</time></trkpt>
<trkpt lat="39.536697" lon="-8.28353">
<ele>232</ele>
<time>2026-05-08T02:25:20Z</time></trkpt>
<trkpt lat="39.536749" lon="-8.283209">
<ele>232</ele>
<time>2026-05-08T02:25:25Z</time></trkpt>
<trkpt lat="39.537072" lon="-8.278564">
<ele>238</ele>
<time>2026-05-08T02:26:37Z</time></trkpt>
<trkpt lat="39.53701" lon="-8.278138">
<ele>238</ele>
<time>2026-05-08T02:26:44Z</time></trkpt>
<trkpt lat="39.536858" lon="-8.277731">
<ele>238</ele>
<time>2026-05-08T02:26:51Z</time></trkpt>
<trkpt lat="39.53594" lon="-8.276416">
<ele>240</ele>
<time>2026-05-08T02:27:18Z</time></trkpt>
<trkpt lat="39.535732" lon="-8.276098">
<ele>238</ele>
<time>2026-05-08T02:27:25Z</time></trkpt>
<trkpt lat="39.535564" lon="-8.275781">
<ele>234</ele>
<time>2026-05-08T02:27:31Z</time></trkpt>
<trkpt lat="39.535431" lon="-8.275391">
<ele>231</ele>
<time>2026-05-08T02:27:37Z</time></trkpt>
<trkpt lat="39.535313" lon="-8.274695">
<ele>227</ele>
<time>2026-05-08T02:27:48Z</time></trkpt>
<trkpt lat="39.53513" lon="-8.273404">
<ele>226</ele>
<time>2026-05-08T02:28:09Z</time></trkpt>
<trkpt lat="39.535024" lon="-8.272515">
<ele>225</ele>
<time>2026-05-08T02:28:23Z</time></trkpt>
<trkpt lat="39.534873" lon="-8.271916">
<ele>224</ele>
<time>2026-05-08T02:28:32Z</time></trkpt>
<trkpt lat="39.53446" lon="-8.270556">
<ele>226</ele>
<time>2026-05-08T02:28:55Z</time></trkpt>
<trkpt lat="39.534389" lon="-8.270122">
<ele>228</ele>
<time>2026-05-08T02:29:02Z</time></trkpt>
<trkpt lat="39.534382" lon="-8.269768">
<ele>231</ele>
<time>2026-05-08T02:29:07Z</time></trkpt>
<trkpt lat="39.534451" lon="-8.269342">
<ele>234</ele>
<time>2026-05-08T02:29:14Z</time></trkpt>
<trkpt lat="39.534485" lon="-8.268871">
<ele>236</ele>
<time>2026-05-08T02:29:21Z</time></trkpt>
<trkpt lat="39.534491" lon="-8.268579">
<ele>236</ele>
<time>2026-05-08T02:29:26Z</time></trkpt>
<trkpt lat="39.534237" lon="-8.266981">
<ele>226</ele>
<time>2026-05-08T02:29:51Z</time></trkpt>
<trkpt lat="39.534187" lon="-8.266382">
<ele>223</ele>
<time>2026-05-08T02:30:00Z</time></trkpt>
<trkpt lat="39.534227" lon="-8.265635">
<ele>221</ele>
<time>2026-05-08T02:30:12Z</time></trkpt>
<trkpt lat="39.534429" lon="-8.264701">
<ele>216</ele>
<time>2026-05-08T02:30:27Z</time></trkpt>
<trkpt lat="39.534699" lon="-8.264226">
<ele>216</ele>
<time>2026-05-08T02:30:36Z</time></trkpt>
<trkpt lat="39.534823" lon="-8.264097">
<ele>217</ele>
<time>2026-05-08T02:30:39Z</time></trkpt>
<trkpt lat="39.53508" lon="-8.263905">
<ele>220</ele>
<time>2026-05-08T02:30:45Z</time></trkpt>
<trkpt lat="39.536789" lon="-8.263382">
<ele>232</ele>
<time>2026-05-08T02:31:20Z</time></trkpt>
<trkpt lat="39.53706" lon="-8.263258">
<ele>231</ele>
<time>2026-05-08T02:31:26Z</time></trkpt>
<trkpt lat="39.537323" lon="-8.262987">
<ele>231</ele>
<time>2026-05-08T02:31:33Z</time></trkpt>
<trkpt lat="39.537497" lon="-8.262585">
<ele>231</ele>
<time>2026-05-08T02:31:40Z</time></trkpt>
<trkpt lat="39.537825" lon="-8.261567">
<ele>227</ele>
<time>2026-05-08T02:31:57Z</time></trkpt>
<trkpt lat="39.537914" lon="-8.261073">
<ele>225</ele>
<time>2026-05-08T02:32:05Z</time></trkpt>
<trkpt lat="39.537952" lon="-8.260029">
<ele>228</ele>
<time>2026-05-08T02:32:21Z</time></trkpt>
<trkpt lat="39.537993" lon="-8.259647">
<ele>229</ele>
<time>2026-05-08T02:32:27Z</time></trkpt>
<trkpt lat="39.538492" lon="-8.257611">
<ele>233</ele>
<time>2026-05-08T02:33:00Z</time></trkpt>
<trkpt lat="39.538664" lon="-8.257238">
<ele>231</ele>
<time>2026-05-08T02:33:07Z</time></trkpt>
<trkpt lat="39.538874" lon="-8.257029">
<ele>230</ele>
<time>2026-05-08T02:33:12Z</time></trkpt>
<trkpt lat="39.539857" lon="-8.256428">
<ele>232</ele>
<time>2026-05-08T02:33:34Z</time></trkpt>
<trkpt lat="39.54004" lon="-8.256224">
<ele>232</ele>
<time>2026-05-08T02:33:39Z</time></trkpt>
<trkpt lat="39.540151" lon="-8.256025">
<ele>232</ele>
<time>2026-05-08T02:33:42Z</time></trkpt>
<trkpt lat="39.540294" lon="-8.255635">
<ele>231</ele>
<time>2026-05-08T02:33:49Z</time></trkpt>
<trkpt lat="39.540339" lon="-8.255154">
<ele>229</ele>
<time>2026-05-08T02:33:57Z</time></trkpt>
<trkpt lat="39.540168" lon="-8.253405">
<ele>232</ele>
<time>2026-05-08T02:34:24Z</time></trkpt>
<trkpt lat="39.540206" lon="-8.252914">
<ele>234</ele>
<time>2026-05-08T02:34:31Z</time></trkpt>
<trkpt lat="39.540336" lon="-8.252524">
<ele>236</ele>
<time>2026-05-08T02:34:38Z</time></trkpt>
<trkpt lat="39.540536" lon="-8.252201">
<ele>237</ele>
<time>2026-05-08T02:34:44Z</time></trkpt>
<trkpt lat="39.540623" lon="-8.252114">
<ele>238</ele>
<time>2026-05-08T02:34:47Z</time></trkpt>
<trkpt lat="39.541996" lon="-8.251381">
<ele>241</ele>
<time>2026-05-08T02:35:16Z</time></trkpt>
<trkpt lat="39.542403" lon="-8.251111">
<ele>243</ele>
<time>2026-05-08T02:35:25Z</time></trkpt>
<trkpt lat="39.542827" lon="-8.250706">
<ele>243</ele>
<time>2026-05-08T02:35:36Z</time></trkpt>
<trkpt lat="39.543126" lon="-8.250514">
<ele>241</ele>
<time>2026-05-08T02:35:43Z</time></trkpt>
<trkpt lat="39.543455" lon="-8.250414">
<ele>240</ele>
<time>2026-05-08T02:35:49Z</time></trkpt>
<trkpt lat="39.544593" lon="-8.250268">
<ele>243</ele>
<time>2026-05-08T02:36:12Z</time></trkpt>
<trkpt lat="39.544914" lon="-8.250187">
<ele>244</ele>
<time>2026-05-08T02:36:19Z</time></trkpt>
<trkpt lat="39.545617" lon="-8.249841">
<ele>246</ele>
<time>2026-05-08T02:36:34Z</time></trkpt>
<trkpt lat="39.545887" lon="-8.249647">
<ele>246</ele>
<time>2026-05-08T02:36:40Z</time></trkpt>
<trkpt lat="39.546144" lon="-8.249317">
<ele>245</ele>
<time>2026-05-08T02:36:47Z</time></trkpt>
<trkpt lat="39.546201" lon="-8.24919">
<ele>245</ele>
<time>2026-05-08T02:36:50Z</time></trkpt>
<trkpt lat="39.546284" lon="-8.248918">
<ele>245</ele>
<time>2026-05-08T02:36:54Z</time></trkpt>
<trkpt lat="39.546463" lon="-8.248073">
<ele>248</ele>
<time>2026-05-08T02:37:08Z</time></trkpt>
<trkpt lat="39.547055" lon="-8.246875">
<ele>253</ele>
<time>2026-05-08T02:37:30Z</time></trkpt>
<trkpt lat="39.547209" lon="-8.245915">
<ele>254</ele>
<time>2026-05-08T02:37:45Z</time></trkpt>
<trkpt lat="39.547222" lon="-8.245748">
<ele>254</ele>
<time>2026-05-08T02:37:47Z</time></trkpt>
<trkpt lat="39.547363" lon="-8.24467">
<ele>250</ele>
<time>2026-05-08T02:38:04Z</time></trkpt>
<trkpt lat="39.547471" lon="-8.244257">
<ele>251</ele>
<time>2026-05-08T02:38:11Z</time></trkpt>
<trkpt lat="39.547609" lon="-8.243928">
<ele>251</ele>
<time>2026-05-08T02:38:17Z</time></trkpt>
<trkpt lat="39.547841" lon="-8.243579">
<ele>251</ele>
<time>2026-05-08T02:38:24Z</time></trkpt>
<trkpt lat="39.548089" lon="-8.243328">
<ele>251</ele>
<time>2026-05-08T02:38:30Z</time></trkpt>
<trkpt lat="39.548345" lon="-8.243138">
<ele>251</ele>
<time>2026-05-08T02:38:36Z</time></trkpt>
<trkpt lat="39.549635" lon="-8.242422">
<ele>249</ele>
<time>2026-05-08T02:39:04Z</time></trkpt>
<trkpt lat="39.54991" lon="-8.242203">
<ele>250</ele>
<time>2026-05-08T02:39:11Z</time></trkpt>
<trkpt lat="39.550015" lon="-8.242108">
<ele>250</ele>
<time>2026-05-08T02:39:13Z</time></trkpt>
<trkpt lat="39.550303" lon="-8.241751">
<ele>252</ele>
<time>2026-05-08T02:39:21Z</time></trkpt>
<trkpt lat="39.550548" lon="-8.241213">
<ele>254</ele>
<time>2026-05-08T02:39:31Z</time></trkpt>
<trkpt lat="39.551105" lon="-8.239726">
<ele>257</ele>
<time>2026-05-08T02:39:57Z</time></trkpt>
<trkpt lat="39.551191" lon="-8.239237">
<ele>257</ele>
<time>2026-05-08T02:40:04Z</time></trkpt>
<trkpt lat="39.551141" lon="-8.238733">
<ele>256</ele>
<time>2026-05-08T02:40:12Z</time></trkpt>
<trkpt lat="39.551085" lon="-8.23861">
<ele>256</ele>
<time>2026-05-08T02:40:14Z</time></trkpt>
<trkpt lat="39.550244" lon="-8.237354">
<ele>257</ele>
<time>2026-05-08T02:40:40Z</time></trkpt>
<trkpt lat="39.550032" lon="-8.236901">
<ele>257</ele>
<time>2026-05-08T02:40:48Z</time></trkpt>
<trkpt lat="39.549936" lon="-8.236384">
<ele>256</ele>
<time>2026-05-08T02:40:56Z</time></trkpt>
<trkpt lat="39.549969" lon="-8.236073">
<ele>255</ele>
<time>2026-05-08T02:41:01Z</time></trkpt>
<trkpt lat="39.550041" lon="-8.235796">
<ele>254</ele>
<time>2026-05-08T02:41:06Z</time></trkpt>
<trkpt lat="39.550231" lon="-8.235407">
<ele>255</ele>
<time>2026-05-08T02:41:13Z</time></trkpt>
<trkpt lat="39.550386" lon="-8.235224">
<ele>255</ele>
<time>2026-05-08T02:41:17Z</time></trkpt>
<trkpt lat="39.551396" lon="-8.234454">
<ele>256</ele>
<time>2026-05-08T02:41:41Z</time></trkpt>
<trkpt lat="39.551662" lon="-8.234162">
<ele>257</ele>
<time>2026-05-08T02:41:48Z</time></trkpt>
<trkpt lat="39.55194" lon="-8.233814">
<ele>258</ele>
<time>2026-05-08T02:41:55Z</time></trkpt>
<trkpt lat="39.552013" lon="-8.23369">
<ele>258</ele>
<time>2026-05-08T02:41:58Z</time></trkpt>
<trkpt lat="39.552082" lon="-8.233602">
<ele>258</ele>
<time>2026-05-08T02:42:00Z</time></trkpt>
<trkpt lat="39.552238" lon="-8.233378">
<ele>258</ele>
<time>2026-05-08T02:42:04Z</time></trkpt>
<trkpt lat="39.552512" lon="-8.232895">
<ele>258</ele>
<time>2026-05-08T02:42:14Z</time></trkpt>
<trkpt lat="39.552649" lon="-8.232505">
<ele>258</ele>
<time>2026-05-08T02:42:20Z</time></trkpt>
<trkpt lat="39.552758" lon="-8.231458">
<ele>261</ele>
<time>2026-05-08T02:42:37Z</time></trkpt>
<trkpt lat="39.552801" lon="-8.231239">
<ele>261</ele>
<time>2026-05-08T02:42:40Z</time></trkpt>
<trkpt lat="39.55315" lon="-8.229921">
<ele>259</ele>
<time>2026-05-08T02:43:02Z</time></trkpt>
<trkpt lat="39.553286" lon="-8.229492">
<ele>257</ele>
<time>2026-05-08T02:43:09Z</time></trkpt>
<trkpt lat="39.553449" lon="-8.228961">
<ele>256</ele>
<time>2026-05-08T02:43:18Z</time></trkpt>
<trkpt lat="39.553682" lon="-8.228538">
<ele>258</ele>
<time>2026-05-08T02:43:26Z</time></trkpt>
<trkpt lat="39.555217" lon="-8.226508">
<ele>262</ele>
<time>2026-05-08T02:44:10Z</time></trkpt>
<trkpt lat="39.555466" lon="-8.226105">
<ele>264</ele>
<time>2026-05-08T02:44:18Z</time></trkpt>
<trkpt lat="39.556025" lon="-8.224788">
<ele>269</ele>
<time>2026-05-08T02:44:41Z</time></trkpt>
<trkpt lat="39.556273" lon="-8.224448">
<ele>270</ele>
<time>2026-05-08T02:44:48Z</time></trkpt>
<trkpt lat="39.558278" lon="-8.222867">
<ele>274</ele>
<time>2026-05-08T02:45:35Z</time></trkpt>
<trkpt lat="39.558589" lon="-8.222499">
<ele>273</ele>
<time>2026-05-08T02:45:43Z</time></trkpt>
<trkpt lat="39.55889" lon="-8.221893">
<ele>271</ele>
<time>2026-05-08T02:45:55Z</time></trkpt>
<trkpt lat="39.559307" lon="-8.220895">
<ele>270</ele>
<time>2026-05-08T02:46:12Z</time></trkpt>
<trkpt lat="39.559496" lon="-8.220537">
<ele>271</ele>
<time>2026-05-08T02:46:19Z</time></trkpt>
<trkpt lat="39.560357" lon="-8.21964">
<ele>269</ele>
<time>2026-05-08T02:46:41Z</time></trkpt>
<trkpt lat="39.560624" lon="-8.219247">
<ele>269</ele>
<time>2026-05-08T02:46:49Z</time></trkpt>
<trkpt lat="39.560785" lon="-8.218845">
<ele>271</ele>
<time>2026-05-08T02:46:56Z</time></trkpt>
<trkpt lat="39.560876" lon="-8.218502">
<ele>273</ele>
<time>2026-05-08T02:47:02Z</time></trkpt>
<trkpt lat="39.561011" lon="-8.216294">
<ele>275</ele>
<time>2026-05-08T02:47:36Z</time></trkpt>
<trkpt lat="39.561863" lon="-8.211113">
<ele>272</ele>
<time>2026-05-08T02:48:58Z</time></trkpt>
<trkpt lat="39.561914" lon="-8.21047">
<ele>272</ele>
<time>2026-05-08T02:49:08Z</time></trkpt>
<trkpt lat="39.561793" lon="-8.209613">
<ele>271</ele>
<time>2026-05-08T02:49:21Z</time></trkpt>
<trkpt lat="39.561501" lon="-8.2078">
<ele>269</ele>
<time>2026-05-08T02:49:50Z</time></trkpt>
<trkpt lat="39.561325" lon="-8.206663">
<ele>269</ele>
<time>2026-05-08T02:50:08Z</time></trkpt>
<trkpt lat="39.561155" lon="-8.205981">
<ele>270</ele>
<time>2026-05-08T02:50:19Z</time></trkpt>
<trkpt lat="39.561236" lon="-8.205893">
<ele>270</ele>
<time>2026-05-08T02:50:21Z</time></trkpt>
<trkpt lat="39.561491" lon="-8.205796">
<ele>269</ele>
<time>2026-05-08T02:50:26Z</time></trkpt>
<trkpt lat="39.561985" lon="-8.205064">
<ele>272</ele>
<time>2026-05-08T02:50:41Z</time></trkpt>
<trkpt lat="39.563432" lon="-8.203003">
<ele>273</ele>
<time>2026-05-08T02:51:24Z</time></trkpt>
<trkpt lat="39.563632" lon="-8.202713">
<ele>272</ele>
<time>2026-05-08T02:51:30Z</time></trkpt>
<trkpt lat="39.56432" lon="-8.201236">
<ele>275</ele>
<time>2026-05-08T02:51:57Z</time></trkpt>
<trkpt lat="39.56465" lon="-8.200597">
<ele>278</ele>
<time>2026-05-08T02:52:09Z</time></trkpt>
<trkpt lat="39.564891" lon="-8.200287">
<ele>280</ele>
<time>2026-05-08T02:52:16Z</time></trkpt>
<trkpt lat="39.565897" lon="-8.199348">
<ele>286</ele>
<time>2026-05-08T02:52:40Z</time></trkpt>
<trkpt lat="39.566343" lon="-8.198664">
<ele>289</ele>
<time>2026-05-08T02:52:54Z</time></trkpt>
<trkpt lat="39.566704" lon="-8.197938">
<ele>291</ele>
<time>2026-05-08T02:53:08Z</time></trkpt>
<trkpt lat="39.566876" lon="-8.197192">
<ele>292</ele>
<time>2026-05-08T02:53:20Z</time></trkpt>
<trkpt lat="39.566924" lon="-8.196711">
<ele>291</ele>
<time>2026-05-08T02:53:27Z</time></trkpt>
<trkpt lat="39.567052" lon="-8.196159">
<ele>290</ele>
<time>2026-05-08T02:53:36Z</time></trkpt>
<trkpt lat="39.566886" lon="-8.195729">
<ele>290</ele>
<time>2026-05-08T02:53:43Z</time></trkpt>
<trkpt lat="39.566613" lon="-8.195286">
<ele>290</ele>
<time>2026-05-08T02:53:52Z</time></trkpt>
<trkpt lat="39.566432" lon="-8.194905">
<ele>289</ele>
<time>2026-05-08T02:53:59Z</time></trkpt>
<trkpt lat="39.566328" lon="-8.194075">
<ele>286</ele>
<time>2026-05-08T02:54:12Z</time></trkpt>
<trkpt lat="39.565849" lon="-8.192926">
<ele>283</ele>
<time>2026-05-08T02:54:32Z</time></trkpt>
<trkpt lat="39.566026" lon="-8.192943">
<ele>282</ele>
<time>2026-05-08T02:54:36Z</time></trkpt>
<trkpt lat="39.566209" lon="-8.192891">
<ele>281</ele>
<time>2026-05-08T02:54:40Z</time></trkpt>
<trkpt lat="39.566316" lon="-8.192793">
<ele>281</ele>
<time>2026-05-08T02:54:42Z</time></trkpt>
<trkpt lat="39.566742" lon="-8.192102">
<ele>279</ele>
<time>2026-05-08T02:54:56Z</time></trkpt>
<trkpt lat="39.566918" lon="-8.191913">
<ele>278</ele>
<time>2026-05-08T02:55:01Z</time></trkpt>
<trkpt lat="39.568059" lon="-8.191663">
<ele>276</ele>
<time>2026-05-08T02:55:24Z</time></trkpt>
<trkpt lat="39.568695" lon="-8.191428">
<ele>272</ele>
<time>2026-05-08T02:55:37Z</time></trkpt>
<trkpt lat="39.569122" lon="-8.1912">
<ele>268</ele>
<time>2026-05-08T02:55:46Z</time></trkpt>
<trkpt lat="39.569887" lon="-8.190747">
<ele>268</ele>
<time>2026-05-08T02:56:03Z</time></trkpt>
<trkpt lat="39.570478" lon="-8.190373">
<ele>267</ele>
<time>2026-05-08T02:56:16Z</time></trkpt>
<trkpt lat="39.571062" lon="-8.190277">
<ele>266</ele>
<time>2026-05-08T02:56:28Z</time></trkpt>
<trkpt lat="39.571276" lon="-8.190195">
<ele>265</ele>
<time>2026-05-08T02:56:32Z</time></trkpt>
<trkpt lat="39.571936" lon="-8.189704">
<ele>264</ele>
<time>2026-05-08T02:56:48Z</time></trkpt>
<trkpt lat="39.572373" lon="-8.189408">
<ele>265</ele>
<time>2026-05-08T02:56:58Z</time></trkpt>
<trkpt lat="39.573251" lon="-8.188951">
<ele>265</ele>
<time>2026-05-08T02:57:17Z</time></trkpt>
<trkpt lat="39.573742" lon="-8.188547">
<ele>263</ele>
<time>2026-05-08T02:57:28Z</time></trkpt>
<trkpt lat="39.574009" lon="-8.188448">
<ele>263</ele>
<time>2026-05-08T02:57:34Z</time></trkpt>
<trkpt lat="39.575126" lon="-8.188143">
<ele>260</ele>
<time>2026-05-08T02:57:57Z</time></trkpt>
<trkpt lat="39.578058" lon="-8.187286">
<ele>261</ele>
<time>2026-05-08T02:58:57Z</time></trkpt>
<trkpt lat="39.578721" lon="-8.187117">
<ele>266</ele>
<time>2026-05-08T02:59:10Z</time></trkpt>
<trkpt lat="39.578908" lon="-8.187013">
<ele>267</ele>
<time>2026-05-08T02:59:14Z</time></trkpt>
<trkpt lat="39.579911" lon="-8.186044">
<ele>273</ele>
<time>2026-05-08T02:59:40Z</time></trkpt>
<trkpt lat="39.580443" lon="-8.185828">
<ele>274</ele>
<time>2026-05-08T02:59:51Z</time></trkpt>
<trkpt lat="39.582423" lon="-8.185121">
<ele>281</ele>
<time>2026-05-08T03:00:32Z</time></trkpt>
<trkpt lat="39.583" lon="-8.184944">
<ele>281</ele>
<time>2026-05-08T03:00:44Z</time></trkpt>
<trkpt lat="39.583171" lon="-8.184842">
<ele>280</ele>
<time>2026-05-08T03:00:48Z</time></trkpt>
<trkpt lat="39.58332" lon="-8.184693">
<ele>280</ele>
<time>2026-05-08T03:00:51Z</time></trkpt>
<trkpt lat="39.583662" lon="-8.184137">
<ele>278</ele>
<time>2026-05-08T03:01:02Z</time></trkpt>
<trkpt lat="39.586096" lon="-8.180423">
<ele>280</ele>
<time>2026-05-08T03:02:18Z</time></trkpt>
<trkpt lat="39.586348" lon="-8.180181">
<ele>282</ele>
<time>2026-05-08T03:02:24Z</time></trkpt>
<trkpt lat="39.588101" lon="-8.179468">
<ele>289</ele>
<time>2026-05-08T03:03:01Z</time></trkpt>
<trkpt lat="39.588388" lon="-8.179297">
<ele>288</ele>
<time>2026-05-08T03:03:07Z</time></trkpt>
<trkpt lat="39.589241" lon="-8.178494">
<ele>289</ele>
<time>2026-05-08T03:03:28Z</time></trkpt>
<trkpt lat="39.589328" lon="-8.178315">
<ele>290</ele>
<time>2026-05-08T03:03:31Z</time></trkpt>
<trkpt lat="39.59064" lon="-8.174537">
<ele>298</ele>
<time>2026-05-08T03:04:35Z</time></trkpt>
<trkpt lat="39.590807" lon="-8.174147">
<ele>299</ele>
<time>2026-05-08T03:04:42Z</time></trkpt>
<trkpt lat="39.590953" lon="-8.173999">
<ele>301</ele>
<time>2026-05-08T03:04:46Z</time></trkpt>
<trkpt lat="39.591568" lon="-8.173636">
<ele>306</ele>
<time>2026-05-08T03:04:59Z</time></trkpt>
<trkpt lat="39.591723" lon="-8.173497">
<ele>308</ele>
<time>2026-05-08T03:05:03Z</time></trkpt>
<trkpt lat="39.59199" lon="-8.17299">
<ele>311</ele>
<time>2026-05-08T03:05:13Z</time></trkpt>
<trkpt lat="39.592355" lon="-8.172391">
<ele>312</ele>
<time>2026-05-08T03:05:25Z</time></trkpt>
<trkpt lat="39.592587" lon="-8.172149">
<ele>311</ele>
<time>2026-05-08T03:05:31Z</time></trkpt>
<trkpt lat="39.592703" lon="-8.172105">
<ele>310</ele>
<time>2026-05-08T03:05:33Z</time></trkpt>
<trkpt lat="39.593764" lon="-8.172039">
<ele>308</ele>
<time>2026-05-08T03:05:54Z</time></trkpt>
<trkpt lat="39.595891" lon="-8.172177">
<ele>306</ele>
<time>2026-05-08T03:06:37Z</time></trkpt>
<trkpt lat="39.596315" lon="-8.172202">
<ele>308</ele>
<time>2026-05-08T03:06:45Z</time></trkpt>
<trkpt lat="39.59698" lon="-8.172139">
<ele>308</ele>
<time>2026-05-08T03:06:59Z</time></trkpt>
<trkpt lat="39.597162" lon="-8.172074">
<ele>307</ele>
<time>2026-05-08T03:07:03Z</time></trkpt>
<trkpt lat="39.597284" lon="-8.172009">
<ele>307</ele>
<time>2026-05-08T03:07:05Z</time></trkpt>
<trkpt lat="39.597722" lon="-8.171875">
<ele>304</ele>
<time>2026-05-08T03:07:14Z</time></trkpt>
<trkpt lat="39.597975" lon="-8.171746">
<ele>302</ele>
<time>2026-05-08T03:07:20Z</time></trkpt>
<trkpt lat="39.5982099" lon="-8.1717693">
<ele>300</ele>
<time>2026-05-08T03:07:24Z</time></trkpt>
<trkpt lat="39.598412" lon="-8.17177">
<ele>299</ele>
<time>2026-05-08T03:07:28Z</time></trkpt>
<trkpt lat="39.598577" lon="-8.171757">
<ele>299</ele>
<time>2026-05-08T03:07:32Z</time></trkpt>
<trkpt lat="39.598742" lon="-8.171685">
<ele>299</ele>
<time>2026-05-08T03:07:35Z</time></trkpt>
<trkpt lat="39.598828" lon="-8.171861">
<ele>298</ele>
<time>2026-05-08T03:07:38Z</time></trkpt>
<trkpt lat="39.598964" lon="-8.17204">
<ele>298</ele>
<time>2026-05-08T03:07:42Z</time></trkpt>
<trkpt lat="39.59923" lon="-8.172268">
<ele>298</ele>
<time>2026-05-08T03:07:49Z</time></trkpt>
<trkpt lat="39.599872" lon="-8.172736">
<ele>301</ele>
<time>2026-05-08T03:08:03Z</time></trkpt>
<trkpt lat="39.60027" lon="-8.17299">
<ele>303</ele>
<time>2026-05-08T03:08:12Z</time></trkpt>
<trkpt lat="39.600563" lon="-8.173062">
<ele>303</ele>
<time>2026-05-08T03:08:18Z</time></trkpt>
<trkpt lat="39.601504" lon="-8.173201">
<ele>302</ele>
<time>2026-05-08T03:08:37Z</time></trkpt>
<trkpt lat="39.601859" lon="-8.17334">
<ele>303</ele>
<time>2026-05-08T03:08:45Z</time></trkpt>
<trkpt lat="39.602351" lon="-8.173556">
<ele>303</ele>
<time>2026-05-08T03:08:55Z</time></trkpt>
<trkpt lat="39.603227" lon="-8.174054">
<ele>305</ele>
<time>2026-05-08T03:09:14Z</time></trkpt>
<trkpt lat="39.604193" lon="-8.174806">
<ele>307</ele>
<time>2026-05-08T03:09:37Z</time></trkpt>
<trkpt lat="39.604557" lon="-8.175187">
<ele>306</ele>
<time>2026-05-08T03:09:46Z</time></trkpt>
<trkpt lat="39.605185" lon="-8.175766">
<ele>302</ele>
<time>2026-05-08T03:10:02Z</time></trkpt>
<trkpt lat="39.606063" lon="-8.176349">
<ele>298</ele>
<time>2026-05-08T03:10:21Z</time></trkpt>
<trkpt lat="39.606398" lon="-8.176423">
<ele>298</ele>
<time>2026-05-08T03:10:28Z</time></trkpt>
<trkpt lat="39.607311" lon="-8.176574">
<ele>300</ele>
<time>2026-05-08T03:10:47Z</time></trkpt>
<trkpt lat="39.607551" lon="-8.176572">
<ele>300</ele>
<time>2026-05-08T03:10:51Z</time></trkpt>
<trkpt lat="39.608061" lon="-8.176442">
<ele>301</ele>
<time>2026-05-08T03:11:02Z</time></trkpt>
<trkpt lat="39.608362" lon="-8.176038">
<ele>301</ele>
<time>2026-05-08T03:11:11Z</time></trkpt>
<trkpt lat="39.608881" lon="-8.17564">
<ele>300</ele>
<time>2026-05-08T03:11:23Z</time></trkpt>
<trkpt lat="39.609732" lon="-8.175232">
<ele>295</ele>
<time>2026-05-08T03:11:41Z</time></trkpt>
<trkpt lat="39.612384" lon="-8.173391">
<ele>292</ele>
<time>2026-05-08T03:12:41Z</time></trkpt>
<trkpt lat="39.613388" lon="-8.172616">
<ele>289</ele>
<time>2026-05-08T03:13:05Z</time></trkpt>
<trkpt lat="39.613615" lon="-8.172419">
<ele>289</ele>
<time>2026-05-08T03:13:10Z</time></trkpt>
<trkpt lat="39.613914" lon="-8.172247">
<ele>289</ele>
<time>2026-05-08T03:13:17Z</time></trkpt>
<trkpt lat="39.614944" lon="-8.172093">
<ele>297</ele>
<time>2026-05-08T03:13:37Z</time></trkpt>
<trkpt lat="39.615258" lon="-8.172127">
<ele>297</ele>
<time>2026-05-08T03:13:44Z</time></trkpt>
<trkpt lat="39.616102" lon="-8.172609">
<ele>293</ele>
<time>2026-05-08T03:14:02Z</time></trkpt>
<trkpt lat="39.616621" lon="-8.172929">
<ele>284</ele>
<time>2026-05-08T03:14:14Z</time></trkpt>
<trkpt lat="39.616891" lon="-8.173127">
<ele>278</ele>
<time>2026-05-08T03:14:20Z</time></trkpt>
<trkpt lat="39.617175" lon="-8.173429">
<ele>272</ele>
<time>2026-05-08T03:14:27Z</time></trkpt>
<trkpt lat="39.617295" lon="-8.173688">
<ele>270</ele>
<time>2026-05-08T03:14:32Z</time></trkpt>
<trkpt lat="39.617335" lon="-8.173968">
<ele>270</ele>
<time>2026-05-08T03:14:36Z</time></trkpt>
<trkpt lat="39.617346" lon="-8.174433">
<ele>269</ele>
<time>2026-05-08T03:14:43Z</time></trkpt>
<trkpt lat="39.617424" lon="-8.17468">
<ele>269</ele>
<time>2026-05-08T03:14:48Z</time></trkpt>
<trkpt lat="39.617594" lon="-8.175081">
<ele>266</ele>
<time>2026-05-08T03:14:55Z</time></trkpt>
<trkpt lat="39.617804" lon="-8.176167">
<ele>257</ele>
<time>2026-05-08T03:15:12Z</time></trkpt>
<trkpt lat="39.618" lon="-8.176588">
<ele>251</ele>
<time>2026-05-08T03:15:19Z</time></trkpt>
<trkpt lat="39.618448" lon="-8.177179">
<ele>243</ele>
<time>2026-05-08T03:15:32Z</time></trkpt>
<trkpt lat="39.618548" lon="-8.177288">
<ele>242</ele>
<time>2026-05-08T03:15:35Z</time></trkpt>
<trkpt lat="39.618497" lon="-8.177144">
<ele>243</ele>
<time>2026-05-08T03:15:37Z</time></trkpt>
<trkpt lat="39.618313" lon="-8.176756">
<ele>246</ele>
<time>2026-05-08T03:15:44Z</time></trkpt>
<trkpt lat="39.61824" lon="-8.176568">
<ele>247</ele>
<time>2026-05-08T03:15:48Z</time></trkpt>
<trkpt lat="39.618215" lon="-8.176379">
<ele>248</ele>
<time>2026-05-08T03:15:51Z</time></trkpt>
<trkpt lat="39.618208" lon="-8.175892">
<ele>248</ele>
<time>2026-05-08T03:15:58Z</time></trkpt>
<trkpt lat="39.618235" lon="-8.175328">
<ele>247</ele>
<time>2026-05-08T03:16:07Z</time></trkpt>
<trkpt lat="39.618214" lon="-8.175078">
<ele>248</ele>
<time>2026-05-08T03:16:11Z</time></trkpt>
<trkpt lat="39.618067" lon="-8.174436">
<ele>253</ele>
<time>2026-05-08T03:16:21Z</time></trkpt>
<trkpt lat="39.618156" lon="-8.173995">
<ele>251</ele>
<time>2026-05-08T03:16:28Z</time></trkpt>
<trkpt lat="39.618165" lon="-8.173879">
<ele>250</ele>
<time>2026-05-08T03:16:30Z</time></trkpt>
<trkpt lat="39.61815" lon="-8.17377">
<ele>250</ele>
<time>2026-05-08T03:16:32Z</time></trkpt>
<trkpt lat="39.618049" lon="-8.173535">
<ele>253</ele>
<time>2026-05-08T03:16:36Z</time></trkpt>
<trkpt lat="39.617931" lon="-8.173337">
<ele>256</ele>
<time>2026-05-08T03:16:40Z</time></trkpt>
<trkpt lat="39.617879" lon="-8.173143">
<ele>259</ele>
<time>2026-05-08T03:16:43Z</time></trkpt>
<trkpt lat="39.617853" lon="-8.172954">
<ele>260</ele>
<time>2026-05-08T03:16:46Z</time></trkpt>
<trkpt lat="39.617897" lon="-8.172774">
<ele>260</ele>
<time>2026-05-08T03:16:49Z</time></trkpt>
<trkpt lat="39.618003" lon="-8.172601">
<ele>258</ele>
<time>2026-05-08T03:16:52Z</time></trkpt>
<trkpt lat="39.618599" lon="-8.171848">
<ele>255</ele>
<time>2026-05-08T03:17:09Z</time></trkpt>
<trkpt lat="39.618702" lon="-8.17162">
<ele>257</ele>
<time>2026-05-08T03:17:13Z</time></trkpt>
<trkpt lat="39.61872" lon="-8.171448">
<ele>256</ele>
<time>2026-05-08T03:17:15Z</time></trkpt>
<trkpt lat="39.618709" lon="-8.171355">
<ele>256</ele>
<time>2026-05-08T03:17:17Z</time></trkpt>
<trkpt lat="39.618662" lon="-8.171162">
<ele>255</ele>
<time>2026-05-08T03:17:20Z</time></trkpt>
<trkpt lat="39.618598" lon="-8.171021">
<ele>254</ele>
<time>2026-05-08T03:17:23Z</time></trkpt>
<trkpt lat="39.617174" lon="-8.168671">
<ele>225</ele>
<time>2026-05-08T03:18:09Z</time></trkpt>
<trkpt lat="39.61696" lon="-8.168462">
<ele>221</ele>
<time>2026-05-08T03:18:14Z</time></trkpt>
<trkpt lat="39.616133" lon="-8.168024">
<ele>213</ele>
<time>2026-05-08T03:18:32Z</time></trkpt>
<trkpt lat="39.615691" lon="-8.167848">
<ele>210</ele>
<time>2026-05-08T03:18:41Z</time></trkpt>
<trkpt lat="39.615549" lon="-8.167784">
<ele>210</ele>
<time>2026-05-08T03:18:44Z</time></trkpt>
<trkpt lat="39.615316" lon="-8.167746">
<ele>209</ele>
<time>2026-05-08T03:18:49Z</time></trkpt>
<trkpt lat="39.615119" lon="-8.167764">
<ele>210</ele>
<time>2026-05-08T03:18:53Z</time></trkpt>
<trkpt lat="39.614923" lon="-8.16774">
<ele>210</ele>
<time>2026-05-08T03:18:57Z</time></trkpt>
<trkpt lat="39.614817" lon="-8.16756">
<ele>207</ele>
<time>2026-05-08T03:19:00Z</time></trkpt>
<trkpt lat="39.614844" lon="-8.167387">
<ele>207</ele>
<time>2026-05-08T03:19:03Z</time></trkpt>
<trkpt lat="39.614923" lon="-8.167288">
<ele>207</ele>
<time>2026-05-08T03:19:05Z</time></trkpt>
<trkpt lat="39.615117" lon="-8.167124">
<ele>208</ele>
<time>2026-05-08T03:19:10Z</time></trkpt>
<trkpt lat="39.615757" lon="-8.166693">
<ele>206</ele>
<time>2026-05-08T03:19:24Z</time></trkpt>
<trkpt lat="39.616605" lon="-8.166026">
<ele>212</ele>
<time>2026-05-08T03:19:44Z</time></trkpt>
<trkpt lat="39.616636" lon="-8.165478">
<ele>218</ele>
<time>2026-05-08T03:19:53Z</time></trkpt>
<trkpt lat="39.6169247" lon="-8.1649354">
<ele>213</ele>
<time>2026-05-08T03:20:03Z</time></trkpt>
<trkpt lat="39.616952" lon="-8.164836">
<ele>213</ele>
<time>2026-05-08T03:20:05Z</time></trkpt>
<trkpt lat="39.617167" lon="-8.164449">
<ele>208</ele>
<time>2026-05-08T03:20:12Z</time></trkpt>
<trkpt lat="39.617516" lon="-8.163503">
<ele>206</ele>
<time>2026-05-08T03:20:28Z</time></trkpt>
<trkpt lat="39.617616" lon="-8.163089">
<ele>207</ele>
<time>2026-05-08T03:20:35Z</time></trkpt>
<trkpt lat="39.617902" lon="-8.162787">
<ele>201</ele>
<time>2026-05-08T03:20:42Z</time></trkpt>
<trkpt lat="39.618045" lon="-8.162555">
<ele>198</ele>
<time>2026-05-08T03:20:47Z</time></trkpt>
<trkpt lat="39.618143" lon="-8.162136">
<ele>200</ele>
<time>2026-05-08T03:20:54Z</time></trkpt>
<trkpt lat="39.618195" lon="-8.162057">
<ele>199</ele>
<time>2026-05-08T03:20:55Z</time></trkpt>
<trkpt lat="39.618256" lon="-8.162014">
<ele>198</ele>
<time>2026-05-08T03:20:57Z</time></trkpt>
<trkpt lat="39.618392" lon="-8.162029">
<ele>194</ele>
<time>2026-05-08T03:20:59Z</time></trkpt>
<trkpt lat="39.618484" lon="-8.162093">
<ele>192</ele>
<time>2026-05-08T03:21:01Z</time></trkpt>
<trkpt lat="39.618588" lon="-8.16211">
<ele>190</ele>
<time>2026-05-08T03:21:03Z</time></trkpt>
<trkpt lat="39.618683" lon="-8.162069">
<ele>189</ele>
<time>2026-05-08T03:21:05Z</time></trkpt>
<trkpt lat="39.619384" lon="-8.161646">
<ele>179</ele>
<time>2026-05-08T03:21:21Z</time></trkpt>
<trkpt lat="39.619524" lon="-8.16153">
<ele>180</ele>
<time>2026-05-08T03:21:24Z</time></trkpt>
<trkpt lat="39.61959" lon="-8.161374">
<ele>183</ele>
<time>2026-05-08T03:21:27Z</time></trkpt>
<trkpt lat="39.61966" lon="-8.161326">
<ele>184</ele>
<time>2026-05-08T03:21:29Z</time></trkpt>
<trkpt lat="39.619729" lon="-8.161327">
<ele>183</ele>
<time>2026-05-08T03:21:30Z</time></trkpt>
<trkpt lat="39.619935" lon="-8.161434">
<ele>177</ele>
<time>2026-05-08T03:21:34Z</time></trkpt>
<trkpt lat="39.620059" lon="-8.161445">
<ele>175</ele>
<time>2026-05-08T03:21:37Z</time></trkpt>
<trkpt lat="39.620165" lon="-8.161423">
<ele>174</ele>
<time>2026-05-08T03:21:39Z</time></trkpt>
<trkpt lat="39.620295" lon="-8.161332">
<ele>175</ele>
<time>2026-05-08T03:21:42Z</time></trkpt>
<trkpt lat="39.620441" lon="-8.16117">
<ele>175</ele>
<time>2026-05-08T03:21:46Z</time></trkpt>
<trkpt lat="39.620859" lon="-8.160818">
<ele>167</ele>
<time>2026-05-08T03:21:56Z</time></trkpt>
<trkpt lat="39.621121" lon="-8.160387">
<ele>174</ele>
<time>2026-05-08T03:22:04Z</time></trkpt>
<trkpt lat="39.621194" lon="-8.160319">
<ele>175</ele>
<time>2026-05-08T03:22:06Z</time></trkpt>
<trkpt lat="39.621259" lon="-8.160301">
<ele>175</ele>
<time>2026-05-08T03:22:07Z</time></trkpt>
<trkpt lat="39.621325" lon="-8.160339">
<ele>173</ele>
<time>2026-05-08T03:22:09Z</time></trkpt>
<trkpt lat="39.621424" lon="-8.160525">
<ele>169</ele>
<time>2026-05-08T03:22:12Z</time></trkpt>
<trkpt lat="39.621488" lon="-8.160583">
<ele>167</ele>
<time>2026-05-08T03:22:14Z</time></trkpt>
<trkpt lat="39.621578" lon="-8.160604">
<ele>166</ele>
<time>2026-05-08T03:22:16Z</time></trkpt>
<trkpt lat="39.621708" lon="-8.16059">
<ele>165</ele>
<time>2026-05-08T03:22:18Z</time></trkpt>
<trkpt lat="39.622035" lon="-8.160444">
<ele>164</ele>
<time>2026-05-08T03:22:25Z</time></trkpt>
<trkpt lat="39.622683" lon="-8.159991">
<ele>157</ele>
<time>2026-05-08T03:22:40Z</time></trkpt>
<trkpt lat="39.623012" lon="-8.159858">
<ele>152</ele>
<time>2026-05-08T03:22:47Z</time></trkpt>
<trkpt lat="39.623151" lon="-8.159759">
<ele>151</ele>
<time>2026-05-08T03:22:50Z</time></trkpt>
<trkpt lat="39.623246" lon="-8.159596">
<ele>150</ele>
<time>2026-05-08T03:22:53Z</time></trkpt>
<trkpt lat="39.6233" lon="-8.15918">
<ele>153</ele>
<time>2026-05-08T03:23:00Z</time></trkpt>
<trkpt lat="39.623331" lon="-8.158844">
<ele>151</ele>
<time>2026-05-08T03:23:05Z</time></trkpt>
<trkpt lat="39.623376" lon="-8.158555">
<ele>150</ele>
<time>2026-05-08T03:23:10Z</time></trkpt>
<trkpt lat="39.623382" lon="-8.158377">
<ele>150</ele>
<time>2026-05-08T03:23:12Z</time></trkpt>
<trkpt lat="39.623296" lon="-8.158022">
<ele>151</ele>
<time>2026-05-08T03:23:18Z</time></trkpt>
<trkpt lat="39.623319" lon="-8.157799">
<ele>151</ele>
<time>2026-05-08T03:23:22Z</time></trkpt>
<trkpt lat="39.623365" lon="-8.157609">
<ele>150</ele>
<time>2026-05-08T03:23:25Z</time></trkpt>
<trkpt lat="39.623374" lon="-8.15739">
<ele>150</ele>
<time>2026-05-08T03:23:28Z</time></trkpt>
<trkpt lat="39.623331" lon="-8.157221">
<ele>150</ele>
<time>2026-05-08T03:23:31Z</time></trkpt>
<trkpt lat="39.623252" lon="-8.157053">
<ele>154</ele>
<time>2026-05-08T03:23:34Z</time></trkpt>
<trkpt lat="39.623221" lon="-8.156899">
<ele>156</ele>
<time>2026-05-08T03:23:36Z</time></trkpt>
<trkpt lat="39.623225" lon="-8.156641">
<ele>156</ele>
<time>2026-05-08T03:23:40Z</time></trkpt>
<trkpt lat="39.623208" lon="-8.156454">
<ele>158</ele>
<time>2026-05-08T03:23:43Z</time></trkpt>
<trkpt lat="39.623239" lon="-8.156278">
<ele>156</ele>
<time>2026-05-08T03:23:46Z</time></trkpt>
<trkpt lat="39.623328" lon="-8.15594">
<ele>151</ele>
<time>2026-05-08T03:23:51Z</time></trkpt>
<trkpt lat="39.62342" lon="-8.155847">
<ele>150</ele>
<time>2026-05-08T03:23:54Z</time></trkpt>
<trkpt lat="39.623506" lon="-8.155824">
<ele>150</ele>
<time>2026-05-08T03:23:56Z</time></trkpt>
<trkpt lat="39.623593" lon="-8.155848">
<ele>149</ele>
<time>2026-05-08T03:23:57Z</time></trkpt>
<trkpt lat="39.624088" lon="-8.156284">
<ele>146</ele>
<time>2026-05-08T03:24:09Z</time></trkpt>
<trkpt lat="39.624205" lon="-8.156413">
<ele>147</ele>
<time>2026-05-08T03:24:12Z</time></trkpt>
<trkpt lat="39.624315" lon="-8.156568">
<ele>150</ele>
<time>2026-05-08T03:24:16Z</time></trkpt>
<trkpt lat="39.624378" lon="-8.156738">
<ele>151</ele>
<time>2026-05-08T03:24:19Z</time></trkpt>
<trkpt lat="39.624392" lon="-8.157019">
<ele>152</ele>
<time>2026-05-08T03:24:23Z</time></trkpt>
<trkpt lat="39.624372" lon="-8.157831">
<ele>153</ele>
<time>2026-05-08T03:24:35Z</time></trkpt>
<trkpt lat="39.624388" lon="-8.158024">
<ele>153</ele>
<time>2026-05-08T03:24:38Z</time></trkpt>
<trkpt lat="39.624424" lon="-8.158228">
<ele>155</ele>
<time>2026-05-08T03:24:42Z</time></trkpt>
<trkpt lat="39.624543" lon="-8.158577">
<ele>158</ele>
<time>2026-05-08T03:24:48Z</time></trkpt>
<trkpt lat="39.624667" lon="-8.158759">
<ele>161</ele>
<time>2026-05-08T03:24:51Z</time></trkpt>
<trkpt lat="39.624817" lon="-8.159079">
<ele>163</ele>
<time>2026-05-08T03:24:57Z</time></trkpt>
<trkpt lat="39.624905" lon="-8.159205">
<ele>165</ele>
<time>2026-05-08T03:25:00Z</time></trkpt>
<trkpt lat="39.625091" lon="-8.159389">
<ele>168</ele>
<time>2026-05-08T03:25:04Z</time></trkpt>
<trkpt lat="39.625385" lon="-8.159601">
<ele>172</ele>
<time>2026-05-08T03:25:11Z</time></trkpt>
<trkpt lat="39.625911" lon="-8.159869">
<ele>176</ele>
<time>2026-05-08T03:25:22Z</time></trkpt>
<trkpt lat="39.62619" lon="-8.159901">
<ele>177</ele>
<time>2026-05-08T03:25:28Z</time></trkpt>
<trkpt lat="39.626378" lon="-8.159973">
<ele>176</ele>
<time>2026-05-08T03:25:32Z</time></trkpt>
<trkpt lat="39.626455" lon="-8.159985">
<ele>176</ele>
<time>2026-05-08T03:25:34Z</time></trkpt>
<trkpt lat="39.626578" lon="-8.159975">
<ele>177</ele>
<time>2026-05-08T03:25:36Z</time></trkpt>
<trkpt lat="39.626761" lon="-8.159923">
<ele>182</ele>
<time>2026-05-08T03:25:40Z</time></trkpt>
<trkpt lat="39.626848" lon="-8.159847">
<ele>186</ele>
<time>2026-05-08T03:25:42Z</time></trkpt>
<trkpt lat="39.626928" lon="-8.159734">
<ele>190</ele>
<time>2026-05-08T03:25:44Z</time></trkpt>
<trkpt lat="39.62708" lon="-8.159453">
<ele>197</ele>
<time>2026-05-08T03:25:50Z</time></trkpt>
<trkpt lat="39.627143" lon="-8.159293">
<ele>199</ele>
<time>2026-05-08T03:25:52Z</time></trkpt>
<trkpt lat="39.627208" lon="-8.159218">
<ele>200</ele>
<time>2026-05-08T03:25:54Z</time></trkpt>
<trkpt lat="39.627308" lon="-8.159221">
<ele>200</ele>
<time>2026-05-08T03:25:56Z</time></trkpt>
<trkpt lat="39.627371" lon="-8.159298">
<ele>199</ele>
<time>2026-05-08T03:25:58Z</time></trkpt>
<trkpt lat="39.627451" lon="-8.159888">
<ele>198</ele>
<time>2026-05-08T03:26:07Z</time></trkpt>
<trkpt lat="39.62752" lon="-8.160208">
<ele>199</ele>
<time>2026-05-08T03:26:12Z</time></trkpt>
<trkpt lat="39.627572" lon="-8.161235">
<ele>201</ele>
<time>2026-05-08T03:26:28Z</time></trkpt>
<trkpt lat="39.627541" lon="-8.16162">
<ele>201</ele>
<time>2026-05-08T03:26:34Z</time></trkpt>
<trkpt lat="39.62754" lon="-8.161806">
<ele>199</ele>
<time>2026-05-08T03:26:37Z</time></trkpt>
<trkpt lat="39.6276" lon="-8.161966">
<ele>199</ele>
<time>2026-05-08T03:26:40Z</time></trkpt>
<trkpt lat="39.627891" lon="-8.16251">
<ele>205</ele>
<time>2026-05-08T03:26:50Z</time></trkpt>
<trkpt lat="39.62795" lon="-8.162686">
<ele>205</ele>
<time>2026-05-08T03:26:53Z</time></trkpt>
<trkpt lat="39.62806" lon="-8.163172">
<ele>202</ele>
<time>2026-05-08T03:27:01Z</time></trkpt>
<trkpt lat="39.628128" lon="-8.163279">
<ele>203</ele>
<time>2026-05-08T03:27:03Z</time></trkpt>
<trkpt lat="39.628252" lon="-8.163343">
<ele>206</ele>
<time>2026-05-08T03:27:05Z</time></trkpt>
<trkpt lat="39.628328" lon="-8.163349">
<ele>208</ele>
<time>2026-05-08T03:27:07Z</time></trkpt>
<trkpt lat="39.628583" lon="-8.163242">
<ele>205</ele>
<time>2026-05-08T03:27:12Z</time></trkpt>
<trkpt lat="39.628742" lon="-8.163131">
<ele>205</ele>
<time>2026-05-08T03:27:16Z</time></trkpt>
<trkpt lat="39.628894" lon="-8.162943">
<ele>208</ele>
<time>2026-05-08T03:27:20Z</time></trkpt>
<trkpt lat="39.628973" lon="-8.162876">
<ele>209</ele>
<time>2026-05-08T03:27:22Z</time></trkpt>
<trkpt lat="39.629074" lon="-8.162823">
<ele>210</ele>
<time>2026-05-08T03:27:24Z</time></trkpt>
<trkpt lat="39.62972" lon="-8.162635">
<ele>208</ele>
<time>2026-05-08T03:27:38Z</time></trkpt>
<trkpt lat="39.629802" lon="-8.162589">
<ele>208</ele>
<time>2026-05-08T03:27:39Z</time></trkpt>
<trkpt lat="39.629868" lon="-8.162534">
<ele>208</ele>
<time>2026-05-08T03:27:41Z</time></trkpt>
<trkpt lat="39.629919" lon="-8.162452">
<ele>209</ele>
<time>2026-05-08T03:27:43Z</time></trkpt>
<trkpt lat="39.630218" lon="-8.161748">
<ele>210</ele>
<time>2026-05-08T03:27:55Z</time></trkpt>
<trkpt lat="39.63025" lon="-8.161622">
<ele>210</ele>
<time>2026-05-08T03:27:57Z</time></trkpt>
<trkpt lat="39.630253" lon="-8.16142">
<ele>211</ele>
<time>2026-05-08T03:28:00Z</time></trkpt>
<trkpt lat="39.630243" lon="-8.160923">
<ele>214</ele>
<time>2026-05-08T03:28:08Z</time></trkpt>
<trkpt lat="39.630206" lon="-8.160531">
<ele>217</ele>
<time>2026-05-08T03:28:14Z</time></trkpt>
<trkpt lat="39.630119" lon="-8.160185">
<ele>221</ele>
<time>2026-05-08T03:28:19Z</time></trkpt>
<trkpt lat="39.629914" lon="-8.15969">
<ele>229</ele>
<time>2026-05-08T03:28:28Z</time></trkpt>
<trkpt lat="39.629915" lon="-8.159601">
<ele>230</ele>
<time>2026-05-08T03:28:30Z</time></trkpt>
<trkpt lat="39.630006" lon="-8.159277">
<ele>231</ele>
<time>2026-05-08T03:28:35Z</time></trkpt>
<trkpt lat="39.630018" lon="-8.15917">
<ele>231</ele>
<time>2026-05-08T03:28:37Z</time></trkpt>
<trkpt lat="39.630021" lon="-8.158629">
<ele>232</ele>
<time>2026-05-08T03:28:45Z</time></trkpt>
<trkpt lat="39.630089" lon="-8.158397">
<ele>231</ele>
<time>2026-05-08T03:28:49Z</time></trkpt>
<trkpt lat="39.630246" lon="-8.157965">
<ele>230</ele>
<time>2026-05-08T03:28:56Z</time></trkpt>
<trkpt lat="39.630728" lon="-8.157189">
<ele>232</ele>
<time>2026-05-08T03:29:11Z</time></trkpt>
<trkpt lat="39.630935" lon="-8.156763">
<ele>232</ele>
<time>2026-05-08T03:29:19Z</time></trkpt>
<trkpt lat="39.631221" lon="-8.156086">
<ele>232</ele>
<time>2026-05-08T03:29:31Z</time></trkpt>
<trkpt lat="39.631281" lon="-8.155807">
<ele>235</ele>
<time>2026-05-08T03:29:36Z</time></trkpt>
<trkpt lat="39.631294" lon="-8.155278">
<ele>240</ele>
<time>2026-05-08T03:29:44Z</time></trkpt>
<trkpt lat="39.631322" lon="-8.155027">
<ele>242</ele>
<time>2026-05-08T03:29:48Z</time></trkpt>
<trkpt lat="39.631681" lon="-8.154228">
<ele>241</ele>
<time>2026-05-08T03:30:02Z</time></trkpt>
<trkpt lat="39.631739" lon="-8.15408">
<ele>240</ele>
<time>2026-05-08T03:30:05Z</time></trkpt>
<trkpt lat="39.631762" lon="-8.15395">
<ele>240</ele>
<time>2026-05-08T03:30:07Z</time></trkpt>
<trkpt lat="39.631786" lon="-8.153477">
<ele>242</ele>
<time>2026-05-08T03:30:14Z</time></trkpt>
<trkpt lat="39.631788" lon="-8.15331">
<ele>243</ele>
<time>2026-05-08T03:30:16Z</time></trkpt>
<trkpt lat="39.631772" lon="-8.153171">
<ele>244</ele>
<time>2026-05-08T03:30:19Z</time></trkpt>
<trkpt lat="39.631691" lon="-8.152899">
<ele>246</ele>
<time>2026-05-08T03:30:23Z</time></trkpt>
<trkpt lat="39.631404" lon="-8.152498">
<ele>251</ele>
<time>2026-05-08T03:30:32Z</time></trkpt>
<trkpt lat="39.631387" lon="-8.15242">
<ele>252</ele>
<time>2026-05-08T03:30:33Z</time></trkpt>
<trkpt lat="39.63139" lon="-8.152341">
<ele>253</ele>
<time>2026-05-08T03:30:34Z</time></trkpt>
<trkpt lat="39.631443" lon="-8.15223">
<ele>254</ele>
<time>2026-05-08T03:30:36Z</time></trkpt>
<trkpt lat="39.631512" lon="-8.152187">
<ele>253</ele>
<time>2026-05-08T03:30:38Z</time></trkpt>
<trkpt lat="39.631636" lon="-8.152196">
<ele>251</ele>
<time>2026-05-08T03:30:40Z</time></trkpt>
<trkpt lat="39.632087" lon="-8.152126">
<ele>243</ele>
<time>2026-05-08T03:30:49Z</time></trkpt>
<trkpt lat="39.632306" lon="-8.152059">
<ele>240</ele>
<time>2026-05-08T03:30:54Z</time></trkpt>
<trkpt lat="39.632372" lon="-8.151984">
<ele>241</ele>
<time>2026-05-08T03:30:55Z</time></trkpt>
<trkpt lat="39.632525" lon="-8.151721">
<ele>247</ele>
<time>2026-05-08T03:31:01Z</time></trkpt>
<trkpt lat="39.632975" lon="-8.151085">
<ele>239</ele>
<time>2026-05-08T03:31:14Z</time></trkpt>
<trkpt lat="39.633118" lon="-8.150833">
<ele>238</ele>
<time>2026-05-08T03:31:19Z</time></trkpt>
<trkpt lat="39.633153" lon="-8.150651">
<ele>237</ele>
<time>2026-05-08T03:31:22Z</time></trkpt>
<trkpt lat="39.633048" lon="-8.150329">
<ele>244</ele>
<time>2026-05-08T03:31:27Z</time></trkpt>
<trkpt lat="39.633052" lon="-8.150211">
<ele>245</ele>
<time>2026-05-08T03:31:29Z</time></trkpt>
<trkpt lat="39.633116" lon="-8.150064">
<ele>243</ele>
<time>2026-05-08T03:31:31Z</time></trkpt>
<trkpt lat="39.633202" lon="-8.149935">
<ele>240</ele>
<time>2026-05-08T03:31:34Z</time></trkpt>
<trkpt lat="39.633258" lon="-8.149731">
<ele>238</ele>
<time>2026-05-08T03:31:37Z</time></trkpt>
<trkpt lat="39.633194" lon="-8.149077">
<ele>241</ele>
<time>2026-05-08T03:31:48Z</time></trkpt>
<trkpt lat="39.633155" lon="-8.148894">
<ele>243</ele>
<time>2026-05-08T03:31:51Z</time></trkpt>
<trkpt lat="39.633153" lon="-8.148691">
<ele>243</ele>
<time>2026-05-08T03:31:54Z</time></trkpt>
<trkpt lat="39.633233" lon="-8.148242">
<ele>238</ele>
<time>2026-05-08T03:32:01Z</time></trkpt>
<trkpt lat="39.633271" lon="-8.147923">
<ele>234</ele>
<time>2026-05-08T03:32:06Z</time></trkpt>
<trkpt lat="39.633258" lon="-8.147741">
<ele>233</ele>
<time>2026-05-08T03:32:09Z</time></trkpt>
<trkpt lat="39.633202" lon="-8.147572">
<ele>235</ele>
<time>2026-05-08T03:32:11Z</time></trkpt>
<trkpt lat="39.633081" lon="-8.147403">
<ele>237</ele>
<time>2026-05-08T03:32:15Z</time></trkpt>
<trkpt lat="39.632738" lon="-8.147113">
<ele>245</ele>
<time>2026-05-08T03:32:23Z</time></trkpt>
<trkpt lat="39.632624" lon="-8.14695">
<ele>245</ele>
<time>2026-05-08T03:32:27Z</time></trkpt>
<trkpt lat="39.632593" lon="-8.14673">
<ele>242</ele>
<time>2026-05-08T03:32:30Z</time></trkpt>
<trkpt lat="39.632674" lon="-8.146252">
<ele>238</ele>
<time>2026-05-08T03:32:38Z</time></trkpt>
<trkpt lat="39.632658" lon="-8.145927">
<ele>239</ele>
<time>2026-05-08T03:32:43Z</time></trkpt>
<trkpt lat="39.6327" lon="-8.145815">
<ele>238</ele>
<time>2026-05-08T03:32:45Z</time></trkpt>
<trkpt lat="39.632827" lon="-8.145719">
<ele>236</ele>
<time>2026-05-08T03:32:47Z</time></trkpt>
<trkpt lat="39.632979" lon="-8.145508">
<ele>234</ele>
<time>2026-05-08T03:32:52Z</time></trkpt>
<trkpt lat="39.632989" lon="-8.145321">
<ele>234</ele>
<time>2026-05-08T03:32:55Z</time></trkpt>
<trkpt lat="39.632945" lon="-8.144928">
<ele>238</ele>
<time>2026-05-08T03:33:01Z</time></trkpt>
<trkpt lat="39.632949" lon="-8.144723">
<ele>238</ele>
<time>2026-05-08T03:33:04Z</time></trkpt>
<trkpt lat="39.632984" lon="-8.144464">
<ele>237</ele>
<time>2026-05-08T03:33:08Z</time></trkpt>
<trkpt lat="39.632972" lon="-8.14418">
<ele>238</ele>
<time>2026-05-08T03:33:13Z</time></trkpt>
<trkpt lat="39.632899" lon="-8.143909">
<ele>240</ele>
<time>2026-05-08T03:33:17Z</time></trkpt>
<trkpt lat="39.632704" lon="-8.143391">
<ele>241</ele>
<time>2026-05-08T03:33:26Z</time></trkpt>
<trkpt lat="39.632668" lon="-8.143012">
<ele>238</ele>
<time>2026-05-08T03:33:32Z</time></trkpt>
<trkpt lat="39.632718" lon="-8.142786">
<ele>237</ele>
<time>2026-05-08T03:33:35Z</time></trkpt>
<trkpt lat="39.632854" lon="-8.142477">
<ele>236</ele>
<time>2026-05-08T03:33:41Z</time></trkpt>
<trkpt lat="39.633004" lon="-8.142249">
<ele>236</ele>
<time>2026-05-08T03:33:46Z</time></trkpt>
<trkpt lat="39.633518" lon="-8.141979">
<ele>234</ele>
<time>2026-05-08T03:33:57Z</time></trkpt>
<trkpt lat="39.633726" lon="-8.141856">
<ele>235</ele>
<time>2026-05-08T03:34:01Z</time></trkpt>
<trkpt lat="39.633969" lon="-8.141811">
<ele>236</ele>
<time>2026-05-08T03:34:06Z</time></trkpt>
<trkpt lat="39.634328" lon="-8.141776">
<ele>239</ele>
<time>2026-05-08T03:34:13Z</time></trkpt>
<trkpt lat="39.634642" lon="-8.141679">
<ele>241</ele>
<time>2026-05-08T03:34:20Z</time></trkpt>
<trkpt lat="39.634767" lon="-8.141495">
<ele>241</ele>
<time>2026-05-08T03:34:24Z</time></trkpt>
<trkpt lat="39.634916" lon="-8.1412">
<ele>241</ele>
<time>2026-05-08T03:34:29Z</time></trkpt>
<trkpt lat="39.635154" lon="-8.141019">
<ele>242</ele>
<time>2026-05-08T03:34:35Z</time></trkpt>
<trkpt lat="39.635567" lon="-8.141003">
<ele>245</ele>
<time>2026-05-08T03:34:43Z</time></trkpt>
<trkpt lat="39.635795" lon="-8.14088">
<ele>245</ele>
<time>2026-05-08T03:34:48Z</time></trkpt>
<trkpt lat="39.635981" lon="-8.140735">
<ele>247</ele>
<time>2026-05-08T03:34:52Z</time></trkpt>
<trkpt lat="39.636323" lon="-8.14037">
<ele>249</ele>
<time>2026-05-08T03:35:01Z</time></trkpt>
<trkpt lat="39.636468" lon="-8.14029">
<ele>249</ele>
<time>2026-05-08T03:35:04Z</time></trkpt>
<trkpt lat="39.637418" lon="-8.140005">
<ele>251</ele>
<time>2026-05-08T03:35:24Z</time></trkpt>
<trkpt lat="39.637939" lon="-8.139882">
<ele>251</ele>
<time>2026-05-08T03:35:34Z</time></trkpt>
<trkpt lat="39.638149" lon="-8.139904">
<ele>250</ele>
<time>2026-05-08T03:35:39Z</time></trkpt>
<trkpt lat="39.63841" lon="-8.140043">
<ele>252</ele>
<time>2026-05-08T03:35:44Z</time></trkpt>
<trkpt lat="39.638646" lon="-8.140074">
<ele>255</ele>
<time>2026-05-08T03:35:49Z</time></trkpt>
<trkpt lat="39.639966" lon="-8.139489">
<ele>259</ele>
<time>2026-05-08T03:36:17Z</time></trkpt>
<trkpt lat="39.64024" lon="-8.139356">
<ele>261</ele>
<time>2026-05-08T03:36:23Z</time></trkpt>
<trkpt lat="39.641157" lon="-8.138782">
<ele>265</ele>
<time>2026-05-08T03:36:43Z</time></trkpt>
<trkpt lat="39.641913" lon="-8.138514">
<ele>270</ele>
<time>2026-05-08T03:36:59Z</time></trkpt>
<trkpt lat="39.642331" lon="-8.138249">
<ele>271</ele>
<time>2026-05-08T03:37:08Z</time></trkpt>
<trkpt lat="39.642495" lon="-8.13812">
<ele>271</ele>
<time>2026-05-08T03:37:12Z</time></trkpt>
<trkpt lat="39.642853" lon="-8.137985">
<ele>271</ele>
<time>2026-05-08T03:37:20Z</time></trkpt>
<trkpt lat="39.643033" lon="-8.137998">
<ele>272</ele>
<time>2026-05-08T03:37:23Z</time></trkpt>
<trkpt lat="39.643211" lon="-8.1381">
<ele>274</ele>
<time>2026-05-08T03:37:27Z</time></trkpt>
<trkpt lat="39.643399" lon="-8.138458">
<ele>279</ele>
<time>2026-05-08T03:37:34Z</time></trkpt>
<trkpt lat="39.643505" lon="-8.138511">
<ele>280</ele>
<time>2026-05-08T03:37:36Z</time></trkpt>
<trkpt lat="39.643818" lon="-8.138579">
<ele>280</ele>
<time>2026-05-08T03:37:42Z</time></trkpt>
<trkpt lat="39.64387" lon="-8.138545">
<ele>279</ele>
<time>2026-05-08T03:37:43Z</time></trkpt>
<trkpt lat="39.643921" lon="-8.138578">
<ele>279</ele>
<time>2026-05-08T03:37:45Z</time></trkpt>
<trkpt lat="39.644025" lon="-8.138531">
<ele>278</ele>
<time>2026-05-08T03:37:47Z</time></trkpt>
<trkpt lat="39.644103" lon="-8.138517">
<ele>278</ele>
<time>2026-05-08T03:37:48Z</time></trkpt>
<trkpt lat="39.644287" lon="-8.138526">
<ele>280</ele>
<time>2026-05-08T03:37:52Z</time></trkpt>
<trkpt lat="39.644441" lon="-8.138615">
<ele>283</ele>
<time>2026-05-08T03:37:55Z</time></trkpt>
<trkpt lat="39.644592" lon="-8.138799">
<ele>286</ele>
<time>2026-05-08T03:38:00Z</time></trkpt>
<trkpt lat="39.644784" lon="-8.139153">
<ele>291</ele>
<time>2026-05-08T03:38:06Z</time></trkpt>
<trkpt lat="39.644884" lon="-8.139405">
<ele>291</ele>
<time>2026-05-08T03:38:11Z</time></trkpt>
<trkpt lat="39.645006" lon="-8.139792">
<ele>290</ele>
<time>2026-05-08T03:38:17Z</time></trkpt>
<trkpt lat="39.645185" lon="-8.140145">
<ele>290</ele>
<time>2026-05-08T03:38:24Z</time></trkpt>
<trkpt lat="39.645451" lon="-8.140383">
<ele>292</ele>
<time>2026-05-08T03:38:30Z</time></trkpt>
<trkpt lat="39.645775" lon="-8.1405">
<ele>297</ele>
<time>2026-05-08T03:38:37Z</time></trkpt>
<trkpt lat="39.646056" lon="-8.140552">
<ele>297</ele>
<time>2026-05-08T03:38:43Z</time></trkpt>
<trkpt lat="39.646233" lon="-8.140488">
<ele>298</ele>
<time>2026-05-08T03:38:46Z</time></trkpt>
<trkpt lat="39.646336" lon="-8.140361">
<ele>301</ele>
<time>2026-05-08T03:38:49Z</time></trkpt>
<trkpt lat="39.646546" lon="-8.140022">
<ele>308</ele>
<time>2026-05-08T03:38:56Z</time></trkpt>
<trkpt lat="39.64681" lon="-8.139739">
<ele>311</ele>
<time>2026-05-08T03:39:03Z</time></trkpt>
<trkpt lat="39.647582" lon="-8.13908">
<ele>317</ele>
<time>2026-05-08T03:39:21Z</time></trkpt>
<trkpt lat="39.647959" lon="-8.138581">
<ele>316</ele>
<time>2026-05-08T03:39:32Z</time></trkpt>
<trkpt lat="39.648106" lon="-8.138284">
<ele>318</ele>
<time>2026-05-08T03:39:37Z</time></trkpt>
<trkpt lat="39.648262" lon="-8.137603">
<ele>323</ele>
<time>2026-05-08T03:39:48Z</time></trkpt>
<trkpt lat="39.64851" lon="-8.137245">
<ele>328</ele>
<time>2026-05-08T03:39:56Z</time></trkpt>
<trkpt lat="39.64881" lon="-8.137096">
<ele>331</ele>
<time>2026-05-08T03:40:02Z</time></trkpt>
<trkpt lat="39.649457" lon="-8.137099">
<ele>332</ele>
<time>2026-05-08T03:40:15Z</time></trkpt>
<trkpt lat="39.650124" lon="-8.136973">
<ele>334</ele>
<time>2026-05-08T03:40:29Z</time></trkpt>
<trkpt lat="39.65095" lon="-8.136913">
<ele>340</ele>
<time>2026-05-08T03:40:45Z</time></trkpt>
<trkpt lat="39.65174" lon="-8.136617">
<ele>344</ele>
<time>2026-05-08T03:41:02Z</time></trkpt>
<trkpt lat="39.652207" lon="-8.136371">
<ele>344</ele>
<time>2026-05-08T03:41:12Z</time></trkpt>
<trkpt lat="39.652557" lon="-8.135996">
<ele>352</ele>
<time>2026-05-08T03:41:21Z</time></trkpt>
<trkpt lat="39.652944" lon="-8.135783">
<ele>350</ele>
<time>2026-05-08T03:41:29Z</time></trkpt>
<trkpt lat="39.653574" lon="-8.135091">
<ele>361</ele>
<time>2026-05-08T03:41:46Z</time></trkpt>
<trkpt lat="39.653768" lon="-8.134955">
<ele>363</ele>
<time>2026-05-08T03:41:50Z</time></trkpt>
<trkpt lat="39.654341" lon="-8.134864">
<ele>362</ele>
<time>2026-05-08T03:42:02Z</time></trkpt>
<trkpt lat="39.654519" lon="-8.134795">
<ele>362</ele>
<time>2026-05-08T03:42:06Z</time></trkpt>
<trkpt lat="39.654756" lon="-8.134502">
<ele>366</ele>
<time>2026-05-08T03:42:12Z</time></trkpt>
<trkpt lat="39.654893" lon="-8.134266">
<ele>369</ele>
<time>2026-05-08T03:42:17Z</time></trkpt>
<trkpt lat="39.655038" lon="-8.133925">
<ele>372</ele>
<time>2026-05-08T03:42:23Z</time></trkpt>
<trkpt lat="39.65516" lon="-8.13379">
<ele>373</ele>
<time>2026-05-08T03:42:26Z</time></trkpt>
<trkpt lat="39.655311" lon="-8.133681">
<ele>373</ele>
<time>2026-05-08T03:42:29Z</time></trkpt>
<trkpt lat="39.655404" lon="-8.133572">
<ele>374</ele>
<time>2026-05-08T03:42:32Z</time></trkpt>
<trkpt lat="39.655859" lon="-8.132856">
<ele>378</ele>
<time>2026-05-08T03:42:46Z</time></trkpt>
<trkpt lat="39.655975" lon="-8.132775">
<ele>378</ele>
<time>2026-05-08T03:42:49Z</time></trkpt>
<trkpt lat="39.656122" lon="-8.132741">
<ele>378</ele>
<time>2026-05-08T03:42:52Z</time></trkpt>
<trkpt lat="39.656386" lon="-8.132854">
<ele>377</ele>
<time>2026-05-08T03:42:57Z</time></trkpt>
<trkpt lat="39.656491" lon="-8.132869">
<ele>377</ele>
<time>2026-05-08T03:43:00Z</time></trkpt>
<trkpt lat="39.65696" lon="-8.132654">
<ele>379</ele>
<time>2026-05-08T03:43:10Z</time></trkpt>
<trkpt lat="39.657287" lon="-8.132446">
<ele>380</ele>
<time>2026-05-08T03:43:17Z</time></trkpt>
<trkpt lat="39.657381" lon="-8.132331">
<ele>380</ele>
<time>2026-05-08T03:43:19Z</time></trkpt>
<trkpt lat="39.657848" lon="-8.130976">
<ele>382</ele>
<time>2026-05-08T03:43:42Z</time></trkpt>
<trkpt lat="39.657882" lon="-8.13073">
<ele>382</ele>
<time>2026-05-08T03:43:46Z</time></trkpt>
<trkpt lat="39.657722" lon="-8.130232">
<ele>385</ele>
<time>2026-05-08T03:43:54Z</time></trkpt>
<trkpt lat="39.657679" lon="-8.130002">
<ele>385</ele>
<time>2026-05-08T03:43:58Z</time></trkpt>
<trkpt lat="39.657737" lon="-8.129776">
<ele>386</ele>
<time>2026-05-08T03:44:02Z</time></trkpt>
<trkpt lat="39.65788" lon="-8.12943">
<ele>387</ele>
<time>2026-05-08T03:44:08Z</time></trkpt>
<trkpt lat="39.658055" lon="-8.129145">
<ele>388</ele>
<time>2026-05-08T03:44:13Z</time></trkpt>
<trkpt lat="39.658286" lon="-8.12895">
<ele>388</ele>
<time>2026-05-08T03:44:19Z</time></trkpt>
<trkpt lat="39.658587" lon="-8.128751">
<ele>388</ele>
<time>2026-05-08T03:44:26Z</time></trkpt>
<trkpt lat="39.659101" lon="-8.128504">
<ele>387</ele>
<time>2026-05-08T03:44:37Z</time></trkpt>
<trkpt lat="39.659229" lon="-8.128392">
<ele>387</ele>
<time>2026-05-08T03:44:40Z</time></trkpt>
<trkpt lat="39.659557" lon="-8.127983">
<ele>389</ele>
<time>2026-05-08T03:44:49Z</time></trkpt>
<trkpt lat="39.659684" lon="-8.127878">
<ele>390</ele>
<time>2026-05-08T03:44:52Z</time></trkpt>
<trkpt lat="39.659899" lon="-8.127782">
<ele>391</ele>
<time>2026-05-08T03:44:57Z</time></trkpt>
<trkpt lat="39.660095" lon="-8.127777">
<ele>393</ele>
<time>2026-05-08T03:45:00Z</time></trkpt>
<trkpt lat="39.66024" lon="-8.127822">
<ele>393</ele>
<time>2026-05-08T03:45:03Z</time></trkpt>
<trkpt lat="39.660463" lon="-8.127954">
<ele>394</ele>
<time>2026-05-08T03:45:08Z</time></trkpt>
<trkpt lat="39.661588" lon="-8.128718">
<ele>391</ele>
<time>2026-05-08T03:45:34Z</time></trkpt>
<trkpt lat="39.661865" lon="-8.128967">
<ele>390</ele>
<time>2026-05-08T03:45:41Z</time></trkpt>
<trkpt lat="39.662038" lon="-8.129078">
<ele>389</ele>
<time>2026-05-08T03:45:44Z</time></trkpt>
<trkpt lat="39.66254" lon="-8.129558">
<ele>392</ele>
<time>2026-05-08T03:45:57Z</time></trkpt>
<trkpt lat="39.662843" lon="-8.129827">
<ele>392</ele>
<time>2026-05-08T03:46:04Z</time></trkpt>
<trkpt lat="39.663072" lon="-8.129952">
<ele>393</ele>
<time>2026-05-08T03:46:09Z</time></trkpt>
<trkpt lat="39.663381" lon="-8.130051">
<ele>394</ele>
<time>2026-05-08T03:46:16Z</time></trkpt>
<trkpt lat="39.663821" lon="-8.130123">
<ele>394</ele>
<time>2026-05-08T03:46:25Z</time></trkpt>
<trkpt lat="39.665915" lon="-8.130356">
<ele>395</ele>
<time>2026-05-08T03:47:07Z</time></trkpt>
<trkpt lat="39.667115" lon="-8.130535">
<ele>398</ele>
<time>2026-05-08T03:47:31Z</time></trkpt>
<trkpt lat="39.667256" lon="-8.130586">
<ele>398</ele>
<time>2026-05-08T03:47:34Z</time></trkpt>
<trkpt lat="39.667406" lon="-8.130768">
<ele>400</ele>
<time>2026-05-08T03:47:38Z</time></trkpt>
<trkpt lat="39.667737" lon="-8.131227">
<ele>403</ele>
<time>2026-05-08T03:47:48Z</time></trkpt>
<trkpt lat="39.667881" lon="-8.131391">
<ele>403</ele>
<time>2026-05-08T03:47:51Z</time></trkpt>
<trkpt lat="39.668226" lon="-8.131621">
<ele>401</ele>
<time>2026-05-08T03:47:59Z</time></trkpt>
<trkpt lat="39.668751" lon="-8.131925">
<ele>400</ele>
<time>2026-05-08T03:48:11Z</time></trkpt>
<trkpt lat="39.669088" lon="-8.132205">
<ele>399</ele>
<time>2026-05-08T03:48:19Z</time></trkpt>
<trkpt lat="39.669625" lon="-8.132781">
<ele>400</ele>
<time>2026-05-08T03:48:33Z</time></trkpt>
<trkpt lat="39.669746" lon="-8.132988">
<ele>401</ele>
<time>2026-05-08T03:48:37Z</time></trkpt>
<trkpt lat="39.669828" lon="-8.133202">
<ele>403</ele>
<time>2026-05-08T03:48:40Z</time></trkpt>
<trkpt lat="39.66994" lon="-8.133643">
<ele>406</ele>
<time>2026-05-08T03:48:48Z</time></trkpt>
<trkpt lat="39.670229" lon="-8.134989">
<ele>407</ele>
<time>2026-05-08T03:49:09Z</time></trkpt>
<trkpt lat="39.670623" lon="-8.137345">
<ele>405</ele>
<time>2026-05-08T03:49:46Z</time></trkpt>
<trkpt lat="39.670842" lon="-8.138151">
<ele>407</ele>
<time>2026-05-08T03:49:59Z</time></trkpt>
<trkpt lat="39.671366" lon="-8.139524">
<ele>409</ele>
<time>2026-05-08T03:50:23Z</time></trkpt>
<trkpt lat="39.67189" lon="-8.140615">
<ele>413</ele>
<time>2026-05-08T03:50:43Z</time></trkpt>
<trkpt lat="39.672214" lon="-8.141143">
<ele>418</ele>
<time>2026-05-08T03:50:53Z</time></trkpt>
<trkpt lat="39.67264" lon="-8.141899">
<ele>419</ele>
<time>2026-05-08T03:51:08Z</time></trkpt>
<trkpt lat="39.672767" lon="-8.142174">
<ele>419</ele>
<time>2026-05-08T03:51:13Z</time></trkpt>
<trkpt lat="39.672851" lon="-8.142427">
<ele>418</ele>
<time>2026-05-08T03:51:17Z</time></trkpt>
<trkpt lat="39.673002" lon="-8.142675">
<ele>418</ele>
<time>2026-05-08T03:51:22Z</time></trkpt>
<trkpt lat="39.673076" lon="-8.142761">
<ele>419</ele>
<time>2026-05-08T03:51:24Z</time></trkpt>
<trkpt lat="39.673182" lon="-8.142825">
<ele>419</ele>
<time>2026-05-08T03:51:26Z</time></trkpt>
<trkpt lat="39.67328" lon="-8.142855">
<ele>419</ele>
<time>2026-05-08T03:51:28Z</time></trkpt>
<trkpt lat="39.673405" lon="-8.142854">
<ele>419</ele>
<time>2026-05-08T03:51:31Z</time></trkpt>
<trkpt lat="39.674557" lon="-8.142723">
<ele>424</ele>
<time>2026-05-08T03:51:54Z</time></trkpt>
<trkpt lat="39.676658" lon="-8.142436">
<ele>434</ele>
<time>2026-05-08T03:52:36Z</time></trkpt>
<trkpt lat="39.676747" lon="-8.142401">
<ele>434</ele>
<time>2026-05-08T03:52:38Z</time></trkpt>
<trkpt lat="39.676819" lon="-8.14233">
<ele>434</ele>
<time>2026-05-08T03:52:40Z</time></trkpt>
<trkpt lat="39.676857" lon="-8.142278">
<ele>434</ele>
<time>2026-05-08T03:52:41Z</time></trkpt>
<trkpt lat="39.676963" lon="-8.142027">
<ele>434</ele>
<time>2026-05-08T03:52:45Z</time></trkpt>
<trkpt lat="39.676955" lon="-8.141772">
<ele>433</ele>
<time>2026-05-08T03:52:49Z</time></trkpt>
<trkpt lat="39.676903" lon="-8.141487">
<ele>433</ele>
<time>2026-05-08T03:52:54Z</time></trkpt>
<trkpt lat="39.676447" lon="-8.14039">
<ele>430</ele>
<time>2026-05-08T03:53:13Z</time></trkpt>
<trkpt lat="39.676386" lon="-8.140289">
<ele>430</ele>
<time>2026-05-08T03:53:15Z</time></trkpt>
<trkpt lat="39.676296" lon="-8.139949">
<ele>429</ele>
<time>2026-05-08T03:53:21Z</time></trkpt>
<trkpt lat="39.676265" lon="-8.139918">
<ele>429</ele>
<time>2026-05-08T03:53:21Z</time></trkpt>
<trkpt lat="39.676234" lon="-8.139825">
<ele>429</ele>
<time>2026-05-08T03:53:23Z</time></trkpt>
<trkpt lat="39.67625" lon="-8.139742">
<ele>428</ele>
<time>2026-05-08T03:53:24Z</time></trkpt>
<trkpt lat="39.676234" lon="-8.139354">
<ele>427</ele>
<time>2026-05-08T03:53:30Z</time></trkpt>
<trkpt lat="39.676287" lon="-8.138498">
<ele>425</ele>
<time>2026-05-08T03:53:44Z</time></trkpt>
<trkpt lat="39.676269" lon="-8.138233">
<ele>424</ele>
<time>2026-05-08T03:53:48Z</time></trkpt>
<trkpt lat="39.676014" lon="-8.136935">
<ele>419</ele>
<time>2026-05-08T03:54:08Z</time></trkpt>
<trkpt lat="39.675789" lon="-8.133987">
<ele>417</ele>
<time>2026-05-08T03:54:54Z</time></trkpt>
<trkpt lat="39.675774" lon="-8.133748">
<ele>416</ele>
<time>2026-05-08T03:54:58Z</time></trkpt>
<trkpt lat="39.675779" lon="-8.133432">
<ele>416</ele>
<time>2026-05-08T03:55:03Z</time></trkpt>
<trkpt lat="39.675806" lon="-8.133185">
<ele>416</ele>
<time>2026-05-08T03:55:06Z</time></trkpt>
<trkpt lat="39.675928" lon="-8.132699">
<ele>416</ele>
<time>2026-05-08T03:55:14Z</time></trkpt>
<trkpt lat="39.676044" lon="-8.132437">
<ele>416</ele>
<time>2026-05-08T03:55:19Z</time></trkpt>
<trkpt lat="39.676166" lon="-8.132206">
<ele>415</ele>
<time>2026-05-08T03:55:23Z</time></trkpt>
<trkpt lat="39.676605" lon="-8.13157">
<ele>413</ele>
<time>2026-05-08T03:55:36Z</time></trkpt>
<trkpt lat="39.677094" lon="-8.130811">
<ele>413</ele>
<time>2026-05-08T03:55:52Z</time></trkpt>
<trkpt lat="39.677307" lon="-8.130326">
<ele>414</ele>
<time>2026-05-08T03:56:00Z</time></trkpt>
<trkpt lat="39.677381" lon="-8.130092">
<ele>414</ele>
<time>2026-05-08T03:56:04Z</time></trkpt>
<trkpt lat="39.677479" lon="-8.129406">
<ele>415</ele>
<time>2026-05-08T03:56:15Z</time></trkpt>
<trkpt lat="39.677503" lon="-8.128408">
<ele>413</ele>
<time>2026-05-08T03:56:30Z</time></trkpt>
<trkpt lat="39.677507" lon="-8.127281">
<ele>413</ele>
<time>2026-05-08T03:56:48Z</time></trkpt>
<trkpt lat="39.677574" lon="-8.124529">
<ele>411</ele>
<time>2026-05-08T03:57:30Z</time></trkpt>
<trkpt lat="39.677597" lon="-8.124091">
<ele>412</ele>
<time>2026-05-08T03:57:37Z</time></trkpt>
<trkpt lat="39.677629" lon="-8.123875">
<ele>413</ele>
<time>2026-05-08T03:57:40Z</time></trkpt>
<trkpt lat="39.677619" lon="-8.123664">
<ele>414</ele>
<time>2026-05-08T03:57:44Z</time></trkpt>
<trkpt lat="39.677612" lon="-8.123617">
<ele>415</ele>
<time>2026-05-08T03:57:44Z</time></trkpt>
<trkpt lat="39.677626" lon="-8.123524">
<ele>415</ele>
<time>2026-05-08T03:57:46Z</time></trkpt>
<trkpt lat="39.677609" lon="-8.123253">
<ele>416</ele>
<time>2026-05-08T03:57:50Z</time></trkpt>
<trkpt lat="39.67762" lon="-8.123097">
<ele>415</ele>
<time>2026-05-08T03:57:52Z</time></trkpt>
<trkpt lat="39.677594" lon="-8.122653">
<ele>414</ele>
<time>2026-05-08T03:57:59Z</time></trkpt>
<trkpt lat="39.677275" lon="-8.12082">
<ele>414</ele>
<time>2026-05-08T03:58:28Z</time></trkpt>
<trkpt lat="39.677066" lon="-8.119719">
<ele>417</ele>
<time>2026-05-08T03:58:46Z</time></trkpt>
<trkpt lat="39.676588" lon="-8.11712">
<ele>423</ele>
<time>2026-05-08T03:59:27Z</time></trkpt>
<trkpt lat="39.676566" lon="-8.116947">
<ele>424</ele>
<time>2026-05-08T03:59:30Z</time></trkpt>
<trkpt lat="39.67647" lon="-8.116596">
<ele>423</ele>
<time>2026-05-08T03:59:35Z</time></trkpt>
<trkpt lat="39.676431" lon="-8.116508">
<ele>423</ele>
<time>2026-05-08T03:59:37Z</time></trkpt>
<trkpt lat="39.676433" lon="-8.116406">
<ele>424</ele>
<time>2026-05-08T03:59:39Z</time></trkpt>
<trkpt lat="39.676328" lon="-8.116083">
<ele>424</ele>
<time>2026-05-08T03:59:44Z</time></trkpt>
<trkpt lat="39.676043" lon="-8.115783">
<ele>422</ele>
<time>2026-05-08T03:59:51Z</time></trkpt>
<trkpt lat="39.674865" lon="-8.114637">
<ele>422</ele>
<time>2026-05-08T04:00:21Z</time></trkpt>
<trkpt lat="39.674651" lon="-8.114229">
<ele>421</ele>
<time>2026-05-08T04:00:28Z</time></trkpt>
<trkpt lat="39.674485" lon="-8.113435">
<ele>419</ele>
<time>2026-05-08T04:00:41Z</time></trkpt>
<trkpt lat="39.674469" lon="-8.112941">
<ele>420</ele>
<time>2026-05-08T04:00:49Z</time></trkpt>
<trkpt lat="39.674609" lon="-8.111354">
<ele>424</ele>
<time>2026-05-08T04:01:13Z</time></trkpt>
<trkpt lat="39.67456" lon="-8.110935">
<ele>424</ele>
<time>2026-05-08T04:01:20Z</time></trkpt>
<trkpt lat="39.674461" lon="-8.110656">
<ele>425</ele>
<time>2026-05-08T04:01:25Z</time></trkpt>
<trkpt lat="39.672546" lon="-8.107454">
<ele>422</ele>
<time>2026-05-08T04:02:27Z</time></trkpt>
<trkpt lat="39.672389" lon="-8.107139">
<ele>423</ele>
<time>2026-05-08T04:02:33Z</time></trkpt>
<trkpt lat="39.672151" lon="-8.10596">
<ele>425</ele>
<time>2026-05-08T04:02:52Z</time></trkpt>
<trkpt lat="39.672128" lon="-8.105732">
<ele>425</ele>
<time>2026-05-08T04:02:55Z</time></trkpt>
<trkpt lat="39.672165" lon="-8.105524">
<ele>425</ele>
<time>2026-05-08T04:02:59Z</time></trkpt>
<trkpt lat="39.672627" lon="-8.103693">
<ele>431</ele>
<time>2026-05-08T04:03:28Z</time></trkpt>
<trkpt lat="39.672743" lon="-8.103404">
<ele>431</ele>
<time>2026-05-08T04:03:33Z</time></trkpt>
<trkpt lat="39.673443" lon="-8.102231">
<ele>433</ele>
<time>2026-05-08T04:03:56Z</time></trkpt>
<trkpt lat="39.673494" lon="-8.102061">
<ele>434</ele>
<time>2026-05-08T04:03:59Z</time></trkpt>
<trkpt lat="39.673544" lon="-8.101068">
<ele>433</ele>
<time>2026-05-08T04:04:14Z</time></trkpt>
<trkpt lat="39.673583" lon="-8.100814">
<ele>433</ele>
<time>2026-05-08T04:04:18Z</time></trkpt>
<trkpt lat="39.673862" lon="-8.099749">
<ele>435</ele>
<time>2026-05-08T04:04:36Z</time></trkpt>
<trkpt lat="39.673908" lon="-8.099415">
<ele>436</ele>
<time>2026-05-08T04:04:41Z</time></trkpt>
<trkpt lat="39.673932" lon="-8.098533">
<ele>436</ele>
<time>2026-05-08T04:04:55Z</time></trkpt>
<trkpt lat="39.674007" lon="-8.098168">
<ele>437</ele>
<time>2026-05-08T04:05:00Z</time></trkpt>
<trkpt lat="39.674221" lon="-8.097428">
<ele>434</ele>
<time>2026-05-08T04:05:13Z</time></trkpt>
<trkpt lat="39.674246" lon="-8.097095">
<ele>432</ele>
<time>2026-05-08T04:05:18Z</time></trkpt>
<trkpt lat="39.674163" lon="-8.096773">
<ele>431</ele>
<time>2026-05-08T04:05:23Z</time></trkpt>
<trkpt lat="39.673565" lon="-8.095566">
<ele>435</ele>
<time>2026-05-08T04:05:45Z</time></trkpt>
<trkpt lat="39.673354" lon="-8.095185">
<ele>436</ele>
<time>2026-05-08T04:05:52Z</time></trkpt>
<trkpt lat="39.673238" lon="-8.09481">
<ele>440</ele>
<time>2026-05-08T04:05:59Z</time></trkpt>
<trkpt lat="39.673255" lon="-8.094531">
<ele>441</ele>
<time>2026-05-08T04:06:03Z</time></trkpt>
<trkpt lat="39.673379" lon="-8.093705">
<ele>444</ele>
<time>2026-05-08T04:06:16Z</time></trkpt>
<trkpt lat="39.673445" lon="-8.093093">
<ele>441</ele>
<time>2026-05-08T04:06:25Z</time></trkpt>
<trkpt lat="39.673346" lon="-8.092803">
<ele>440</ele>
<time>2026-05-08T04:06:30Z</time></trkpt>
<trkpt lat="39.672834" lon="-8.092278">
<ele>434</ele>
<time>2026-05-08T04:06:43Z</time></trkpt>
<trkpt lat="39.672627" lon="-8.092213">
<ele>433</ele>
<time>2026-05-08T04:06:48Z</time></trkpt>
<trkpt lat="39.672223" lon="-8.092267">
<ele>436</ele>
<time>2026-05-08T04:06:56Z</time></trkpt>
<trkpt lat="39.671959" lon="-8.092213">
<ele>436</ele>
<time>2026-05-08T04:07:01Z</time></trkpt>
<trkpt lat="39.670827" lon="-8.091537">
<ele>430</ele>
<time>2026-05-08T04:07:26Z</time></trkpt>
<trkpt lat="39.670507" lon="-8.091268">
<ele>423</ele>
<time>2026-05-08T04:07:34Z</time></trkpt>
<trkpt lat="39.670448" lon="-8.091187">
<ele>422</ele>
<time>2026-05-08T04:07:35Z</time></trkpt>
<trkpt lat="39.670348" lon="-8.090979">
<ele>419</ele>
<time>2026-05-08T04:07:39Z</time></trkpt>
<trkpt lat="39.670076" lon="-8.089896">
<ele>419</ele>
<time>2026-05-08T04:07:57Z</time></trkpt>
<trkpt lat="39.669869" lon="-8.08966">
<ele>420</ele>
<time>2026-05-08T04:08:02Z</time></trkpt>
<trkpt lat="39.669456" lon="-8.089263">
<ele>424</ele>
<time>2026-05-08T04:08:13Z</time></trkpt>
<trkpt lat="39.669308" lon="-8.088973">
<ele>427</ele>
<time>2026-05-08T04:08:18Z</time></trkpt>
<trkpt lat="39.669275" lon="-8.088705">
<ele>429</ele>
<time>2026-05-08T04:08:22Z</time></trkpt>
<trkpt lat="39.669283" lon="-8.088372">
<ele>430</ele>
<time>2026-05-08T04:08:27Z</time></trkpt>
<trkpt lat="39.669448" lon="-8.087664">
<ele>427</ele>
<time>2026-05-08T04:08:39Z</time></trkpt>
<trkpt lat="39.669489" lon="-8.087203">
<ele>426</ele>
<time>2026-05-08T04:08:46Z</time></trkpt>
<trkpt lat="39.66939" lon="-8.086548">
<ele>429</ele>
<time>2026-05-08T04:08:56Z</time></trkpt>
<trkpt lat="39.669423" lon="-8.086119">
<ele>427</ele>
<time>2026-05-08T04:09:03Z</time></trkpt>
<trkpt lat="39.669555" lon="-8.085808">
<ele>424</ele>
<time>2026-05-08T04:09:08Z</time></trkpt>
<trkpt lat="39.670142" lon="-8.084639">
<ele>427</ele>
<time>2026-05-08T04:09:30Z</time></trkpt>
<trkpt lat="39.670398" lon="-8.08362">
<ele>426</ele>
<time>2026-05-08T04:09:46Z</time></trkpt>
<trkpt lat="39.670398" lon="-8.083265">
<ele>426</ele>
<time>2026-05-08T04:09:52Z</time></trkpt>
<trkpt lat="39.670348" lon="-8.082868">
<ele>426</ele>
<time>2026-05-08T04:09:58Z</time></trkpt>
<trkpt lat="39.66963" lon="-8.08098">
<ele>421</ele>
<time>2026-05-08T04:10:31Z</time></trkpt>
<trkpt lat="39.669539" lon="-8.080605">
<ele>421</ele>
<time>2026-05-08T04:10:37Z</time></trkpt>
<trkpt lat="39.669309" lon="-8.07941">
<ele>424</ele>
<time>2026-05-08T04:10:56Z</time></trkpt>
<trkpt lat="39.668871" lon="-8.076956">
<ele>434</ele>
<time>2026-05-08T04:11:34Z</time></trkpt>
<trkpt lat="39.668842" lon="-8.076738">
<ele>434</ele>
<time>2026-05-08T04:11:38Z</time></trkpt>
<trkpt lat="39.668837" lon="-8.076528">
<ele>433</ele>
<time>2026-05-08T04:11:41Z</time></trkpt>
<trkpt lat="39.66904" lon="-8.075472">
<ele>432</ele>
<time>2026-05-08T04:11:58Z</time></trkpt>
<trkpt lat="39.669053" lon="-8.075248">
<ele>431</ele>
<time>2026-05-08T04:12:01Z</time></trkpt>
<trkpt lat="39.669035" lon="-8.075058">
<ele>430</ele>
<time>2026-05-08T04:12:04Z</time></trkpt>
<trkpt lat="39.668579" lon="-8.073608">
<ele>428</ele>
<time>2026-05-08T04:12:29Z</time></trkpt>
<trkpt lat="39.668474" lon="-8.073341">
<ele>428</ele>
<time>2026-05-08T04:12:33Z</time></trkpt>
<trkpt lat="39.66792" lon="-8.072289">
<ele>426</ele>
<time>2026-05-08T04:12:53Z</time></trkpt>
<trkpt lat="39.667078" lon="-8.070251">
<ele>427</ele>
<time>2026-05-08T04:13:28Z</time></trkpt>
<trkpt lat="39.666814" lon="-8.069972">
<ele>424</ele>
<time>2026-05-08T04:13:35Z</time></trkpt>
<trkpt lat="39.665872" lon="-8.069092">
<ele>411</ele>
<time>2026-05-08T04:13:59Z</time></trkpt>
<trkpt lat="39.665798" lon="-8.068893">
<ele>409</ele>
<time>2026-05-08T04:14:02Z</time></trkpt>
<trkpt lat="39.6658" lon="-8.068674">
<ele>408</ele>
<time>2026-05-08T04:14:05Z</time></trkpt>
<trkpt lat="39.665889" lon="-8.06833">
<ele>410</ele>
<time>2026-05-08T04:14:11Z</time></trkpt>
<trkpt lat="39.666043" lon="-8.067914">
<ele>413</ele>
<time>2026-05-08T04:14:18Z</time></trkpt>
<trkpt lat="39.666087" lon="-8.067654">
<ele>413</ele>
<time>2026-05-08T04:14:22Z</time></trkpt>
<trkpt lat="39.66602" lon="-8.067385">
<ele>413</ele>
<time>2026-05-08T04:14:27Z</time></trkpt>
<trkpt lat="39.665856" lon="-8.067204">
<ele>411</ele>
<time>2026-05-08T04:14:31Z</time></trkpt>
<trkpt lat="39.665525" lon="-8.066989">
<ele>407</ele>
<time>2026-05-08T04:14:38Z</time></trkpt>
<trkpt lat="39.665246" lon="-8.066732">
<ele>403</ele>
<time>2026-05-08T04:14:45Z</time></trkpt>
<trkpt lat="39.665117" lon="-8.066217">
<ele>406</ele>
<time>2026-05-08T04:14:53Z</time></trkpt>
<trkpt lat="39.664897" lon="-8.065745">
<ele>405</ele>
<time>2026-05-08T04:15:02Z</time></trkpt>
<trkpt lat="39.664716" lon="-8.065509">
<ele>405</ele>
<time>2026-05-08T04:15:07Z</time></trkpt>
<trkpt lat="39.663023" lon="-8.064522">
<ele>393</ele>
<time>2026-05-08T04:15:44Z</time></trkpt>
<trkpt lat="39.662854" lon="-8.064399">
<ele>392</ele>
<time>2026-05-08T04:15:48Z</time></trkpt>
<trkpt lat="39.662726" lon="-8.064272">
<ele>391</ele>
<time>2026-05-08T04:15:51Z</time></trkpt>
<trkpt lat="39.662549" lon="-8.064195">
<ele>389</ele>
<time>2026-05-08T04:15:55Z</time></trkpt>
<trkpt lat="39.662406" lon="-8.064163">
<ele>388</ele>
<time>2026-05-08T04:15:58Z</time></trkpt>
<trkpt lat="39.662139" lon="-8.064286">
<ele>386</ele>
<time>2026-05-08T04:16:04Z</time></trkpt>
<trkpt lat="39.661845" lon="-8.064623">
<ele>387</ele>
<time>2026-05-08T04:16:12Z</time></trkpt>
<trkpt lat="39.66168" lon="-8.064897">
<ele>390</ele>
<time>2026-05-08T04:16:17Z</time></trkpt>
<trkpt lat="39.66147" lon="-8.065327">
<ele>391</ele>
<time>2026-05-08T04:16:25Z</time></trkpt>
<trkpt lat="39.661346" lon="-8.065949">
<ele>395</ele>
<time>2026-05-08T04:16:35Z</time></trkpt>
<trkpt lat="39.661247" lon="-8.066775">
<ele>399</ele>
<time>2026-05-08T04:16:48Z</time></trkpt>
<trkpt lat="39.661107" lon="-8.067237">
<ele>397</ele>
<time>2026-05-08T04:16:55Z</time></trkpt>
<trkpt lat="39.660875" lon="-8.067473">
<ele>399</ele>
<time>2026-05-08T04:17:01Z</time></trkpt>
<trkpt lat="39.660545" lon="-8.067655">
<ele>400</ele>
<time>2026-05-08T04:17:08Z</time></trkpt>
<trkpt lat="39.658133" lon="-8.067301">
<ele>408</ele>
<time>2026-05-08T04:17:57Z</time></trkpt>
<trkpt lat="39.657662" lon="-8.067344">
<ele>405</ele>
<time>2026-05-08T04:18:06Z</time></trkpt>
<trkpt lat="39.656902" lon="-8.067183">
<ele>401</ele>
<time>2026-05-08T04:18:22Z</time></trkpt>
<trkpt lat="39.656754" lon="-8.067097">
<ele>400</ele>
<time>2026-05-08T04:18:25Z</time></trkpt>
<trkpt lat="39.654069" lon="-8.063052">
<ele>379</ele>
<time>2026-05-08T04:19:48Z</time></trkpt>
<trkpt lat="39.653689" lon="-8.062216">
<ele>378</ele>
<time>2026-05-08T04:20:02Z</time></trkpt>
<trkpt lat="39.653194" lon="-8.060553">
<ele>375</ele>
<time>2026-05-08T04:20:30Z</time></trkpt>
<trkpt lat="39.653185" lon="-8.059029">
<ele>375</ele>
<time>2026-05-08T04:20:53Z</time></trkpt>
<trkpt lat="39.653119" lon="-8.058578">
<ele>377</ele>
<time>2026-05-08T04:21:01Z</time></trkpt>
<trkpt lat="39.652838" lon="-8.057956">
<ele>375</ele>
<time>2026-05-08T04:21:12Z</time></trkpt>
<trkpt lat="39.652731" lon="-8.057473">
<ele>376</ele>
<time>2026-05-08T04:21:19Z</time></trkpt>
<trkpt lat="39.652602" lon="-8.055296">
<ele>375</ele>
<time>2026-05-08T04:21:53Z</time></trkpt>
<trkpt lat="39.652558" lon="-8.054453">
<ele>374</ele>
<time>2026-05-08T04:22:06Z</time></trkpt>
<trkpt lat="39.652467" lon="-8.051669">
<ele>382</ele>
<time>2026-05-08T04:22:49Z</time></trkpt>
<trkpt lat="39.652235" lon="-8.051176">
<ele>379</ele>
<time>2026-05-08T04:22:58Z</time></trkpt>
<trkpt lat="39.651946" lon="-8.050242">
<ele>378</ele>
<time>2026-05-08T04:23:14Z</time></trkpt>
<trkpt lat="39.651801" lon="-8.04924">
<ele>374</ele>
<time>2026-05-08T04:23:29Z</time></trkpt>
<trkpt lat="39.651814" lon="-8.048858">
<ele>377</ele>
<time>2026-05-08T04:23:35Z</time></trkpt>
<trkpt lat="39.651748" lon="-8.048536">
<ele>377</ele>
<time>2026-05-08T04:23:40Z</time></trkpt>
<trkpt lat="39.65155" lon="-8.048139">
<ele>375</ele>
<time>2026-05-08T04:23:48Z</time></trkpt>
<trkpt lat="39.651459" lon="-8.047796">
<ele>376</ele>
<time>2026-05-08T04:23:53Z</time></trkpt>
<trkpt lat="39.651418" lon="-8.047463">
<ele>378</ele>
<time>2026-05-08T04:23:58Z</time></trkpt>
<trkpt lat="39.651401" lon="-8.045843">
<ele>382</ele>
<time>2026-05-08T04:24:23Z</time></trkpt>
<trkpt lat="39.65136" lon="-8.045436">
<ele>383</ele>
<time>2026-05-08T04:24:30Z</time></trkpt>
<trkpt lat="39.650971" lon="-8.04418">
<ele>378</ele>
<time>2026-05-08T04:24:51Z</time></trkpt>
<trkpt lat="39.650953" lon="-8.043783">
<ele>381</ele>
<time>2026-05-08T04:24:57Z</time></trkpt>
<trkpt lat="39.650876" lon="-8.043502">
<ele>382</ele>
<time>2026-05-08T04:25:01Z</time></trkpt>
<trkpt lat="39.650555" lon="-8.042884">
<ele>380</ele>
<time>2026-05-08T04:25:13Z</time></trkpt>
<trkpt lat="39.650466" lon="-8.042568">
<ele>380</ele>
<time>2026-05-08T04:25:18Z</time></trkpt>
<trkpt lat="39.650517" lon="-8.041734">
<ele>382</ele>
<time>2026-05-08T04:25:31Z</time></trkpt>
<trkpt lat="39.650294" lon="-8.041241">
<ele>380</ele>
<time>2026-05-08T04:25:40Z</time></trkpt>
<trkpt lat="39.650154" lon="-8.040779">
<ele>380</ele>
<time>2026-05-08T04:25:48Z</time></trkpt>
<trkpt lat="39.650079" lon="-8.040071">
<ele>380</ele>
<time>2026-05-08T04:25:59Z</time></trkpt>
<trkpt lat="39.650112" lon="-8.038966">
<ele>382</ele>
<time>2026-05-08T04:26:16Z</time></trkpt>
<trkpt lat="39.650079" lon="-8.038516">
<ele>382</ele>
<time>2026-05-08T04:26:23Z</time></trkpt>
<trkpt lat="39.649592" lon="-8.036681">
<ele>382</ele>
<time>2026-05-08T04:26:53Z</time></trkpt>
<trkpt lat="39.649394" lon="-8.036413">
<ele>382</ele>
<time>2026-05-08T04:26:58Z</time></trkpt>
<trkpt lat="39.648981" lon="-8.036295">
<ele>377</ele>
<time>2026-05-08T04:27:07Z</time></trkpt>
<trkpt lat="39.64884" lon="-8.036166">
<ele>376</ele>
<time>2026-05-08T04:27:10Z</time></trkpt>
<trkpt lat="39.648386" lon="-8.035275">
<ele>374</ele>
<time>2026-05-08T04:27:27Z</time></trkpt>
<trkpt lat="39.648287" lon="-8.034514">
<ele>376</ele>
<time>2026-05-08T04:27:39Z</time></trkpt>
<trkpt lat="39.648047" lon="-8.033773">
<ele>376</ele>
<time>2026-05-08T04:27:51Z</time></trkpt>
<trkpt lat="39.647832" lon="-8.032776">
<ele>377</ele>
<time>2026-05-08T04:28:07Z</time></trkpt>
<trkpt lat="39.647708" lon="-8.032434">
<ele>377</ele>
<time>2026-05-08T04:28:13Z</time></trkpt>
<trkpt lat="39.647045" lon="-8.031101">
<ele>381</ele>
<time>2026-05-08T04:28:37Z</time></trkpt>
<trkpt lat="39.646874" lon="-8.030898">
<ele>382</ele>
<time>2026-05-08T04:28:42Z</time></trkpt>
<trkpt lat="39.646147" lon="-8.030726">
<ele>380</ele>
<time>2026-05-08T04:28:57Z</time></trkpt>
<trkpt lat="39.645643" lon="-8.030887">
<ele>377</ele>
<time>2026-05-08T04:29:07Z</time></trkpt>
<trkpt lat="39.645337" lon="-8.031123">
<ele>376</ele>
<time>2026-05-08T04:29:14Z</time></trkpt>
<trkpt lat="39.645106" lon="-8.031188">
<ele>374</ele>
<time>2026-05-08T04:29:19Z</time></trkpt>
<trkpt lat="39.643777" lon="-8.031184">
<ele>367</ele>
<time>2026-05-08T04:29:46Z</time></trkpt>
<trkpt lat="39.64365" lon="-8.031159">
<ele>367</ele>
<time>2026-05-08T04:29:48Z</time></trkpt>
<trkpt lat="39.643514" lon="-8.031146">
<ele>367</ele>
<time>2026-05-08T04:29:51Z</time></trkpt>
<trkpt lat="39.643397" lon="-8.031187">
<ele>367</ele>
<time>2026-05-08T04:29:53Z</time></trkpt>
<trkpt lat="39.643297" lon="-8.031008">
<ele>369</ele>
<time>2026-05-08T04:29:57Z</time></trkpt>
<trkpt lat="39.643359" lon="-8.030771">
<ele>370</ele>
<time>2026-05-08T04:30:01Z</time></trkpt>
<trkpt lat="39.643402" lon="-8.030591">
<ele>372</ele>
<time>2026-05-08T04:30:04Z</time></trkpt>
<trkpt lat="39.643452" lon="-8.030463">
<ele>373</ele>
<time>2026-05-08T04:30:06Z</time></trkpt>
<trkpt lat="39.643607" lon="-8.030144">
<ele>375</ele>
<time>2026-05-08T04:30:12Z</time></trkpt>
<trkpt lat="39.643652" lon="-8.029966">
<ele>376</ele>
<time>2026-05-08T04:30:14Z</time></trkpt>
<trkpt lat="39.643663" lon="-8.029801">
<ele>377</ele>
<time>2026-05-08T04:30:17Z</time></trkpt>
<trkpt lat="39.643439" lon="-8.027819">
<ele>380</ele>
<time>2026-05-08T04:30:48Z</time></trkpt>
<trkpt lat="39.643156" lon="-8.02636">
<ele>384</ele>
<time>2026-05-08T04:31:11Z</time></trkpt>
<trkpt lat="39.643097" lon="-8.025874">
<ele>385</ele>
<time>2026-05-08T04:31:19Z</time></trkpt>
<trkpt lat="39.642789" lon="-8.020363">
<ele>400</ele>
<time>2026-05-08T04:32:44Z</time></trkpt>
<trkpt lat="39.642799" lon="-8.020136">
<ele>401</ele>
<time>2026-05-08T04:32:47Z</time></trkpt>
<trkpt lat="39.642833" lon="-8.019934">
<ele>401</ele>
<time>2026-05-08T04:32:51Z</time></trkpt>
<trkpt lat="39.642897" lon="-8.019732">
<ele>402</ele>
<time>2026-05-08T04:32:54Z</time></trkpt>
<trkpt lat="39.64397" lon="-8.01711">
<ele>401</ele>
<time>2026-05-08T04:33:40Z</time></trkpt>
<trkpt lat="39.644021" lon="-8.01691">
<ele>401</ele>
<time>2026-05-08T04:33:43Z</time></trkpt>
<trkpt lat="39.644025" lon="-8.016604">
<ele>401</ele>
<time>2026-05-08T04:33:48Z</time></trkpt>
<trkpt lat="39.643966" lon="-8.016165">
<ele>402</ele>
<time>2026-05-08T04:33:55Z</time></trkpt>
<trkpt lat="39.641945" lon="-8.00482">
<ele>411</ele>
<time>2026-05-08T04:36:54Z</time></trkpt>
<trkpt lat="39.641342" lon="-8.001459">
<ele>409</ele>
<time>2026-05-08T04:37:48Z</time></trkpt>
<trkpt lat="39.641304" lon="-8.001164">
<ele>409</ele>
<time>2026-05-08T04:37:52Z</time></trkpt>
<trkpt lat="39.641333" lon="-8.000861">
<ele>411</ele>
<time>2026-05-08T04:37:57Z</time></trkpt>
<trkpt lat="39.641492" lon="-8.000212">
<ele>414</ele>
<time>2026-05-08T04:38:07Z</time></trkpt>
<trkpt lat="39.641565" lon="-7.999561">
<ele>419</ele>
<time>2026-05-08T04:38:18Z</time></trkpt>
<trkpt lat="39.641536" lon="-7.99868">
<ele>417</ele>
<time>2026-05-08T04:38:31Z</time></trkpt>
<trkpt lat="39.641788" lon="-7.995812">
<ele>427</ele>
<time>2026-05-08T04:39:16Z</time></trkpt>
<trkpt lat="39.641819" lon="-7.995333">
<ele>430</ele>
<time>2026-05-08T04:39:23Z</time></trkpt>
<trkpt lat="39.641763" lon="-7.992292">
<ele>435</ele>
<time>2026-05-08T04:40:10Z</time></trkpt>
<trkpt lat="39.641777" lon="-7.991999">
<ele>435</ele>
<time>2026-05-08T04:40:15Z</time></trkpt>
<trkpt lat="39.641837" lon="-7.991669">
<ele>437</ele>
<time>2026-05-08T04:40:20Z</time></trkpt>
<trkpt lat="39.642023" lon="-7.99088">
<ele>437</ele>
<time>2026-05-08T04:40:33Z</time></trkpt>
<trkpt lat="39.642044" lon="-7.990658">
<ele>437</ele>
<time>2026-05-08T04:40:36Z</time></trkpt>
<trkpt lat="39.642049" lon="-7.989798">
<ele>433</ele>
<time>2026-05-08T04:40:49Z</time></trkpt>
<trkpt lat="39.642088" lon="-7.98943">
<ele>434</ele>
<time>2026-05-08T04:40:55Z</time></trkpt>
<trkpt lat="39.642236" lon="-7.988612">
<ele>433</ele>
<time>2026-05-08T04:41:08Z</time></trkpt>
<trkpt lat="39.64227" lon="-7.988301">
<ele>432</ele>
<time>2026-05-08T04:41:13Z</time></trkpt>
<trkpt lat="39.642284" lon="-7.985207">
<ele>426</ele>
<time>2026-05-08T04:42:01Z</time></trkpt>
<trkpt lat="39.642308" lon="-7.984959">
<ele>426</ele>
<time>2026-05-08T04:42:04Z</time></trkpt>
<trkpt lat="39.642465" lon="-7.984063">
<ele>424</ele>
<time>2026-05-08T04:42:19Z</time></trkpt>
<trkpt lat="39.642471" lon="-7.983886">
<ele>424</ele>
<time>2026-05-08T04:42:21Z</time></trkpt>
<trkpt lat="39.642385" lon="-7.983198">
<ele>419</ele>
<time>2026-05-08T04:42:32Z</time></trkpt>
<trkpt lat="39.642403" lon="-7.982946">
<ele>418</ele>
<time>2026-05-08T04:42:36Z</time></trkpt>
<trkpt lat="39.642479" lon="-7.98271">
<ele>417</ele>
<time>2026-05-08T04:42:40Z</time></trkpt>
<trkpt lat="39.642719" lon="-7.982238">
<ele>419</ele>
<time>2026-05-08T04:42:49Z</time></trkpt>
<trkpt lat="39.642895" lon="-7.981933">
<ele>419</ele>
<time>2026-05-08T04:42:55Z</time></trkpt>
<trkpt lat="39.643272" lon="-7.981476">
<ele>420</ele>
<time>2026-05-08T04:43:05Z</time></trkpt>
<trkpt lat="39.643802" lon="-7.98076">
<ele>415</ele>
<time>2026-05-08T04:43:20Z</time></trkpt>
<trkpt lat="39.644684" lon="-7.980072">
<ele>421</ele>
<time>2026-05-08T04:43:41Z</time></trkpt>
<trkpt lat="39.644849" lon="-7.97998">
<ele>421</ele>
<time>2026-05-08T04:43:44Z</time></trkpt>
<trkpt lat="39.644972" lon="-7.979969">
<ele>422</ele>
<time>2026-05-08T04:43:47Z</time></trkpt>
<trkpt lat="39.645082" lon="-7.979987">
<ele>422</ele>
<time>2026-05-08T04:43:49Z</time></trkpt>
<trkpt lat="39.645168" lon="-7.98004">
<ele>422</ele>
<time>2026-05-08T04:43:51Z</time></trkpt>
<trkpt lat="39.64524" lon="-7.980121">
<ele>421</ele>
<time>2026-05-08T04:43:53Z</time></trkpt>
<trkpt lat="39.645295" lon="-7.980208">
<ele>421</ele>
<time>2026-05-08T04:43:55Z</time></trkpt>
<trkpt lat="39.645967" lon="-7.981582">
<ele>426</ele>
<time>2026-05-08T04:44:20Z</time></trkpt>
<trkpt lat="39.646036" lon="-7.981827">
<ele>427</ele>
<time>2026-05-08T04:44:24Z</time></trkpt>
<trkpt lat="39.646147" lon="-7.982796">
<ele>429</ele>
<time>2026-05-08T04:44:39Z</time></trkpt>
<trkpt lat="39.646186" lon="-7.982978">
<ele>429</ele>
<time>2026-05-08T04:44:42Z</time></trkpt>
<trkpt lat="39.646257" lon="-7.983159">
<ele>430</ele>
<time>2026-05-08T04:44:45Z</time></trkpt>
<trkpt lat="39.646739" lon="-7.983862">
<ele>429</ele>
<time>2026-05-08T04:45:00Z</time></trkpt>
<trkpt lat="39.646874" lon="-7.984154">
<ele>430</ele>
<time>2026-05-08T04:45:05Z</time></trkpt>
<trkpt lat="39.646937" lon="-7.984475">
<ele>428</ele>
<time>2026-05-08T04:45:10Z</time></trkpt>
<trkpt lat="39.646926" lon="-7.984658">
<ele>428</ele>
<time>2026-05-08T04:45:13Z</time></trkpt>
<trkpt lat="39.64686" lon="-7.984809">
<ele>428</ele>
<time>2026-05-08T04:45:15Z</time></trkpt>
<trkpt lat="39.646671" lon="-7.98501">
<ele>431</ele>
<time>2026-05-08T04:45:20Z</time></trkpt>
<trkpt lat="39.646609" lon="-7.985143">
<ele>430</ele>
<time>2026-05-08T04:45:23Z</time></trkpt>
<trkpt lat="39.646599" lon="-7.985291">
<ele>429</ele>
<time>2026-05-08T04:45:25Z</time></trkpt>
<trkpt lat="39.646645" lon="-7.985711">
<ele>423</ele>
<time>2026-05-08T04:45:32Z</time></trkpt>
<trkpt lat="39.646649" lon="-7.985869">
<ele>421</ele>
<time>2026-05-08T04:45:34Z</time></trkpt>
<trkpt lat="39.646629" lon="-7.986034">
<ele>421</ele>
<time>2026-05-08T04:45:37Z</time></trkpt>
<trkpt lat="39.646236" lon="-7.987683">
<ele>421</ele>
<time>2026-05-08T04:46:03Z</time></trkpt>
<trkpt lat="39.646088" lon="-7.988665">
<ele>420</ele>
<time>2026-05-08T04:46:19Z</time></trkpt>
<trkpt lat="39.646047" lon="-7.98928">
<ele>416</ele>
<time>2026-05-08T04:46:28Z</time></trkpt>
<trkpt lat="39.646059" lon="-7.99006">
<ele>406</ele>
<time>2026-05-08T04:46:40Z</time></trkpt>
<trkpt lat="39.646048" lon="-7.990199">
<ele>406</ele>
<time>2026-05-08T04:46:42Z</time></trkpt>
<trkpt lat="39.645962" lon="-7.990608">
<ele>406</ele>
<time>2026-05-08T04:46:49Z</time></trkpt>
<trkpt lat="39.645986" lon="-7.990918">
<ele>405</ele>
<time>2026-05-08T04:46:54Z</time></trkpt>
<trkpt lat="39.646033" lon="-7.991038">
<ele>404</ele>
<time>2026-05-08T04:46:56Z</time></trkpt>
<trkpt lat="39.646126" lon="-7.991132">
<ele>402</ele>
<time>2026-05-08T04:46:58Z</time></trkpt>
<trkpt lat="39.646249" lon="-7.99117">
<ele>400</ele>
<time>2026-05-08T04:47:01Z</time></trkpt>
<trkpt lat="39.646366" lon="-7.991147">
<ele>398</ele>
<time>2026-05-08T04:47:03Z</time></trkpt>
<trkpt lat="39.646429" lon="-7.991097">
<ele>396</ele>
<time>2026-05-08T04:47:05Z</time></trkpt>
<trkpt lat="39.646501" lon="-7.990955">
<ele>395</ele>
<time>2026-05-08T04:47:07Z</time></trkpt>
<trkpt lat="39.646751" lon="-7.990199">
<ele>392</ele>
<time>2026-05-08T04:47:20Z</time></trkpt>
<trkpt lat="39.646936" lon="-7.989602">
<ele>392</ele>
<time>2026-05-08T04:47:30Z</time></trkpt>
<trkpt lat="39.647057" lon="-7.989065">
<ele>393</ele>
<time>2026-05-08T04:47:38Z</time></trkpt>
<trkpt lat="39.647134" lon="-7.988933">
<ele>392</ele>
<time>2026-05-08T04:47:41Z</time></trkpt>
<trkpt lat="39.6473" lon="-7.988809">
<ele>390</ele>
<time>2026-05-08T04:47:45Z</time></trkpt>
<trkpt lat="39.648103" lon="-7.988338">
<ele>382</ele>
<time>2026-05-08T04:48:02Z</time></trkpt>
<trkpt lat="39.648464" lon="-7.988192">
<ele>381</ele>
<time>2026-05-08T04:48:10Z</time></trkpt>
<trkpt lat="39.649022" lon="-7.988064">
<ele>379</ele>
<time>2026-05-08T04:48:21Z</time></trkpt>
<trkpt lat="39.649232" lon="-7.988053">
<ele>378</ele>
<time>2026-05-08T04:48:26Z</time></trkpt>
<trkpt lat="39.649431" lon="-7.988112">
<ele>375</ele>
<time>2026-05-08T04:48:30Z</time></trkpt>
<trkpt lat="39.649621" lon="-7.988203">
<ele>373</ele>
<time>2026-05-08T04:48:34Z</time></trkpt>
<trkpt lat="39.649807" lon="-7.988396">
<ele>371</ele>
<time>2026-05-08T04:48:39Z</time></trkpt>
<trkpt lat="39.64994" lon="-7.988622">
<ele>369</ele>
<time>2026-05-08T04:48:43Z</time></trkpt>
<trkpt lat="39.650252" lon="-7.989288">
<ele>364</ele>
<time>2026-05-08T04:48:55Z</time></trkpt>
<trkpt lat="39.650496" lon="-7.989748">
<ele>361</ele>
<time>2026-05-08T04:49:04Z</time></trkpt>
<trkpt lat="39.650626" lon="-7.989912">
<ele>361</ele>
<time>2026-05-08T04:49:07Z</time></trkpt>
<trkpt lat="39.650754" lon="-7.989996">
<ele>361</ele>
<time>2026-05-08T04:49:10Z</time></trkpt>
<trkpt lat="39.650915" lon="-7.990012">
<ele>361</ele>
<time>2026-05-08T04:49:13Z</time></trkpt>
<trkpt lat="39.651502" lon="-7.989871">
<ele>354</ele>
<time>2026-05-08T04:49:25Z</time></trkpt>
<trkpt lat="39.651771" lon="-7.989664">
<ele>352</ele>
<time>2026-05-08T04:49:32Z</time></trkpt>
<trkpt lat="39.65186" lon="-7.989626">
<ele>353</ele>
<time>2026-05-08T04:49:33Z</time></trkpt>
<trkpt lat="39.652047" lon="-7.989639">
<ele>354</ele>
<time>2026-05-08T04:49:37Z</time></trkpt>
<trkpt lat="39.652158" lon="-7.989694">
<ele>355</ele>
<time>2026-05-08T04:49:40Z</time></trkpt>
<trkpt lat="39.652223" lon="-7.989775">
<ele>356</ele>
<time>2026-05-08T04:49:41Z</time></trkpt>
<trkpt lat="39.652373" lon="-7.99035">
<ele>355</ele>
<time>2026-05-08T04:49:51Z</time></trkpt>
<trkpt lat="39.652486" lon="-7.990548">
<ele>354</ele>
<time>2026-05-08T04:49:54Z</time></trkpt>
<trkpt lat="39.652987" lon="-7.991255">
<ele>358</ele>
<time>2026-05-08T04:50:09Z</time></trkpt>
<trkpt lat="39.653247" lon="-7.991508">
<ele>358</ele>
<time>2026-05-08T04:50:16Z</time></trkpt>
<trkpt lat="39.653842" lon="-7.991867">
<ele>361</ele>
<time>2026-05-08T04:50:29Z</time></trkpt>
<trkpt lat="39.653991" lon="-7.992006">
<ele>361</ele>
<time>2026-05-08T04:50:33Z</time></trkpt>
<trkpt lat="39.654165" lon="-7.992206">
<ele>359</ele>
<time>2026-05-08T04:50:37Z</time></trkpt>
<trkpt lat="39.655089" lon="-7.993482">
<ele>354</ele>
<time>2026-05-08T04:51:04Z</time></trkpt>
<trkpt lat="39.657416" lon="-7.995657">
<ele>349</ele>
<time>2026-05-08T04:52:02Z</time></trkpt>
<trkpt lat="39.657686" lon="-7.995757">
<ele>348</ele>
<time>2026-05-08T04:52:07Z</time></trkpt>
<trkpt lat="39.657955" lon="-7.9958">
<ele>346</ele>
<time>2026-05-08T04:52:13Z</time></trkpt>
<trkpt lat="39.658095" lon="-7.995766">
<ele>346</ele>
<time>2026-05-08T04:52:16Z</time></trkpt>
<trkpt lat="39.658197" lon="-7.995708">
<ele>346</ele>
<time>2026-05-08T04:52:18Z</time></trkpt>
<trkpt lat="39.658396" lon="-7.995506">
<ele>348</ele>
<time>2026-05-08T04:52:23Z</time></trkpt>
<trkpt lat="39.658535" lon="-7.995477">
<ele>349</ele>
<time>2026-05-08T04:52:26Z</time></trkpt>
<trkpt lat="39.658666" lon="-7.99552">
<ele>348</ele>
<time>2026-05-08T04:52:28Z</time></trkpt>
<trkpt lat="39.658784" lon="-7.995629">
<ele>347</ele>
<time>2026-05-08T04:52:31Z</time></trkpt>
<trkpt lat="39.658885" lon="-7.995813">
<ele>344</ele>
<time>2026-05-08T04:52:35Z</time></trkpt>
<trkpt lat="39.658975" lon="-7.995901">
<ele>343</ele>
<time>2026-05-08T04:52:37Z</time></trkpt>
<trkpt lat="39.659109" lon="-7.995962">
<ele>342</ele>
<time>2026-05-08T04:52:40Z</time></trkpt>
<trkpt lat="39.659507" lon="-7.995984">
<ele>342</ele>
<time>2026-05-08T04:52:48Z</time></trkpt>
<trkpt lat="39.659642" lon="-7.996004">
<ele>342</ele>
<time>2026-05-08T04:52:51Z</time></trkpt>
<trkpt lat="39.659744" lon="-7.996051">
<ele>342</ele>
<time>2026-05-08T04:52:53Z</time></trkpt>
<trkpt lat="39.660046" lon="-7.996266">
<ele>341</ele>
<time>2026-05-08T04:53:00Z</time></trkpt>
<trkpt lat="39.660168" lon="-7.996301">
<ele>339</ele>
<time>2026-05-08T04:53:02Z</time></trkpt>
<trkpt lat="39.660267" lon="-7.996275">
<ele>338</ele>
<time>2026-05-08T04:53:04Z</time></trkpt>
<trkpt lat="39.660367" lon="-7.996194">
<ele>337</ele>
<time>2026-05-08T04:53:07Z</time></trkpt>
<trkpt lat="39.660444" lon="-7.996074">
<ele>337</ele>
<time>2026-05-08T04:53:09Z</time></trkpt>
<trkpt lat="39.660541" lon="-7.995726">
<ele>339</ele>
<time>2026-05-08T04:53:15Z</time></trkpt>
<trkpt lat="39.660623" lon="-7.995547">
<ele>341</ele>
<time>2026-05-08T04:53:18Z</time></trkpt>
<trkpt lat="39.660768" lon="-7.995413">
<ele>341</ele>
<time>2026-05-08T04:53:22Z</time></trkpt>
<trkpt lat="39.6609" lon="-7.995375">
<ele>342</ele>
<time>2026-05-08T04:53:24Z</time></trkpt>
<trkpt lat="39.660999" lon="-7.995407">
<ele>341</ele>
<time>2026-05-08T04:53:26Z</time></trkpt>
<trkpt lat="39.661267" lon="-7.995767">
<ele>334</ele>
<time>2026-05-08T04:53:34Z</time></trkpt>
<trkpt lat="39.661528" lon="-7.995987">
<ele>332</ele>
<time>2026-05-08T04:53:40Z</time></trkpt>
<trkpt lat="39.661701" lon="-7.996062">
<ele>331</ele>
<time>2026-05-08T04:53:44Z</time></trkpt>
<trkpt lat="39.662061" lon="-7.996049">
<ele>332</ele>
<time>2026-05-08T04:53:51Z</time></trkpt>
<trkpt lat="39.662473" lon="-7.995998">
<ele>333</ele>
<time>2026-05-08T04:53:59Z</time></trkpt>
<trkpt lat="39.663318" lon="-7.995681">
<ele>336</ele>
<time>2026-05-08T04:54:17Z</time></trkpt>
<trkpt lat="39.663535" lon="-7.995557">
<ele>337</ele>
<time>2026-05-08T04:54:22Z</time></trkpt>
<trkpt lat="39.663711" lon="-7.995425">
<ele>339</ele>
<time>2026-05-08T04:54:26Z</time></trkpt>
<trkpt lat="39.663904" lon="-7.995225">
<ele>340</ele>
<time>2026-05-08T04:54:31Z</time></trkpt>
<trkpt lat="39.664031" lon="-7.995004">
<ele>341</ele>
<time>2026-05-08T04:54:35Z</time></trkpt>
<trkpt lat="39.664482" lon="-7.99364">
<ele>344</ele>
<time>2026-05-08T04:54:58Z</time></trkpt>
<trkpt lat="39.664622" lon="-7.993081">
<ele>342</ele>
<time>2026-05-08T04:55:07Z</time></trkpt>
<trkpt lat="39.664725" lon="-7.992838">
<ele>340</ele>
<time>2026-05-08T04:55:11Z</time></trkpt>
<trkpt lat="39.664859" lon="-7.992689">
<ele>338</ele>
<time>2026-05-08T04:55:15Z</time></trkpt>
<trkpt lat="39.66534" lon="-7.992262">
<ele>332</ele>
<time>2026-05-08T04:55:27Z</time></trkpt>
<trkpt lat="39.665447" lon="-7.992108">
<ele>331</ele>
<time>2026-05-08T04:55:30Z</time></trkpt>
<trkpt lat="39.665636" lon="-7.991654">
<ele>328</ele>
<time>2026-05-08T04:55:38Z</time></trkpt>
<trkpt lat="39.665803" lon="-7.991202">
<ele>325</ele>
<time>2026-05-08T04:55:45Z</time></trkpt>
<trkpt lat="39.66592" lon="-7.991008">
<ele>324</ele>
<time>2026-05-08T04:55:49Z</time></trkpt>
<trkpt lat="39.666236" lon="-7.990695">
<ele>323</ele>
<time>2026-05-08T04:55:57Z</time></trkpt>
<trkpt lat="39.666636" lon="-7.990271">
<ele>320</ele>
<time>2026-05-08T04:56:08Z</time></trkpt>
<trkpt lat="39.666739" lon="-7.990107">
<ele>319</ele>
<time>2026-05-08T04:56:11Z</time></trkpt>
<trkpt lat="39.666819" lon="-7.989838">
<ele>316</ele>
<time>2026-05-08T04:56:15Z</time></trkpt>
<trkpt lat="39.666914" lon="-7.989284">
<ele>313</ele>
<time>2026-05-08T04:56:24Z</time></trkpt>
<trkpt lat="39.666983" lon="-7.989099">
<ele>312</ele>
<time>2026-05-08T04:56:27Z</time></trkpt>
<trkpt lat="39.667491" lon="-7.988177">
<ele>312</ele>
<time>2026-05-08T04:56:45Z</time></trkpt>
<trkpt lat="39.667726" lon="-7.987736">
<ele>310</ele>
<time>2026-05-08T04:56:53Z</time></trkpt>
<trkpt lat="39.668094" lon="-7.987211">
<ele>309</ele>
<time>2026-05-08T04:57:04Z</time></trkpt>
<trkpt lat="39.668234" lon="-7.987066">
<ele>308</ele>
<time>2026-05-08T04:57:07Z</time></trkpt>
<trkpt lat="39.66855" lon="-7.986918">
<ele>308</ele>
<time>2026-05-08T04:57:14Z</time></trkpt>
<trkpt lat="39.668659" lon="-7.986921">
<ele>308</ele>
<time>2026-05-08T04:57:16Z</time></trkpt>
<trkpt lat="39.670662" lon="-7.987237">
<ele>299</ele>
<time>2026-05-08T04:57:57Z</time></trkpt>
<trkpt lat="39.670872" lon="-7.987211">
<ele>298</ele>
<time>2026-05-08T04:58:01Z</time></trkpt>
<trkpt lat="39.671814" lon="-7.986444">
<ele>292</ele>
<time>2026-05-08T04:58:23Z</time></trkpt>
<trkpt lat="39.67257" lon="-7.986047">
<ele>281</ele>
<time>2026-05-08T04:58:40Z</time></trkpt>
<trkpt lat="39.672623" lon="-7.985929">
<ele>279</ele>
<time>2026-05-08T04:58:42Z</time></trkpt>
<trkpt lat="39.672627" lon="-7.985746">
<ele>278</ele>
<time>2026-05-08T04:58:45Z</time></trkpt>
<trkpt lat="39.672499" lon="-7.985279">
<ele>280</ele>
<time>2026-05-08T04:58:52Z</time></trkpt>
<trkpt lat="39.672499" lon="-7.984899">
<ele>280</ele>
<time>2026-05-08T04:58:58Z</time></trkpt>
<trkpt lat="39.672665" lon="-7.984207">
<ele>274</ele>
<time>2026-05-08T04:59:09Z</time></trkpt>
<trkpt lat="39.67304" lon="-7.981809">
<ele>261</ele>
<time>2026-05-08T04:59:47Z</time></trkpt>
<trkpt lat="39.673102" lon="-7.981669">
<ele>260</ele>
<time>2026-05-08T04:59:50Z</time></trkpt>
<trkpt lat="39.673622" lon="-7.981047">
<ele>259</ele>
<time>2026-05-08T05:00:04Z</time></trkpt>
<trkpt lat="39.673854" lon="-7.980451">
<ele>259</ele>
<time>2026-05-08T05:00:14Z</time></trkpt>
<trkpt lat="39.673891" lon="-7.980097">
<ele>261</ele>
<time>2026-05-08T05:00:19Z</time></trkpt>
<trkpt lat="39.673858" lon="-7.979894">
<ele>261</ele>
<time>2026-05-08T05:00:23Z</time></trkpt>
<trkpt lat="39.673544" lon="-7.979255">
<ele>262</ele>
<time>2026-05-08T05:00:34Z</time></trkpt>
<trkpt lat="39.673474" lon="-7.978998">
<ele>261</ele>
<time>2026-05-08T05:00:39Z</time></trkpt>
<trkpt lat="39.673519" lon="-7.97881">
<ele>260</ele>
<time>2026-05-08T05:00:42Z</time></trkpt>
<trkpt lat="39.673633" lon="-7.978563">
<ele>258</ele>
<time>2026-05-08T05:00:46Z</time></trkpt>
<trkpt lat="39.673879" lon="-7.978229">
<ele>259</ele>
<time>2026-05-08T05:00:53Z</time></trkpt>
<trkpt lat="39.673949" lon="-7.978159">
<ele>260</ele>
<time>2026-05-08T05:00:55Z</time></trkpt>
<trkpt lat="39.67458" lon="-7.977989">
<ele>263</ele>
<time>2026-05-08T05:01:08Z</time></trkpt>
<trkpt lat="39.674746" lon="-7.977823">
<ele>264</ele>
<time>2026-05-08T05:01:12Z</time></trkpt>
<trkpt lat="39.674983" lon="-7.97736">
<ele>264</ele>
<time>2026-05-08T05:01:21Z</time></trkpt>
<trkpt lat="39.675298" lon="-7.977281">
<ele>265</ele>
<time>2026-05-08T05:01:27Z</time></trkpt>
<trkpt lat="39.675442" lon="-7.977234">
<ele>266</ele>
<time>2026-05-08T05:01:30Z</time></trkpt>
<trkpt lat="39.6761" lon="-7.977118">
<ele>267</ele>
<time>2026-05-08T05:01:43Z</time></trkpt>
<trkpt lat="39.676595" lon="-7.976902">
<ele>269</ele>
<time>2026-05-08T05:01:54Z</time></trkpt>
<trkpt lat="39.676925" lon="-7.976894">
<ele>270</ele>
<time>2026-05-08T05:02:00Z</time></trkpt>
<trkpt lat="39.67719" lon="-7.977008">
<ele>269</ele>
<time>2026-05-08T05:02:06Z</time></trkpt>
<trkpt lat="39.67875" lon="-7.977962">
<ele>273</ele>
<time>2026-05-08T05:02:41Z</time></trkpt>
<trkpt lat="39.678973" lon="-7.978011">
<ele>274</ele>
<time>2026-05-08T05:02:45Z</time></trkpt>
<trkpt lat="39.679262" lon="-7.977989">
<ele>275</ele>
<time>2026-05-08T05:02:51Z</time></trkpt>
<trkpt lat="39.679948" lon="-7.977584">
<ele>274</ele>
<time>2026-05-08T05:03:06Z</time></trkpt>
<trkpt lat="39.680041" lon="-7.977522">
<ele>274</ele>
<time>2026-05-08T05:03:08Z</time></trkpt>
<trkpt lat="39.680272" lon="-7.977249">
<ele>278</ele>
<time>2026-05-08T05:03:14Z</time></trkpt>
<trkpt lat="39.68048" lon="-7.976863">
<ele>280</ele>
<time>2026-05-08T05:03:22Z</time></trkpt>
<trkpt lat="39.680678" lon="-7.975897">
<ele>281</ele>
<time>2026-05-08T05:03:37Z</time></trkpt>
<trkpt lat="39.680691" lon="-7.975527">
<ele>282</ele>
<time>2026-05-08T05:03:43Z</time></trkpt>
<trkpt lat="39.680584" lon="-7.974486">
<ele>284</ele>
<time>2026-05-08T05:03:59Z</time></trkpt>
<trkpt lat="39.680678" lon="-7.973934">
<ele>284</ele>
<time>2026-05-08T05:04:08Z</time></trkpt>
<trkpt lat="39.680782" lon="-7.973698">
<ele>285</ele>
<time>2026-05-08T05:04:12Z</time></trkpt>
<trkpt lat="39.681157" lon="-7.973193">
<ele>288</ele>
<time>2026-05-08T05:04:23Z</time></trkpt>
<trkpt lat="39.681277" lon="-7.972877">
<ele>290</ele>
<time>2026-05-08T05:04:28Z</time></trkpt>
<trkpt lat="39.681455" lon="-7.971724">
<ele>290</ele>
<time>2026-05-08T05:04:46Z</time></trkpt>
<trkpt lat="39.681591" lon="-7.969551">
<ele>299</ele>
<time>2026-05-08T05:05:20Z</time></trkpt>
<trkpt lat="39.681302" lon="-7.96755">
<ele>307</ele>
<time>2026-05-08T05:05:51Z</time></trkpt>
<trkpt lat="39.681302" lon="-7.967309">
<ele>308</ele>
<time>2026-05-08T05:05:55Z</time></trkpt>
<trkpt lat="39.681636" lon="-7.966161">
<ele>308</ele>
<time>2026-05-08T05:06:14Z</time></trkpt>
<trkpt lat="39.682004" lon="-7.965281">
<ele>312</ele>
<time>2026-05-08T05:06:29Z</time></trkpt>
<trkpt lat="39.682122" lon="-7.964825">
<ele>312</ele>
<time>2026-05-08T05:06:37Z</time></trkpt>
<trkpt lat="39.682155" lon="-7.964687">
<ele>311</ele>
<time>2026-05-08T05:06:39Z</time></trkpt>
<trkpt lat="39.682722" lon="-7.961891">
<ele>305</ele>
<time>2026-05-08T05:07:24Z</time></trkpt>
<trkpt lat="39.682867" lon="-7.960769">
<ele>308</ele>
<time>2026-05-08T05:07:41Z</time></trkpt>
<trkpt lat="39.682912" lon="-7.95982">
<ele>304</ele>
<time>2026-05-08T05:07:56Z</time></trkpt>
<trkpt lat="39.68311" lon="-7.959031">
<ele>299</ele>
<time>2026-05-08T05:08:09Z</time></trkpt>
<trkpt lat="39.68382" lon="-7.956805">
<ele>303</ele>
<time>2026-05-08T05:08:46Z</time></trkpt>
<trkpt lat="39.684167" lon="-7.955308">
<ele>296</ele>
<time>2026-05-08T05:09:10Z</time></trkpt>
<trkpt lat="39.684295" lon="-7.954933">
<ele>294</ele>
<time>2026-05-08T05:09:16Z</time></trkpt>
<trkpt lat="39.684704" lon="-7.954348">
<ele>293</ele>
<time>2026-05-08T05:09:28Z</time></trkpt>
<trkpt lat="39.685108" lon="-7.953613">
<ele>289</ele>
<time>2026-05-08T05:09:42Z</time></trkpt>
<trkpt lat="39.685311" lon="-7.953114">
<ele>287</ele>
<time>2026-05-08T05:09:51Z</time></trkpt>
<trkpt lat="39.685447" lon="-7.952556">
<ele>282</ele>
<time>2026-05-08T05:10:00Z</time></trkpt>
<trkpt lat="39.685455" lon="-7.952342">
<ele>280</ele>
<time>2026-05-08T05:10:03Z</time></trkpt>
<trkpt lat="39.685426" lon="-7.952133">
<ele>277</ele>
<time>2026-05-08T05:10:07Z</time></trkpt>
<trkpt lat="39.685106" lon="-7.951354">
<ele>279</ele>
<time>2026-05-08T05:10:20Z</time></trkpt>
<trkpt lat="39.685088" lon="-7.951198">
<ele>281</ele>
<time>2026-05-08T05:10:23Z</time></trkpt>
<trkpt lat="39.685166" lon="-7.951067">
<ele>283</ele>
<time>2026-05-08T05:10:25Z</time></trkpt>
<trkpt lat="39.685498" lon="-7.950877">
<ele>280</ele>
<time>2026-05-08T05:10:32Z</time></trkpt>
<trkpt lat="39.686021" lon="-7.950416">
<ele>283</ele>
<time>2026-05-08T05:10:45Z</time></trkpt>
<trkpt lat="39.686139" lon="-7.950258">
<ele>284</ele>
<time>2026-05-08T05:10:49Z</time></trkpt>
<trkpt lat="39.686291" lon="-7.949831">
<ele>285</ele>
<time>2026-05-08T05:10:56Z</time></trkpt>
<trkpt lat="39.686449" lon="-7.949591">
<ele>281</ele>
<time>2026-05-08T05:11:01Z</time></trkpt>
<trkpt lat="39.686654" lon="-7.949382">
<ele>276</ele>
<time>2026-05-08T05:11:06Z</time></trkpt>
<trkpt lat="39.687015" lon="-7.949043">
<ele>284</ele>
<time>2026-05-08T05:11:15Z</time></trkpt>
<trkpt lat="39.687503" lon="-7.948099">
<ele>285</ele>
<time>2026-05-08T05:11:32Z</time></trkpt>
<trkpt lat="39.687969" lon="-7.947616">
<ele>290</ele>
<time>2026-05-08T05:11:44Z</time></trkpt>
<trkpt lat="39.688064" lon="-7.94745">
<ele>290</ele>
<time>2026-05-08T05:11:47Z</time></trkpt>
<trkpt lat="39.688436" lon="-7.946216">
<ele>289</ele>
<time>2026-05-08T05:12:08Z</time></trkpt>
<trkpt lat="39.688687" lon="-7.945663">
<ele>292</ele>
<time>2026-05-08T05:12:18Z</time></trkpt>
<trkpt lat="39.688753" lon="-7.945411">
<ele>292</ele>
<time>2026-05-08T05:12:22Z</time></trkpt>
<trkpt lat="39.688737" lon="-7.945277">
<ele>291</ele>
<time>2026-05-08T05:12:24Z</time></trkpt>
<trkpt lat="39.688436" lon="-7.944805">
<ele>288</ele>
<time>2026-05-08T05:12:33Z</time></trkpt>
<trkpt lat="39.688283" lon="-7.944279">
<ele>291</ele>
<time>2026-05-08T05:12:42Z</time></trkpt>
<trkpt lat="39.688287" lon="-7.943593">
<ele>291</ele>
<time>2026-05-08T05:12:53Z</time></trkpt>
<trkpt lat="39.688374" lon="-7.943394">
<ele>292</ele>
<time>2026-05-08T05:12:56Z</time></trkpt>
<trkpt lat="39.688861" lon="-7.942922">
<ele>296</ele>
<time>2026-05-08T05:13:08Z</time></trkpt>
<trkpt lat="39.689393" lon="-7.942005">
<ele>296</ele>
<time>2026-05-08T05:13:26Z</time></trkpt>
<trkpt lat="39.689542" lon="-7.941511">
<ele>295</ele>
<time>2026-05-08T05:13:34Z</time></trkpt>
<trkpt lat="39.689629" lon="-7.940647">
<ele>298</ele>
<time>2026-05-08T05:13:48Z</time></trkpt>
<trkpt lat="39.689773" lon="-7.939998">
<ele>297</ele>
<time>2026-05-08T05:13:58Z</time></trkpt>
<trkpt lat="39.690058" lon="-7.939623">
<ele>297</ele>
<time>2026-05-08T05:14:06Z</time></trkpt>
<trkpt lat="39.690202" lon="-7.939532">
<ele>297</ele>
<time>2026-05-08T05:14:09Z</time></trkpt>
<trkpt lat="39.690912" lon="-7.939285">
<ele>298</ele>
<time>2026-05-08T05:14:24Z</time></trkpt>
<trkpt lat="39.691404" lon="-7.938974">
<ele>303</ele>
<time>2026-05-08T05:14:35Z</time></trkpt>
<trkpt lat="39.691532" lon="-7.938818">
<ele>304</ele>
<time>2026-05-08T05:14:39Z</time></trkpt>
<trkpt lat="39.691804" lon="-7.938153">
<ele>304</ele>
<time>2026-05-08T05:14:50Z</time></trkpt>
<trkpt lat="39.691911" lon="-7.937997">
<ele>305</ele>
<time>2026-05-08T05:14:54Z</time></trkpt>
<trkpt lat="39.692597" lon="-7.937643">
<ele>304</ele>
<time>2026-05-08T05:15:08Z</time></trkpt>
<trkpt lat="39.693723" lon="-7.936839">
<ele>305</ele>
<time>2026-05-08T05:15:34Z</time></trkpt>
<trkpt lat="39.694491" lon="-7.936823">
<ele>312</ele>
<time>2026-05-08T05:15:49Z</time></trkpt>
<trkpt lat="39.694718" lon="-7.936748">
<ele>315</ele>
<time>2026-05-08T05:15:54Z</time></trkpt>
<trkpt lat="39.695531" lon="-7.935701">
<ele>315</ele>
<time>2026-05-08T05:16:17Z</time></trkpt>
<trkpt lat="39.696514" lon="-7.934859">
<ele>323</ele>
<time>2026-05-08T05:16:41Z</time></trkpt>
<trkpt lat="39.697054" lon="-7.934548">
<ele>326</ele>
<time>2026-05-08T05:16:52Z</time></trkpt>
<trkpt lat="39.697294" lon="-7.93435">
<ele>325</ele>
<time>2026-05-08T05:16:58Z</time></trkpt>
<trkpt lat="39.697768" lon="-7.933674">
<ele>325</ele>
<time>2026-05-08T05:17:12Z</time></trkpt>
<trkpt lat="39.697971" lon="-7.933475">
<ele>326</ele>
<time>2026-05-08T05:17:17Z</time></trkpt>
<trkpt lat="39.698247" lon="-7.933277">
<ele>327</ele>
<time>2026-05-08T05:17:24Z</time></trkpt>
<trkpt lat="39.69925" lon="-7.932976">
<ele>331</ele>
<time>2026-05-08T05:17:44Z</time></trkpt>
<trkpt lat="39.699502" lon="-7.93281">
<ele>335</ele>
<time>2026-05-08T05:17:50Z</time></trkpt>
<trkpt lat="39.701087" lon="-7.931002">
<ele>342</ele>
<time>2026-05-08T05:18:32Z</time></trkpt>
<trkpt lat="39.702106" lon="-7.930552">
<ele>347</ele>
<time>2026-05-08T05:18:54Z</time></trkpt>
<trkpt lat="39.702185" lon="-7.930407">
<ele>346</ele>
<time>2026-05-08T05:18:57Z</time></trkpt>
<trkpt lat="39.702333" lon="-7.929811">
<ele>344</ele>
<time>2026-05-08T05:19:06Z</time></trkpt>
<trkpt lat="39.702465" lon="-7.929602">
<ele>345</ele>
<time>2026-05-08T05:19:10Z</time></trkpt>
<trkpt lat="39.7063" lon="-7.926029">
<ele>370</ele>
<time>2026-05-08T05:20:45Z</time></trkpt>
<trkpt lat="39.709642" lon="-7.922859">
<ele>351</ele>
<time>2026-05-08T05:22:08Z</time></trkpt>
<trkpt lat="39.709828" lon="-7.922634">
<ele>349</ele>
<time>2026-05-08T05:22:13Z</time></trkpt>
<trkpt lat="39.710121" lon="-7.922427">
<ele>347</ele>
<time>2026-05-08T05:22:20Z</time></trkpt>
<trkpt lat="39.711471" lon="-7.922467">
<ele>357</ele>
<time>2026-05-08T05:22:47Z</time></trkpt>
<trkpt lat="39.711652" lon="-7.92251">
<ele>359</ele>
<time>2026-05-08T05:22:50Z</time></trkpt>
<trkpt lat="39.71317" lon="-7.923059">
<ele>372</ele>
<time>2026-05-08T05:23:22Z</time></trkpt>
<trkpt lat="39.713262" lon="-7.923078">
<ele>373</ele>
<time>2026-05-08T05:23:24Z</time></trkpt>
<trkpt lat="39.713427" lon="-7.923078">
<ele>375</ele>
<time>2026-05-08T05:23:27Z</time></trkpt>
<trkpt lat="39.714112" lon="-7.922821">
<ele>381</ele>
<time>2026-05-08T05:23:41Z</time></trkpt>
<trkpt lat="39.71422" lon="-7.922718">
<ele>381</ele>
<time>2026-05-08T05:23:44Z</time></trkpt>
<trkpt lat="39.714604" lon="-7.922196">
<ele>378</ele>
<time>2026-05-08T05:23:55Z</time></trkpt>
<trkpt lat="39.714838" lon="-7.921909">
<ele>378</ele>
<time>2026-05-08T05:24:02Z</time></trkpt>
<trkpt lat="39.714954" lon="-7.921887">
<ele>378</ele>
<time>2026-05-08T05:24:04Z</time></trkpt>
<trkpt lat="39.715053" lon="-7.921952">
<ele>377</ele>
<time>2026-05-08T05:24:06Z</time></trkpt>
<trkpt lat="39.715259" lon="-7.922316">
<ele>375</ele>
<time>2026-05-08T05:24:13Z</time></trkpt>
<trkpt lat="39.715432" lon="-7.922413">
<ele>375</ele>
<time>2026-05-08T05:24:17Z</time></trkpt>
<trkpt lat="39.71563" lon="-7.922413">
<ele>374</ele>
<time>2026-05-08T05:24:21Z</time></trkpt>
<trkpt lat="39.715944" lon="-7.922231">
<ele>372</ele>
<time>2026-05-08T05:24:28Z</time></trkpt>
<trkpt lat="39.716084" lon="-7.922188">
<ele>372</ele>
<time>2026-05-08T05:24:31Z</time></trkpt>
<trkpt lat="39.71672" lon="-7.92222">
<ele>368</ele>
<time>2026-05-08T05:24:43Z</time></trkpt>
<trkpt lat="39.716827" lon="-7.922177">
<ele>366</ele>
<time>2026-05-08T05:24:46Z</time></trkpt>
<trkpt lat="39.717" lon="-7.921984">
<ele>362</ele>
<time>2026-05-08T05:24:50Z</time></trkpt>
<trkpt lat="39.717413" lon="-7.921812">
<ele>355</ele>
<time>2026-05-08T05:24:59Z</time></trkpt>
<trkpt lat="39.717553" lon="-7.921834">
<ele>353</ele>
<time>2026-05-08T05:25:02Z</time></trkpt>
<trkpt lat="39.717784" lon="-7.921952">
<ele>353</ele>
<time>2026-05-08T05:25:07Z</time></trkpt>
<trkpt lat="39.7179" lon="-7.922091">
<ele>352</ele>
<time>2026-05-08T05:25:10Z</time></trkpt>
<trkpt lat="39.717958" lon="-7.922284">
<ele>352</ele>
<time>2026-05-08T05:25:13Z</time></trkpt>
<trkpt lat="39.718147" lon="-7.923635">
<ele>357</ele>
<time>2026-05-08T05:25:34Z</time></trkpt>
<trkpt lat="39.718469" lon="-7.924666">
<ele>364</ele>
<time>2026-05-08T05:25:51Z</time></trkpt>
<trkpt lat="39.718544" lon="-7.925439">
<ele>368</ele>
<time>2026-05-08T05:26:03Z</time></trkpt>
<trkpt lat="39.7187" lon="-7.926061">
<ele>370</ele>
<time>2026-05-08T05:26:13Z</time></trkpt>
<trkpt lat="39.718783" lon="-7.926168">
<ele>372</ele>
<time>2026-05-08T05:26:16Z</time></trkpt>
<trkpt lat="39.719014" lon="-7.92635">
<ele>375</ele>
<time>2026-05-08T05:26:21Z</time></trkpt>
<trkpt lat="39.71922" lon="-7.926436">
<ele>378</ele>
<time>2026-05-08T05:26:26Z</time></trkpt>
<trkpt lat="39.719336" lon="-7.926426">
<ele>380</ele>
<time>2026-05-08T05:26:28Z</time></trkpt>
<trkpt lat="39.719683" lon="-7.92634">
<ele>384</ele>
<time>2026-05-08T05:26:35Z</time></trkpt>
<trkpt lat="39.719798" lon="-7.926361">
<ele>386</ele>
<time>2026-05-08T05:26:37Z</time></trkpt>
<trkpt lat="39.720582" lon="-7.926147">
<ele>394</ele>
<time>2026-05-08T05:26:53Z</time></trkpt>
<trkpt lat="39.720698" lon="-7.92605">
<ele>395</ele>
<time>2026-05-08T05:26:56Z</time></trkpt>
<trkpt lat="39.720854" lon="-7.925846">
<ele>396</ele>
<time>2026-05-08T05:27:01Z</time></trkpt>
<trkpt lat="39.72097" lon="-7.925739">
<ele>397</ele>
<time>2026-05-08T05:27:03Z</time></trkpt>
<trkpt lat="39.721176" lon="-7.925696">
<ele>398</ele>
<time>2026-05-08T05:27:08Z</time></trkpt>
<trkpt lat="39.721316" lon="-7.92576">
<ele>399</ele>
<time>2026-05-08T05:27:11Z</time></trkpt>
<trkpt lat="39.721688" lon="-7.926114">
<ele>402</ele>
<time>2026-05-08T05:27:20Z</time></trkpt>
<trkpt lat="39.721746" lon="-7.926286">
<ele>403</ele>
<time>2026-05-08T05:27:23Z</time></trkpt>
<trkpt lat="39.721803" lon="-7.926608">
<ele>404</ele>
<time>2026-05-08T05:27:28Z</time></trkpt>
<trkpt lat="39.721869" lon="-7.926737">
<ele>405</ele>
<time>2026-05-08T05:27:30Z</time></trkpt>
<trkpt lat="39.721985" lon="-7.926833">
<ele>405</ele>
<time>2026-05-08T05:27:33Z</time></trkpt>
<trkpt lat="39.722109" lon="-7.926833">
<ele>406</ele>
<time>2026-05-08T05:27:35Z</time></trkpt>
<trkpt lat="39.722777" lon="-7.92664">
<ele>408</ele>
<time>2026-05-08T05:27:49Z</time></trkpt>
<trkpt lat="39.722959" lon="-7.926619">
<ele>408</ele>
<time>2026-05-08T05:27:53Z</time></trkpt>
<trkpt lat="39.723066" lon="-7.926694">
<ele>409</ele>
<time>2026-05-08T05:27:55Z</time></trkpt>
<trkpt lat="39.723445" lon="-7.927144">
<ele>410</ele>
<time>2026-05-08T05:28:06Z</time></trkpt>
<trkpt lat="39.723512" lon="-7.927295">
<ele>409</ele>
<time>2026-05-08T05:28:08Z</time></trkpt>
<trkpt lat="39.723495" lon="-7.927456">
<ele>410</ele>
<time>2026-05-08T05:28:11Z</time></trkpt>
<trkpt lat="39.723413" lon="-7.927756">
<ele>410</ele>
<time>2026-05-08T05:28:16Z</time></trkpt>
<trkpt lat="39.723379" lon="-7.928067">
<ele>410</ele>
<time>2026-05-08T05:28:20Z</time></trkpt>
<trkpt lat="39.723462" lon="-7.928646">
<ele>410</ele>
<time>2026-05-08T05:28:30Z</time></trkpt>
<trkpt lat="39.723528" lon="-7.92884">
<ele>410</ele>
<time>2026-05-08T05:28:33Z</time></trkpt>
<trkpt lat="39.723602" lon="-7.928893">
<ele>410</ele>
<time>2026-05-08T05:28:34Z</time></trkpt>
<trkpt lat="39.723701" lon="-7.928904">
<ele>409</ele>
<time>2026-05-08T05:28:36Z</time></trkpt>
<trkpt lat="39.723941" lon="-7.92884">
<ele>407</ele>
<time>2026-05-08T05:28:41Z</time></trkpt>
<trkpt lat="39.724023" lon="-7.928872">
<ele>407</ele>
<time>2026-05-08T05:28:43Z</time></trkpt>
<trkpt lat="39.724139" lon="-7.92899">
<ele>407</ele>
<time>2026-05-08T05:28:46Z</time></trkpt>
<trkpt lat="39.724277" lon="-7.929233">
<ele>406</ele>
<time>2026-05-08T05:28:51Z</time></trkpt>
<trkpt lat="39.724419" lon="-7.92944">
<ele>404</ele>
<time>2026-05-08T05:28:55Z</time></trkpt>
<trkpt lat="39.724543" lon="-7.929505">
<ele>404</ele>
<time>2026-05-08T05:28:58Z</time></trkpt>
<trkpt lat="39.725034" lon="-7.929619">
<ele>402</ele>
<time>2026-05-08T05:29:08Z</time></trkpt>
<trkpt lat="39.726128" lon="-7.929854">
<ele>407</ele>
<time>2026-05-08T05:29:30Z</time></trkpt>
<trkpt lat="39.726342" lon="-7.929827">
<ele>408</ele>
<time>2026-05-08T05:29:34Z</time></trkpt>
<trkpt lat="39.726548" lon="-7.929741">
<ele>409</ele>
<time>2026-05-08T05:29:39Z</time></trkpt>
<trkpt lat="39.726664" lon="-7.929773">
<ele>411</ele>
<time>2026-05-08T05:29:41Z</time></trkpt>
<trkpt lat="39.726763" lon="-7.929891">
<ele>412</ele>
<time>2026-05-08T05:29:44Z</time></trkpt>
<trkpt lat="39.726796" lon="-7.93003">
<ele>413</ele>
<time>2026-05-08T05:29:46Z</time></trkpt>
<trkpt lat="39.726787" lon="-7.930256">
<ele>413</ele>
<time>2026-05-08T05:29:49Z</time></trkpt>
<trkpt lat="39.72682" lon="-7.930524">
<ele>413</ele>
<time>2026-05-08T05:29:54Z</time></trkpt>
<trkpt lat="39.726878" lon="-7.930599">
<ele>414</ele>
<time>2026-05-08T05:29:55Z</time></trkpt>
<trkpt lat="39.726986" lon="-7.930674">
<ele>415</ele>
<time>2026-05-08T05:29:58Z</time></trkpt>
<trkpt lat="39.727217" lon="-7.930685">
<ele>417</ele>
<time>2026-05-08T05:30:02Z</time></trkpt>
<trkpt lat="39.727349" lon="-7.930642">
<ele>418</ele>
<time>2026-05-08T05:30:05Z</time></trkpt>
<trkpt lat="39.727745" lon="-7.930438">
<ele>422</ele>
<time>2026-05-08T05:30:13Z</time></trkpt>
<trkpt lat="39.727885" lon="-7.930427">
<ele>423</ele>
<time>2026-05-08T05:30:16Z</time></trkpt>
<trkpt lat="39.728165" lon="-7.930513">
<ele>426</ele>
<time>2026-05-08T05:30:22Z</time></trkpt>
<trkpt lat="39.728421" lon="-7.930524">
<ele>428</ele>
<time>2026-05-08T05:30:27Z</time></trkpt>
<trkpt lat="39.728669" lon="-7.930449">
<ele>430</ele>
<time>2026-05-08T05:30:32Z</time></trkpt>
<trkpt lat="39.728875" lon="-7.930224">
<ele>432</ele>
<time>2026-05-08T05:30:38Z</time></trkpt>
<trkpt lat="39.729057" lon="-7.930084">
<ele>433</ele>
<time>2026-05-08T05:30:42Z</time></trkpt>
<trkpt lat="39.729213" lon="-7.930116">
<ele>434</ele>
<time>2026-05-08T05:30:45Z</time></trkpt>
<trkpt lat="39.729453" lon="-7.930288">
<ele>436</ele>
<time>2026-05-08T05:30:51Z</time></trkpt>
<trkpt lat="39.729914" lon="-7.930438">
<ele>440</ele>
<time>2026-05-08T05:31:00Z</time></trkpt>
<trkpt lat="39.730319" lon="-7.930663">
<ele>442</ele>
<time>2026-05-08T05:31:09Z</time></trkpt>
<trkpt lat="39.731078" lon="-7.931243">
<ele>448</ele>
<time>2026-05-08T05:31:27Z</time></trkpt>
<trkpt lat="39.7313" lon="-7.931298">
<ele>450</ele>
<time>2026-05-08T05:31:31Z</time></trkpt>
<trkpt lat="39.731779" lon="-7.931372">
<ele>454</ele>
<time>2026-05-08T05:31:41Z</time></trkpt>
<trkpt lat="39.732298" lon="-7.932051">
<ele>456</ele>
<time>2026-05-08T05:31:56Z</time></trkpt>
<trkpt lat="39.732842" lon="-7.932681">
<ele>457</ele>
<time>2026-05-08T05:32:10Z</time></trkpt>
<trkpt lat="39.732998" lon="-7.932734">
<ele>458</ele>
<time>2026-05-08T05:32:13Z</time></trkpt>
<trkpt lat="39.733111" lon="-7.93275">
<ele>458</ele>
<time>2026-05-08T05:32:16Z</time></trkpt>
<trkpt lat="39.733393" lon="-7.932748">
<ele>460</ele>
<time>2026-05-08T05:32:21Z</time></trkpt>
<trkpt lat="39.734445" lon="-7.93208">
<ele>458</ele>
<time>2026-05-08T05:32:45Z</time></trkpt>
<trkpt lat="39.734626" lon="-7.931908">
<ele>459</ele>
<time>2026-05-08T05:32:49Z</time></trkpt>
<trkpt lat="39.734791" lon="-7.931511">
<ele>459</ele>
<time>2026-05-08T05:32:56Z</time></trkpt>
<trkpt lat="39.734923" lon="-7.931339">
<ele>461</ele>
<time>2026-05-08T05:33:00Z</time></trkpt>
<trkpt lat="39.735286" lon="-7.931146">
<ele>464</ele>
<time>2026-05-08T05:33:08Z</time></trkpt>
<trkpt lat="39.73722" lon="-7.929161">
<ele>452</ele>
<time>2026-05-08T05:33:57Z</time></trkpt>
<trkpt lat="39.737729" lon="-7.928623">
<ele>450</ele>
<time>2026-05-08T05:34:10Z</time></trkpt>
<trkpt lat="39.73782" lon="-7.928547">
<ele>450</ele>
<time>2026-05-08T05:34:12Z</time></trkpt>
<trkpt lat="39.737916" lon="-7.928523">
<ele>449</ele>
<time>2026-05-08T05:34:14Z</time></trkpt>
<trkpt lat="39.738039" lon="-7.928537">
<ele>449</ele>
<time>2026-05-08T05:34:17Z</time></trkpt>
<trkpt lat="39.738806" lon="-7.928782">
<ele>450</ele>
<time>2026-05-08T05:34:33Z</time></trkpt>
<trkpt lat="39.738901" lon="-7.928797">
<ele>450</ele>
<time>2026-05-08T05:34:35Z</time></trkpt>
<trkpt lat="39.739065" lon="-7.928789">
<ele>450</ele>
<time>2026-05-08T05:34:38Z</time></trkpt>
<trkpt lat="39.739804" lon="-7.92856">
<ele>453</ele>
<time>2026-05-08T05:34:53Z</time></trkpt>
<trkpt lat="39.740123" lon="-7.928445">
<ele>454</ele>
<time>2026-05-08T05:35:00Z</time></trkpt>
<trkpt lat="39.740289" lon="-7.928407">
<ele>455</ele>
<time>2026-05-08T05:35:03Z</time></trkpt>
<trkpt lat="39.740376" lon="-7.928396">
<ele>455</ele>
<time>2026-05-08T05:35:05Z</time></trkpt>
<trkpt lat="39.740599" lon="-7.928399">
<ele>457</ele>
<time>2026-05-08T05:35:09Z</time></trkpt>
<trkpt lat="39.741069" lon="-7.928488">
<ele>462</ele>
<time>2026-05-08T05:35:19Z</time></trkpt>
<trkpt lat="39.741256" lon="-7.928488">
<ele>464</ele>
<time>2026-05-08T05:35:23Z</time></trkpt>
<trkpt lat="39.74135" lon="-7.928466">
<ele>465</ele>
<time>2026-05-08T05:35:25Z</time></trkpt>
<trkpt lat="39.741476" lon="-7.928391">
<ele>466</ele>
<time>2026-05-08T05:35:27Z</time></trkpt>
<trkpt lat="39.741547" lon="-7.928332">
<ele>467</ele>
<time>2026-05-08T05:35:29Z</time></trkpt>
<trkpt lat="39.741671" lon="-7.92818">
<ele>468</ele>
<time>2026-05-08T05:35:32Z</time></trkpt>
<trkpt lat="39.741977" lon="-7.92772">
<ele>466</ele>
<time>2026-05-08T05:35:42Z</time></trkpt>
<trkpt lat="39.742151" lon="-7.927478">
<ele>465</ele>
<time>2026-05-08T05:35:47Z</time></trkpt>
<trkpt lat="39.742169" lon="-7.927391">
<ele>465</ele>
<time>2026-05-08T05:35:48Z</time></trkpt>
<trkpt lat="39.742203" lon="-7.927337">
<ele>465</ele>
<time>2026-05-08T05:35:49Z</time></trkpt>
<trkpt lat="39.742263" lon="-7.927312">
<ele>465</ele>
<time>2026-05-08T05:35:51Z</time></trkpt>
<trkpt lat="39.742458" lon="-7.927307">
<ele>465</ele>
<time>2026-05-08T05:35:55Z</time></trkpt>
<trkpt lat="39.742545" lon="-7.927311">
<ele>464</ele>
<time>2026-05-08T05:35:56Z</time></trkpt>
<trkpt lat="39.74293" lon="-7.926877">
<ele>461</ele>
<time>2026-05-08T05:36:06Z</time></trkpt>
<trkpt lat="39.743465" lon="-7.926232">
<ele>458</ele>
<time>2026-05-08T05:36:21Z</time></trkpt>
<trkpt lat="39.743587" lon="-7.92602">
<ele>456</ele>
<time>2026-05-08T05:36:25Z</time></trkpt>
<trkpt lat="39.743692" lon="-7.92577">
<ele>454</ele>
<time>2026-05-08T05:36:30Z</time></trkpt>
<trkpt lat="39.74377" lon="-7.925437">
<ele>452</ele>
<time>2026-05-08T05:36:35Z</time></trkpt>
<trkpt lat="39.743803" lon="-7.925229">
<ele>451</ele>
<time>2026-05-08T05:36:38Z</time></trkpt>
<trkpt lat="39.743906" lon="-7.92437">
<ele>447</ele>
<time>2026-05-08T05:36:52Z</time></trkpt>
<trkpt lat="39.743904" lon="-7.924104">
<ele>446</ele>
<time>2026-05-08T05:36:56Z</time></trkpt>
<trkpt lat="39.743877" lon="-7.923846">
<ele>444</ele>
<time>2026-05-08T05:37:00Z</time></trkpt>
<trkpt lat="39.743811" lon="-7.92355">
<ele>443</ele>
<time>2026-05-08T05:37:04Z</time></trkpt>
<trkpt lat="39.743769" lon="-7.923468">
<ele>442</ele>
<time>2026-05-08T05:37:06Z</time></trkpt>
<trkpt lat="39.743745" lon="-7.923437">
<ele>442</ele>
<time>2026-05-08T05:37:07Z</time></trkpt>
<trkpt lat="39.743713" lon="-7.923348">
<ele>441</ele>
<time>2026-05-08T05:37:08Z</time></trkpt>
<trkpt lat="39.743717" lon="-7.92325">
<ele>441</ele>
<time>2026-05-08T05:37:10Z</time></trkpt>
<trkpt lat="39.743733" lon="-7.923205">
<ele>440</ele>
<time>2026-05-08T05:37:10Z</time></trkpt>
<trkpt lat="39.743781" lon="-7.923139">
<ele>440</ele>
<time>2026-05-08T05:37:12Z</time></trkpt>
<trkpt lat="39.743793" lon="-7.923066">
<ele>439</ele>
<time>2026-05-08T05:37:13Z</time></trkpt>
<trkpt lat="39.743791" lon="-7.922892">
<ele>438</ele>
<time>2026-05-08T05:37:16Z</time></trkpt>
<trkpt lat="39.743671" lon="-7.921621">
<ele>445</ele>
<time>2026-05-08T05:37:35Z</time></trkpt>
<trkpt lat="39.743672" lon="-7.921326">
<ele>447</ele>
<time>2026-05-08T05:37:40Z</time></trkpt>
<trkpt lat="39.743702" lon="-7.921054">
<ele>450</ele>
<time>2026-05-08T05:37:44Z</time></trkpt>
<trkpt lat="39.74377" lon="-7.920779">
<ele>452</ele>
<time>2026-05-08T05:37:49Z</time></trkpt>
<trkpt lat="39.743906" lon="-7.920455">
<ele>455</ele>
<time>2026-05-08T05:37:54Z</time></trkpt>
<trkpt lat="39.744026" lon="-7.920256">
<ele>457</ele>
<time>2026-05-08T05:37:58Z</time></trkpt>
<trkpt lat="39.744278" lon="-7.919904">
<ele>461</ele>
<time>2026-05-08T05:38:06Z</time></trkpt>
<trkpt lat="39.744293" lon="-7.919775">
<ele>462</ele>
<time>2026-05-08T05:38:08Z</time></trkpt>
<trkpt lat="39.744321" lon="-7.919727">
<ele>462</ele>
<time>2026-05-08T05:38:09Z</time></trkpt>
<trkpt lat="39.744403" lon="-7.919673">
<ele>463</ele>
<time>2026-05-08T05:38:10Z</time></trkpt>
<trkpt lat="39.744478" lon="-7.919681">
<ele>463</ele>
<time>2026-05-08T05:38:12Z</time></trkpt>
<trkpt lat="39.744638" lon="-7.919587">
<ele>464</ele>
<time>2026-05-08T05:38:15Z</time></trkpt>
<trkpt lat="39.745522" lon="-7.918656">
<ele>474</ele>
<time>2026-05-08T05:38:38Z</time></trkpt>
<trkpt lat="39.745766" lon="-7.918463">
<ele>473</ele>
<time>2026-05-08T05:38:44Z</time></trkpt>
<trkpt lat="39.745963" lon="-7.918358">
<ele>474</ele>
<time>2026-05-08T05:38:48Z</time></trkpt>
<trkpt lat="39.746083" lon="-7.918318">
<ele>475</ele>
<time>2026-05-08T05:38:51Z</time></trkpt>
<trkpt lat="39.746735" lon="-7.918182">
<ele>479</ele>
<time>2026-05-08T05:39:04Z</time></trkpt>
<trkpt lat="39.746967" lon="-7.918073">
<ele>477</ele>
<time>2026-05-08T05:39:09Z</time></trkpt>
<trkpt lat="39.746976" lon="-7.918007">
<ele>477</ele>
<time>2026-05-08T05:39:10Z</time></trkpt>
<trkpt lat="39.747016" lon="-7.917923">
<ele>477</ele>
<time>2026-05-08T05:39:11Z</time></trkpt>
<trkpt lat="39.747069" lon="-7.917879">
<ele>476</ele>
<time>2026-05-08T05:39:13Z</time></trkpt>
<trkpt lat="39.747153" lon="-7.917865">
<ele>476</ele>
<time>2026-05-08T05:39:14Z</time></trkpt>
<trkpt lat="39.747207" lon="-7.917888">
<ele>475</ele>
<time>2026-05-08T05:39:16Z</time></trkpt>
<trkpt lat="39.747252" lon="-7.917934">
<ele>475</ele>
<time>2026-05-08T05:39:17Z</time></trkpt>
<trkpt lat="39.747282" lon="-7.917997">
<ele>475</ele>
<time>2026-05-08T05:39:18Z</time></trkpt>
<trkpt lat="39.747567" lon="-7.918076">
<ele>473</ele>
<time>2026-05-08T05:39:24Z</time></trkpt>
<trkpt lat="39.747721" lon="-7.918056">
<ele>471</ele>
<time>2026-05-08T05:39:27Z</time></trkpt>
<trkpt lat="39.74908" lon="-7.917819">
<ele>463</ele>
<time>2026-05-08T05:39:54Z</time></trkpt>
<trkpt lat="39.749244" lon="-7.917732">
<ele>463</ele>
<time>2026-05-08T05:39:58Z</time></trkpt>
<trkpt lat="39.749262" lon="-7.917678">
<ele>463</ele>
<time>2026-05-08T05:39:59Z</time></trkpt>
<trkpt lat="39.749315" lon="-7.917334">
<ele>463</ele>
<time>2026-05-08T05:40:04Z</time></trkpt>
<trkpt lat="39.749314" lon="-7.917268">
<ele>462</ele>
<time>2026-05-08T05:40:05Z</time></trkpt>
<trkpt lat="39.749343" lon="-7.916665">
<ele>461</ele>
<time>2026-05-08T05:40:14Z</time></trkpt>
<trkpt lat="39.749345" lon="-7.916304">
<ele>459</ele>
<time>2026-05-08T05:40:20Z</time></trkpt>
<trkpt lat="39.749336" lon="-7.916113">
<ele>458</ele>
<time>2026-05-08T05:40:23Z</time></trkpt>
<trkpt lat="39.749307" lon="-7.915929">
<ele>456</ele>
<time>2026-05-08T05:40:26Z</time></trkpt>
<trkpt lat="39.749266" lon="-7.915789">
<ele>455</ele>
<time>2026-05-08T05:40:28Z</time></trkpt>
<trkpt lat="39.749209" lon="-7.915663">
<ele>455</ele>
<time>2026-05-08T05:40:30Z</time></trkpt>
<trkpt lat="39.749064" lon="-7.915436">
<ele>455</ele>
<time>2026-05-08T05:40:35Z</time></trkpt>
<trkpt lat="39.748855" lon="-7.915178">
<ele>453</ele>
<time>2026-05-08T05:40:41Z</time></trkpt>
<trkpt lat="39.748655" lon="-7.914873">
<ele>451</ele>
<time>2026-05-08T05:40:47Z</time></trkpt>
<trkpt lat="39.748601" lon="-7.914711">
<ele>451</ele>
<time>2026-05-08T05:40:50Z</time></trkpt>
<trkpt lat="39.748573" lon="-7.914534">
<ele>451</ele>
<time>2026-05-08T05:40:52Z</time></trkpt>
<trkpt lat="39.748579" lon="-7.914262">
<ele>451</ele>
<time>2026-05-08T05:40:57Z</time></trkpt>
<trkpt lat="39.748652" lon="-7.913763">
<ele>449</ele>
<time>2026-05-08T05:41:04Z</time></trkpt>
<trkpt lat="39.748708" lon="-7.9133">
<ele>447</ele>
<time>2026-05-08T05:41:12Z</time></trkpt>
<trkpt lat="39.748681" lon="-7.913089">
<ele>447</ele>
<time>2026-05-08T05:41:15Z</time></trkpt>
<trkpt lat="39.748617" lon="-7.912945">
<ele>446</ele>
<time>2026-05-08T05:41:17Z</time></trkpt>
<trkpt lat="39.747823" lon="-7.912085">
<ele>438</ele>
<time>2026-05-08T05:41:38Z</time></trkpt>
<trkpt lat="39.747569" lon="-7.911733">
<ele>436</ele>
<time>2026-05-08T05:41:46Z</time></trkpt>
<trkpt lat="39.746441" lon="-7.908998">
<ele>428</ele>
<time>2026-05-08T05:42:33Z</time></trkpt>
<trkpt lat="39.746294" lon="-7.908668">
<ele>426</ele>
<time>2026-05-08T05:42:39Z</time></trkpt>
<trkpt lat="39.746238" lon="-7.908487">
<ele>425</ele>
<time>2026-05-08T05:42:42Z</time></trkpt>
<trkpt lat="39.746211" lon="-7.908321">
<ele>425</ele>
<time>2026-05-08T05:42:45Z</time></trkpt>
<trkpt lat="39.746202" lon="-7.908151">
<ele>424</ele>
<time>2026-05-08T05:42:48Z</time></trkpt>
<trkpt lat="39.746302" lon="-7.907865">
<ele>423</ele>
<time>2026-05-08T05:42:52Z</time></trkpt>
<trkpt lat="39.746959" lon="-7.907184">
<ele>423</ele>
<time>2026-05-08T05:43:09Z</time></trkpt>
<trkpt lat="39.747231" lon="-7.907098">
<ele>423</ele>
<time>2026-05-08T05:43:15Z</time></trkpt>
<trkpt lat="39.747767" lon="-7.90701">
<ele>425</ele>
<time>2026-05-08T05:43:26Z</time></trkpt>
<trkpt lat="39.747866" lon="-7.906959">
<ele>426</ele>
<time>2026-05-08T05:43:28Z</time></trkpt>
<trkpt lat="39.747928" lon="-7.906857">
<ele>425</ele>
<time>2026-05-08T05:43:30Z</time></trkpt>
<trkpt lat="39.74794" lon="-7.906739">
<ele>424</ele>
<time>2026-05-08T05:43:32Z</time></trkpt>
<trkpt lat="39.747913" lon="-7.906628">
<ele>423</ele>
<time>2026-05-08T05:43:33Z</time></trkpt>
<trkpt lat="39.74777" lon="-7.906276">
<ele>419</ele>
<time>2026-05-08T05:43:40Z</time></trkpt>
<trkpt lat="39.747701" lon="-7.906036">
<ele>416</ele>
<time>2026-05-08T05:43:44Z</time></trkpt>
<trkpt lat="39.747634" lon="-7.905533">
<ele>412</ele>
<time>2026-05-08T05:43:51Z</time></trkpt>
<trkpt lat="39.747642" lon="-7.905419">
<ele>412</ele>
<time>2026-05-08T05:43:53Z</time></trkpt>
<trkpt lat="39.747685" lon="-7.905304">
<ele>412</ele>
<time>2026-05-08T05:43:55Z</time></trkpt>
<trkpt lat="39.74798" lon="-7.904914">
<ele>414</ele>
<time>2026-05-08T05:44:04Z</time></trkpt>
<trkpt lat="39.74802" lon="-7.904785">
<ele>414</ele>
<time>2026-05-08T05:44:06Z</time></trkpt>
<trkpt lat="39.74803" lon="-7.904556">
<ele>413</ele>
<time>2026-05-08T05:44:09Z</time></trkpt>
<trkpt lat="39.747998" lon="-7.904453">
<ele>412</ele>
<time>2026-05-08T05:44:11Z</time></trkpt>
<trkpt lat="39.7477" lon="-7.903977">
<ele>408</ele>
<time>2026-05-08T05:44:20Z</time></trkpt>
<trkpt lat="39.747235" lon="-7.902995">
<ele>407</ele>
<time>2026-05-08T05:44:38Z</time></trkpt>
<trkpt lat="39.747105" lon="-7.902699">
<ele>405</ele>
<time>2026-05-08T05:44:43Z</time></trkpt>
<trkpt lat="39.747012" lon="-7.902577">
<ele>404</ele>
<time>2026-05-08T05:44:46Z</time></trkpt>
<trkpt lat="39.746891" lon="-7.902487">
<ele>402</ele>
<time>2026-05-08T05:44:49Z</time></trkpt>
<trkpt lat="39.746754" lon="-7.902417">
<ele>401</ele>
<time>2026-05-08T05:44:52Z</time></trkpt>
<trkpt lat="39.74571" lon="-7.901988">
<ele>397</ele>
<time>2026-05-08T05:45:14Z</time></trkpt>
<trkpt lat="39.745616" lon="-7.901921">
<ele>398</ele>
<time>2026-05-08T05:45:16Z</time></trkpt>
<trkpt lat="39.745559" lon="-7.901854">
<ele>399</ele>
<time>2026-05-08T05:45:17Z</time></trkpt>
<trkpt lat="39.745509" lon="-7.901727">
<ele>399</ele>
<time>2026-05-08T05:45:20Z</time></trkpt>
<trkpt lat="39.745499" lon="-7.901607">
<ele>399</ele>
<time>2026-05-08T05:45:21Z</time></trkpt>
<trkpt lat="39.745548" lon="-7.901467">
<ele>399</ele>
<time>2026-05-08T05:45:24Z</time></trkpt>
<trkpt lat="39.745656" lon="-7.901348">
<ele>397</ele>
<time>2026-05-08T05:45:27Z</time></trkpt>
<trkpt lat="39.745901" lon="-7.90123">
<ele>394</ele>
<time>2026-05-08T05:45:32Z</time></trkpt>
<trkpt lat="39.746178" lon="-7.901128">
<ele>393</ele>
<time>2026-05-08T05:45:38Z</time></trkpt>
<trkpt lat="39.746316" lon="-7.901133">
<ele>393</ele>
<time>2026-05-08T05:45:40Z</time></trkpt>
<trkpt lat="39.746655" lon="-7.901284">
<ele>395</ele>
<time>2026-05-08T05:45:48Z</time></trkpt>
<trkpt lat="39.746761" lon="-7.901283">
<ele>396</ele>
<time>2026-05-08T05:45:50Z</time></trkpt>
<trkpt lat="39.746858" lon="-7.901231">
<ele>397</ele>
<time>2026-05-08T05:45:52Z</time></trkpt>
<trkpt lat="39.746918" lon="-7.901079">
<ele>396</ele>
<time>2026-05-08T05:45:54Z</time></trkpt>
<trkpt lat="39.746892" lon="-7.900209">
<ele>392</ele>
<time>2026-05-08T05:46:08Z</time></trkpt>
<trkpt lat="39.746852" lon="-7.900028">
<ele>391</ele>
<time>2026-05-08T05:46:11Z</time></trkpt>
<trkpt lat="39.746291" lon="-7.898837">
<ele>388</ele>
<time>2026-05-08T05:46:32Z</time></trkpt>
<trkpt lat="39.746186" lon="-7.898719">
<ele>387</ele>
<time>2026-05-08T05:46:35Z</time></trkpt>
<trkpt lat="39.745859" lon="-7.898548">
<ele>383</ele>
<time>2026-05-08T05:46:42Z</time></trkpt>
<trkpt lat="39.745623" lon="-7.898383">
<ele>380</ele>
<time>2026-05-08T05:46:48Z</time></trkpt>
<trkpt lat="39.745436" lon="-7.898225">
<ele>377</ele>
<time>2026-05-08T05:46:52Z</time></trkpt>
<trkpt lat="39.745347" lon="-7.8981">
<ele>375</ele>
<time>2026-05-08T05:46:55Z</time></trkpt>
<trkpt lat="39.745327" lon="-7.89797">
<ele>374</ele>
<time>2026-05-08T05:46:57Z</time></trkpt>
<trkpt lat="39.745337" lon="-7.897837">
<ele>373</ele>
<time>2026-05-08T05:46:59Z</time></trkpt>
<trkpt lat="39.745609" lon="-7.897381">
<ele>372</ele>
<time>2026-05-08T05:47:08Z</time></trkpt>
<trkpt lat="39.745653" lon="-7.897219">
<ele>372</ele>
<time>2026-05-08T05:47:10Z</time></trkpt>
<trkpt lat="39.745649" lon="-7.897045">
<ele>371</ele>
<time>2026-05-08T05:47:13Z</time></trkpt>
<trkpt lat="39.745557" lon="-7.896785">
<ele>369</ele>
<time>2026-05-08T05:47:17Z</time></trkpt>
<trkpt lat="39.745507" lon="-7.896616">
<ele>368</ele>
<time>2026-05-08T05:47:20Z</time></trkpt>
<trkpt lat="39.745475" lon="-7.896277">
<ele>369</ele>
<time>2026-05-08T05:47:25Z</time></trkpt>
<trkpt lat="39.745426" lon="-7.89616">
<ele>369</ele>
<time>2026-05-08T05:47:27Z</time></trkpt>
<trkpt lat="39.745299" lon="-7.896051">
<ele>367</ele>
<time>2026-05-08T05:47:31Z</time></trkpt>
<trkpt lat="39.744957" lon="-7.895851">
<ele>362</ele>
<time>2026-05-08T05:47:38Z</time></trkpt>
<trkpt lat="39.744824" lon="-7.895676">
<ele>361</ele>
<time>2026-05-08T05:47:42Z</time></trkpt>
<trkpt lat="39.744766" lon="-7.895537">
<ele>360</ele>
<time>2026-05-08T05:47:44Z</time></trkpt>
<trkpt lat="39.744768" lon="-7.895425">
<ele>359</ele>
<time>2026-05-08T05:47:46Z</time></trkpt>
<trkpt lat="39.744816" lon="-7.895302">
<ele>359</ele>
<time>2026-05-08T05:47:48Z</time></trkpt>
<trkpt lat="39.745938" lon="-7.893827">
<ele>358</ele>
<time>2026-05-08T05:48:20Z</time></trkpt>
<trkpt lat="39.746005" lon="-7.893665">
<ele>357</ele>
<time>2026-05-08T05:48:23Z</time></trkpt>
<trkpt lat="39.746003" lon="-7.893488">
<ele>356</ele>
<time>2026-05-08T05:48:26Z</time></trkpt>
<trkpt lat="39.745891" lon="-7.893133">
<ele>352</ele>
<time>2026-05-08T05:48:32Z</time></trkpt>
<trkpt lat="39.745788" lon="-7.892649">
<ele>351</ele>
<time>2026-05-08T05:48:39Z</time></trkpt>
<trkpt lat="39.745797" lon="-7.892444">
<ele>351</ele>
<time>2026-05-08T05:48:42Z</time></trkpt>
<trkpt lat="39.745964" lon="-7.891804">
<ele>353</ele>
<time>2026-05-08T05:48:53Z</time></trkpt>
<trkpt lat="39.745959" lon="-7.891639">
<ele>353</ele>
<time>2026-05-08T05:48:55Z</time></trkpt>
<trkpt lat="39.745896" lon="-7.891491">
<ele>352</ele>
<time>2026-05-08T05:48:58Z</time></trkpt>
<trkpt lat="39.745814" lon="-7.891379">
<ele>351</ele>
<time>2026-05-08T05:49:00Z</time></trkpt>
<trkpt lat="39.745584" lon="-7.891226">
<ele>352</ele>
<time>2026-05-08T05:49:06Z</time></trkpt>
<trkpt lat="39.745409" lon="-7.891207">
<ele>351</ele>
<time>2026-05-08T05:49:09Z</time></trkpt>
<trkpt lat="39.74533" lon="-7.891027">
<ele>351</ele>
<time>2026-05-08T05:49:12Z</time></trkpt>
<trkpt lat="39.745317" lon="-7.890893">
<ele>351</ele>
<time>2026-05-08T05:49:14Z</time></trkpt>
<trkpt lat="39.745322" lon="-7.890705">
<ele>350</ele>
<time>2026-05-08T05:49:17Z</time></trkpt>
<trkpt lat="39.745141" lon="-7.889662">
<ele>339</ele>
<time>2026-05-08T05:49:34Z</time></trkpt>
<trkpt lat="39.745139" lon="-7.889494">
<ele>337</ele>
<time>2026-05-08T05:49:36Z</time></trkpt>
<trkpt lat="39.74517" lon="-7.889354">
<ele>337</ele>
<time>2026-05-08T05:49:39Z</time></trkpt>
<trkpt lat="39.745252" lon="-7.889235">
<ele>337</ele>
<time>2026-05-08T05:49:41Z</time></trkpt>
<trkpt lat="39.745483" lon="-7.889117">
<ele>339</ele>
<time>2026-05-08T05:49:46Z</time></trkpt>
<trkpt lat="39.746223" lon="-7.888808">
<ele>344</ele>
<time>2026-05-08T05:50:02Z</time></trkpt>
<trkpt lat="39.747007" lon="-7.888463">
<ele>344</ele>
<time>2026-05-08T05:50:18Z</time></trkpt>
<trkpt lat="39.747116" lon="-7.888398">
<ele>344</ele>
<time>2026-05-08T05:50:21Z</time></trkpt>
<trkpt lat="39.747215" lon="-7.888291">
<ele>343</ele>
<time>2026-05-08T05:50:23Z</time></trkpt>
<trkpt lat="39.747252" lon="-7.888134">
<ele>343</ele>
<time>2026-05-08T05:50:26Z</time></trkpt>
<trkpt lat="39.747246" lon="-7.887945">
<ele>342</ele>
<time>2026-05-08T05:50:29Z</time></trkpt>
<trkpt lat="39.747153" lon="-7.887791">
<ele>341</ele>
<time>2026-05-08T05:50:32Z</time></trkpt>
<trkpt lat="39.746877" lon="-7.887486">
<ele>337</ele>
<time>2026-05-08T05:50:39Z</time></trkpt>
<trkpt lat="39.746685" lon="-7.887227">
<ele>334</ele>
<time>2026-05-08T05:50:44Z</time></trkpt>
<trkpt lat="39.746605" lon="-7.887001">
<ele>332</ele>
<time>2026-05-08T05:50:48Z</time></trkpt>
<trkpt lat="39.746537" lon="-7.886766">
<ele>332</ele>
<time>2026-05-08T05:50:52Z</time></trkpt>
<trkpt lat="39.74638" lon="-7.886298">
<ele>338</ele>
<time>2026-05-08T05:51:00Z</time></trkpt>
<trkpt lat="39.746382" lon="-7.886172">
<ele>340</ele>
<time>2026-05-08T05:51:02Z</time></trkpt>
<trkpt lat="39.746456" lon="-7.886016">
<ele>343</ele>
<time>2026-05-08T05:51:05Z</time></trkpt>
<trkpt lat="39.746629" lon="-7.885909">
<ele>344</ele>
<time>2026-05-08T05:51:09Z</time></trkpt>
<trkpt lat="39.748109" lon="-7.88542">
<ele>339</ele>
<time>2026-05-08T05:51:39Z</time></trkpt>
<trkpt lat="39.748372" lon="-7.885376">
<ele>338</ele>
<time>2026-05-08T05:51:44Z</time></trkpt>
<trkpt lat="39.748708" lon="-7.885426">
<ele>336</ele>
<time>2026-05-08T05:51:51Z</time></trkpt>
<trkpt lat="39.749164" lon="-7.885453">
<ele>335</ele>
<time>2026-05-08T05:52:00Z</time></trkpt>
<trkpt lat="39.749598" lon="-7.885423">
<ele>338</ele>
<time>2026-05-08T05:52:09Z</time></trkpt>
<trkpt lat="39.749836" lon="-7.885486">
<ele>338</ele>
<time>2026-05-08T05:52:14Z</time></trkpt>
<trkpt lat="39.750094" lon="-7.885718">
<ele>338</ele>
<time>2026-05-08T05:52:20Z</time></trkpt>
<trkpt lat="39.750224" lon="-7.885852">
<ele>337</ele>
<time>2026-05-08T05:52:24Z</time></trkpt>
<trkpt lat="39.75034" lon="-7.88592">
<ele>338</ele>
<time>2026-05-08T05:52:26Z</time></trkpt>
<trkpt lat="39.750528" lon="-7.885969">
<ele>339</ele>
<time>2026-05-08T05:52:30Z</time></trkpt>
<trkpt lat="39.750714" lon="-7.885958">
<ele>341</ele>
<time>2026-05-08T05:52:34Z</time></trkpt>
<trkpt lat="39.750911" lon="-7.885891">
<ele>343</ele>
<time>2026-05-08T05:52:38Z</time></trkpt>
<trkpt lat="39.751198" lon="-7.885736">
<ele>344</ele>
<time>2026-05-08T05:52:44Z</time></trkpt>
<trkpt lat="39.752117" lon="-7.885127">
<ele>347</ele>
<time>2026-05-08T05:53:05Z</time></trkpt>
<trkpt lat="39.752275" lon="-7.884999">
<ele>344</ele>
<time>2026-05-08T05:53:08Z</time></trkpt>
<trkpt lat="39.752374" lon="-7.884842">
<ele>343</ele>
<time>2026-05-08T05:53:12Z</time></trkpt>
<trkpt lat="39.752437" lon="-7.884654">
<ele>343</ele>
<time>2026-05-08T05:53:15Z</time></trkpt>
<trkpt lat="39.752583" lon="-7.883641">
<ele>351</ele>
<time>2026-05-08T05:53:31Z</time></trkpt>
<trkpt lat="39.752581" lon="-7.883284">
<ele>355</ele>
<time>2026-05-08T05:53:36Z</time></trkpt>
<trkpt lat="39.752511" lon="-7.882647">
<ele>353</ele>
<time>2026-05-08T05:53:46Z</time></trkpt>
<trkpt lat="39.752433" lon="-7.881618">
<ele>355</ele>
<time>2026-05-08T05:54:02Z</time></trkpt>
<trkpt lat="39.752497" lon="-7.88135">
<ele>356</ele>
<time>2026-05-08T05:54:06Z</time></trkpt>
<trkpt lat="39.752656" lon="-7.881105">
<ele>357</ele>
<time>2026-05-08T05:54:11Z</time></trkpt>
<trkpt lat="39.753147" lon="-7.880656">
<ele>353</ele>
<time>2026-05-08T05:54:23Z</time></trkpt>
<trkpt lat="39.753336" lon="-7.880577">
<ele>350</ele>
<time>2026-05-08T05:54:27Z</time></trkpt>
<trkpt lat="39.753495" lon="-7.880586">
<ele>351</ele>
<time>2026-05-08T05:54:30Z</time></trkpt>
<trkpt lat="39.753594" lon="-7.880622">
<ele>351</ele>
<time>2026-05-08T05:54:32Z</time></trkpt>
<trkpt lat="39.753809" lon="-7.880672">
<ele>351</ele>
<time>2026-05-08T05:54:37Z</time></trkpt>
<trkpt lat="39.753958" lon="-7.880635">
<ele>352</ele>
<time>2026-05-08T05:54:40Z</time></trkpt>
<trkpt lat="39.754094" lon="-7.880546">
<ele>354</ele>
<time>2026-05-08T05:54:43Z</time></trkpt>
<trkpt lat="39.754187" lon="-7.880396">
<ele>356</ele>
<time>2026-05-08T05:54:46Z</time></trkpt>
<trkpt lat="39.754328" lon="-7.880029">
<ele>359</ele>
<time>2026-05-08T05:54:52Z</time></trkpt>
<trkpt lat="39.755062" lon="-7.878944">
<ele>369</ele>
<time>2026-05-08T05:55:14Z</time></trkpt>
<trkpt lat="39.755342" lon="-7.878421">
<ele>374</ele>
<time>2026-05-08T05:55:24Z</time></trkpt>
<trkpt lat="39.755617" lon="-7.878083">
<ele>372</ele>
<time>2026-05-08T05:55:32Z</time></trkpt>
<trkpt lat="39.75585" lon="-7.877847">
<ele>369</ele>
<time>2026-05-08T05:55:38Z</time></trkpt>
<trkpt lat="39.755967" lon="-7.877691">
<ele>369</ele>
<time>2026-05-08T05:55:41Z</time></trkpt>
<trkpt lat="39.756015" lon="-7.87758">
<ele>369</ele>
<time>2026-05-08T05:55:43Z</time></trkpt>
<trkpt lat="39.756088" lon="-7.877292">
<ele>370</ele>
<time>2026-05-08T05:55:48Z</time></trkpt>
<trkpt lat="39.756237" lon="-7.87665">
<ele>372</ele>
<time>2026-05-08T05:55:58Z</time></trkpt>
<trkpt lat="39.756305" lon="-7.876155">
<ele>373</ele>
<time>2026-05-08T05:56:06Z</time></trkpt>
<trkpt lat="39.756365" lon="-7.875936">
<ele>373</ele>
<time>2026-05-08T05:56:09Z</time></trkpt>
<trkpt lat="39.756634" lon="-7.875334">
<ele>373</ele>
<time>2026-05-08T05:56:20Z</time></trkpt>
<trkpt lat="39.756679" lon="-7.875166">
<ele>373</ele>
<time>2026-05-08T05:56:23Z</time></trkpt>
<trkpt lat="39.756718" lon="-7.874891">
<ele>374</ele>
<time>2026-05-08T05:56:27Z</time></trkpt>
<trkpt lat="39.756827" lon="-7.874772">
<ele>377</ele>
<time>2026-05-08T05:56:30Z</time></trkpt>
<trkpt lat="39.756884" lon="-7.87475">
<ele>379</ele>
<time>2026-05-08T05:56:31Z</time></trkpt>
<trkpt lat="39.756959" lon="-7.874789">
<ele>381</ele>
<time>2026-05-08T05:56:33Z</time></trkpt>
<trkpt lat="39.757012" lon="-7.874861">
<ele>383</ele>
<time>2026-05-08T05:56:34Z</time></trkpt>
<trkpt lat="39.757092" lon="-7.875">
<ele>386</ele>
<time>2026-05-08T05:56:37Z</time></trkpt>
<trkpt lat="39.757122" lon="-7.875161">
<ele>387</ele>
<time>2026-05-08T05:56:40Z</time></trkpt>
<trkpt lat="39.756992" lon="-7.876044">
<ele>383</ele>
<time>2026-05-08T05:56:53Z</time></trkpt>
<trkpt lat="39.756969" lon="-7.876307">
<ele>383</ele>
<time>2026-05-08T05:56:58Z</time></trkpt>
<trkpt lat="39.756973" lon="-7.876484">
<ele>383</ele>
<time>2026-05-08T05:57:00Z</time></trkpt>
<trkpt lat="39.757013" lon="-7.876671">
<ele>384</ele>
<time>2026-05-08T05:57:03Z</time></trkpt>
<trkpt lat="39.757175" lon="-7.877112">
<ele>388</ele>
<time>2026-05-08T05:57:11Z</time></trkpt>
<trkpt lat="39.757211" lon="-7.877331">
<ele>388</ele>
<time>2026-05-08T05:57:14Z</time></trkpt>
<trkpt lat="39.757197" lon="-7.877595">
<ele>388</ele>
<time>2026-05-08T05:57:18Z</time></trkpt>
<trkpt lat="39.757218" lon="-7.877685">
<ele>388</ele>
<time>2026-05-08T05:57:20Z</time></trkpt>
<trkpt lat="39.757315" lon="-7.877921">
<ele>389</ele>
<time>2026-05-08T05:57:24Z</time></trkpt>
<trkpt lat="39.757719" lon="-7.878284">
<ele>396</ele>
<time>2026-05-08T05:57:34Z</time></trkpt>
<trkpt lat="39.757843" lon="-7.878455">
<ele>398</ele>
<time>2026-05-08T05:57:37Z</time></trkpt>
<trkpt lat="39.758033" lon="-7.878774">
<ele>401</ele>
<time>2026-05-08T05:57:44Z</time></trkpt>
<trkpt lat="39.758178" lon="-7.879153">
<ele>402</ele>
<time>2026-05-08T05:57:50Z</time></trkpt>
<trkpt lat="39.75827" lon="-7.879533">
<ele>404</ele>
<time>2026-05-08T05:57:56Z</time></trkpt>
<trkpt lat="39.75833" lon="-7.879882">
<ele>405</ele>
<time>2026-05-08T05:58:02Z</time></trkpt>
<trkpt lat="39.758385" lon="-7.880404">
<ele>405</ele>
<time>2026-05-08T05:58:10Z</time></trkpt>
<trkpt lat="39.758544" lon="-7.881269">
<ele>399</ele>
<time>2026-05-08T05:58:24Z</time></trkpt>
<trkpt lat="39.758651" lon="-7.881817">
<ele>394</ele>
<time>2026-05-08T05:58:32Z</time></trkpt>
<trkpt lat="39.758738" lon="-7.882125">
<ele>395</ele>
<time>2026-05-08T05:58:37Z</time></trkpt>
<trkpt lat="39.758851" lon="-7.882436">
<ele>397</ele>
<time>2026-05-08T05:58:43Z</time></trkpt>
<trkpt lat="39.759101" lon="-7.882916">
<ele>408</ele>
<time>2026-05-08T05:58:52Z</time></trkpt>
<trkpt lat="39.759264" lon="-7.883168">
<ele>413</ele>
<time>2026-05-08T05:58:57Z</time></trkpt>
<trkpt lat="39.759424" lon="-7.883372">
<ele>414</ele>
<time>2026-05-08T05:59:01Z</time></trkpt>
<trkpt lat="39.759635" lon="-7.8836">
<ele>415</ele>
<time>2026-05-08T05:59:07Z</time></trkpt>
<trkpt lat="39.759851" lon="-7.883793">
<ele>416</ele>
<time>2026-05-08T05:59:12Z</time></trkpt>
<trkpt lat="39.760039" lon="-7.88393">
<ele>418</ele>
<time>2026-05-08T05:59:16Z</time></trkpt>
<trkpt lat="39.761586" lon="-7.8847">
<ele>428</ele>
<time>2026-05-08T05:59:49Z</time></trkpt>
<trkpt lat="39.762245" lon="-7.884996">
<ele>434</ele>
<time>2026-05-08T06:00:03Z</time></trkpt>
<trkpt lat="39.762582" lon="-7.885129">
<ele>436</ele>
<time>2026-05-08T06:00:10Z</time></trkpt>
<trkpt lat="39.762911" lon="-7.885194">
<ele>438</ele>
<time>2026-05-08T06:00:17Z</time></trkpt>
<trkpt lat="39.763834" lon="-7.885227">
<ele>438</ele>
<time>2026-05-08T06:00:36Z</time></trkpt>
<trkpt lat="39.764042" lon="-7.885277">
<ele>439</ele>
<time>2026-05-08T06:00:40Z</time></trkpt>
<trkpt lat="39.764223" lon="-7.88538">
<ele>442</ele>
<time>2026-05-08T06:00:44Z</time></trkpt>
<trkpt lat="39.764456" lon="-7.885545">
<ele>446</ele>
<time>2026-05-08T06:00:49Z</time></trkpt>
<trkpt lat="39.764798" lon="-7.885824">
<ele>451</ele>
<time>2026-05-08T06:00:57Z</time></trkpt>
<trkpt lat="39.764987" lon="-7.885907">
<ele>451</ele>
<time>2026-05-08T06:01:01Z</time></trkpt>
<trkpt lat="39.765224" lon="-7.885941">
<ele>451</ele>
<time>2026-05-08T06:01:06Z</time></trkpt>
<trkpt lat="39.765803" lon="-7.885858">
<ele>449</ele>
<time>2026-05-08T06:01:18Z</time></trkpt>
<trkpt lat="39.766036" lon="-7.885891">
<ele>450</ele>
<time>2026-05-08T06:01:22Z</time></trkpt>
<trkpt lat="39.766203" lon="-7.88596">
<ele>453</ele>
<time>2026-05-08T06:01:26Z</time></trkpt>
<trkpt lat="39.766645" lon="-7.88626">
<ele>462</ele>
<time>2026-05-08T06:01:36Z</time></trkpt>
<trkpt lat="39.766988" lon="-7.886432">
<ele>465</ele>
<time>2026-05-08T06:01:43Z</time></trkpt>
<trkpt lat="39.767275" lon="-7.886474">
<ele>465</ele>
<time>2026-05-08T06:01:49Z</time></trkpt>
<trkpt lat="39.767493" lon="-7.886453">
<ele>463</ele>
<time>2026-05-08T06:01:53Z</time></trkpt>
<trkpt lat="39.767652" lon="-7.886405">
<ele>462</ele>
<time>2026-05-08T06:01:57Z</time></trkpt>
<trkpt lat="39.767919" lon="-7.886271">
<ele>459</ele>
<time>2026-05-08T06:02:02Z</time></trkpt>
<trkpt lat="39.768074" lon="-7.886148">
<ele>457</ele>
<time>2026-05-08T06:02:06Z</time></trkpt>
<trkpt lat="39.768183" lon="-7.886026">
<ele>456</ele>
<time>2026-05-08T06:02:09Z</time></trkpt>
<trkpt lat="39.768316" lon="-7.885784">
<ele>455</ele>
<time>2026-05-08T06:02:13Z</time></trkpt>
<trkpt lat="39.768404" lon="-7.885563">
<ele>457</ele>
<time>2026-05-08T06:02:17Z</time></trkpt>
<trkpt lat="39.768481" lon="-7.885326">
<ele>460</ele>
<time>2026-05-08T06:02:21Z</time></trkpt>
<trkpt lat="39.768786" lon="-7.883886">
<ele>472</ele>
<time>2026-05-08T06:02:44Z</time></trkpt>
<trkpt lat="39.768868" lon="-7.883627">
<ele>473</ele>
<time>2026-05-08T06:02:49Z</time></trkpt>
<trkpt lat="39.769021" lon="-7.883301">
<ele>477</ele>
<time>2026-05-08T06:02:54Z</time></trkpt>
<trkpt lat="39.769151" lon="-7.8831">
<ele>479</ele>
<time>2026-05-08T06:02:58Z</time></trkpt>
<trkpt lat="39.76932" lon="-7.882901">
<ele>480</ele>
<time>2026-05-08T06:03:03Z</time></trkpt>
<trkpt lat="39.769645" lon="-7.882568">
<ele>478</ele>
<time>2026-05-08T06:03:11Z</time></trkpt>
<trkpt lat="39.770311" lon="-7.881918">
<ele>484</ele>
<time>2026-05-08T06:03:28Z</time></trkpt>
<trkpt lat="39.7711" lon="-7.881136">
<ele>497</ele>
<time>2026-05-08T06:03:48Z</time></trkpt>
<trkpt lat="39.771598" lon="-7.880798">
<ele>497</ele>
<time>2026-05-08T06:03:59Z</time></trkpt>
<trkpt lat="39.771878" lon="-7.880667">
<ele>499</ele>
<time>2026-05-08T06:04:05Z</time></trkpt>
<trkpt lat="39.772387" lon="-7.880483">
<ele>504</ele>
<time>2026-05-08T06:04:16Z</time></trkpt>
<trkpt lat="39.779795" lon="-7.878229">
<ele>566</ele>
<time>2026-05-08T06:06:48Z</time></trkpt>
<trkpt lat="39.780046" lon="-7.878133">
<ele>567</ele>
<time>2026-05-08T06:06:53Z</time></trkpt>
<trkpt lat="39.780297" lon="-7.877968">
<ele>569</ele>
<time>2026-05-08T06:06:59Z</time></trkpt>
<trkpt lat="39.780491" lon="-7.877783">
<ele>570</ele>
<time>2026-05-08T06:07:04Z</time></trkpt>
<trkpt lat="39.78064" lon="-7.877567">
<ele>572</ele>
<time>2026-05-08T06:07:08Z</time></trkpt>
<trkpt lat="39.780755" lon="-7.877341">
<ele>572</ele>
<time>2026-05-08T06:07:12Z</time></trkpt>
<trkpt lat="39.780979" lon="-7.87676">
<ele>572</ele>
<time>2026-05-08T06:07:22Z</time></trkpt>
<trkpt lat="39.781106" lon="-7.876478">
<ele>572</ele>
<time>2026-05-08T06:07:28Z</time></trkpt>
<trkpt lat="39.78122" lon="-7.876263">
<ele>572</ele>
<time>2026-05-08T06:07:32Z</time></trkpt>
<trkpt lat="39.781375" lon="-7.876065">
<ele>573</ele>
<time>2026-05-08T06:07:36Z</time></trkpt>
<trkpt lat="39.781538" lon="-7.87593">
<ele>576</ele>
<time>2026-05-08T06:07:40Z</time></trkpt>
<trkpt lat="39.781794" lon="-7.875786">
<ele>577</ele>
<time>2026-05-08T06:07:45Z</time></trkpt>
<trkpt lat="39.782476" lon="-7.875581">
<ele>574</ele>
<time>2026-05-08T06:07:59Z</time></trkpt>
<trkpt lat="39.782739" lon="-7.875427">
<ele>571</ele>
<time>2026-05-08T06:08:05Z</time></trkpt>
<trkpt lat="39.782941" lon="-7.875221">
<ele>568</ele>
<time>2026-05-08T06:08:10Z</time></trkpt>
<trkpt lat="39.783079" lon="-7.874996">
<ele>566</ele>
<time>2026-05-08T06:08:15Z</time></trkpt>
<trkpt lat="39.783185" lon="-7.874753">
<ele>567</ele>
<time>2026-05-08T06:08:19Z</time></trkpt>
<trkpt lat="39.78339" lon="-7.873939">
<ele>571</ele>
<time>2026-05-08T06:08:32Z</time></trkpt>
<trkpt lat="39.783461" lon="-7.873707">
<ele>571</ele>
<time>2026-05-08T06:08:36Z</time></trkpt>
<trkpt lat="39.783563" lon="-7.873474">
<ele>572</ele>
<time>2026-05-08T06:08:40Z</time></trkpt>
<trkpt lat="39.783717" lon="-7.873254">
<ele>573</ele>
<time>2026-05-08T06:08:45Z</time></trkpt>
<trkpt lat="39.783909" lon="-7.873104">
<ele>573</ele>
<time>2026-05-08T06:08:49Z</time></trkpt>
<trkpt lat="39.784098" lon="-7.873032">
<ele>574</ele>
<time>2026-05-08T06:08:53Z</time></trkpt>
<trkpt lat="39.784315" lon="-7.873013">
<ele>574</ele>
<time>2026-05-08T06:08:58Z</time></trkpt>
<trkpt lat="39.784498" lon="-7.873042">
<ele>574</ele>
<time>2026-05-08T06:09:01Z</time></trkpt>
<trkpt lat="39.784672" lon="-7.873115">
<ele>575</ele>
<time>2026-05-08T06:09:05Z</time></trkpt>
<trkpt lat="39.785572" lon="-7.873838">
<ele>577</ele>
<time>2026-05-08T06:09:26Z</time></trkpt>
<trkpt lat="39.785855" lon="-7.874038">
<ele>575</ele>
<time>2026-05-08T06:09:33Z</time></trkpt>
<trkpt lat="39.786094" lon="-7.874135">
<ele>577</ele>
<time>2026-05-08T06:09:38Z</time></trkpt>
<trkpt lat="39.786331" lon="-7.874191">
<ele>579</ele>
<time>2026-05-08T06:09:42Z</time></trkpt>
<trkpt lat="39.78659" lon="-7.874187">
<ele>580</ele>
<time>2026-05-08T06:09:48Z</time></trkpt>
<trkpt lat="39.786875" lon="-7.874134">
<ele>579</ele>
<time>2026-05-08T06:09:53Z</time></trkpt>
<trkpt lat="39.787067" lon="-7.874054">
<ele>578</ele>
<time>2026-05-08T06:09:57Z</time></trkpt>
<trkpt lat="39.787269" lon="-7.873943">
<ele>576</ele>
<time>2026-05-08T06:10:02Z</time></trkpt>
<trkpt lat="39.787467" lon="-7.873775">
<ele>575</ele>
<time>2026-05-08T06:10:07Z</time></trkpt>
<trkpt lat="39.787641" lon="-7.873584">
<ele>576</ele>
<time>2026-05-08T06:10:11Z</time></trkpt>
<trkpt lat="39.787818" lon="-7.87332">
<ele>578</ele>
<time>2026-05-08T06:10:17Z</time></trkpt>
<trkpt lat="39.789467" lon="-7.870339">
<ele>583</ele>
<time>2026-05-08T06:11:13Z</time></trkpt>
<trkpt lat="39.78971" lon="-7.869987">
<ele>570</ele>
<time>2026-05-08T06:11:20Z</time></trkpt>
<trkpt lat="39.790036" lon="-7.869675">
<ele>561</ele>
<time>2026-05-08T06:11:28Z</time></trkpt>
<trkpt lat="39.790332" lon="-7.869517">
<ele>557</ele>
<time>2026-05-08T06:11:35Z</time></trkpt>
<trkpt lat="39.791012" lon="-7.869272">
<ele>550</ele>
<time>2026-05-08T06:11:49Z</time></trkpt>
<trkpt lat="39.79159" lon="-7.869074">
<ele>540</ele>
<time>2026-05-08T06:12:01Z</time></trkpt>
<trkpt lat="39.792953" lon="-7.868636">
<ele>524</ele>
<time>2026-05-08T06:12:29Z</time></trkpt>
<trkpt lat="39.793241" lon="-7.868517">
<ele>525</ele>
<time>2026-05-08T06:12:35Z</time></trkpt>
<trkpt lat="39.793499" lon="-7.868361">
<ele>527</ele>
<time>2026-05-08T06:12:41Z</time></trkpt>
<trkpt lat="39.793707" lon="-7.868177">
<ele>529</ele>
<time>2026-05-08T06:12:46Z</time></trkpt>
<trkpt lat="39.793847" lon="-7.86795">
<ele>529</ele>
<time>2026-05-08T06:12:50Z</time></trkpt>
<trkpt lat="39.793954" lon="-7.867724">
<ele>527</ele>
<time>2026-05-08T06:12:54Z</time></trkpt>
<trkpt lat="39.794041" lon="-7.867432">
<ele>526</ele>
<time>2026-05-08T06:12:59Z</time></trkpt>
<trkpt lat="39.794119" lon="-7.867098">
<ele>526</ele>
<time>2026-05-08T06:13:05Z</time></trkpt>
<trkpt lat="39.794281" lon="-7.866124">
<ele>519</ele>
<time>2026-05-08T06:13:20Z</time></trkpt>
<trkpt lat="39.794381" lon="-7.865677">
<ele>512</ele>
<time>2026-05-08T06:13:27Z</time></trkpt>
<trkpt lat="39.794507" lon="-7.865241">
<ele>504</ele>
<time>2026-05-08T06:13:34Z</time></trkpt>
<trkpt lat="39.795684" lon="-7.862517">
<ele>481</ele>
<time>2026-05-08T06:14:22Z</time></trkpt>
<trkpt lat="39.796017" lon="-7.861781">
<ele>473</ele>
<time>2026-05-08T06:14:36Z</time></trkpt>
<trkpt lat="39.796316" lon="-7.86127">
<ele>481</ele>
<time>2026-05-08T06:14:46Z</time></trkpt>
<trkpt lat="39.796608" lon="-7.860939">
<ele>489</ele>
<time>2026-05-08T06:14:53Z</time></trkpt>
<trkpt lat="39.796868" lon="-7.860721">
<ele>493</ele>
<time>2026-05-08T06:14:59Z</time></trkpt>
<trkpt lat="39.797131" lon="-7.86055">
<ele>497</ele>
<time>2026-05-08T06:15:05Z</time></trkpt>
<trkpt lat="39.797501" lon="-7.86041">
<ele>501</ele>
<time>2026-05-08T06:15:13Z</time></trkpt>
<trkpt lat="39.798877" lon="-7.860073">
<ele>514</ele>
<time>2026-05-08T06:15:41Z</time></trkpt>
<trkpt lat="39.799295" lon="-7.859945">
<ele>516</ele>
<time>2026-05-08T06:15:50Z</time></trkpt>
<trkpt lat="39.799583" lon="-7.859794">
<ele>518</ele>
<time>2026-05-08T06:15:56Z</time></trkpt>
<trkpt lat="39.799791" lon="-7.859649">
<ele>521</ele>
<time>2026-05-08T06:16:01Z</time></trkpt>
<trkpt lat="39.799974" lon="-7.859484">
<ele>524</ele>
<time>2026-05-08T06:16:05Z</time></trkpt>
<trkpt lat="39.80019" lon="-7.859243">
<ele>527</ele>
<time>2026-05-08T06:16:11Z</time></trkpt>
<trkpt lat="39.800357" lon="-7.859003">
<ele>528</ele>
<time>2026-05-08T06:16:16Z</time></trkpt>
<trkpt lat="39.801045" lon="-7.857862">
<ele>537</ele>
<time>2026-05-08T06:16:38Z</time></trkpt>
<trkpt lat="39.801323" lon="-7.857439">
<ele>539</ele>
<time>2026-05-08T06:16:47Z</time></trkpt>
<trkpt lat="39.801551" lon="-7.857177">
<ele>539</ele>
<time>2026-05-08T06:16:53Z</time></trkpt>
<trkpt lat="39.801971" lon="-7.856908">
<ele>543</ele>
<time>2026-05-08T06:17:02Z</time></trkpt>
<trkpt lat="39.802301" lon="-7.856796">
<ele>546</ele>
<time>2026-05-08T06:17:09Z</time></trkpt>
<trkpt lat="39.802817" lon="-7.85657">
<ele>550</ele>
<time>2026-05-08T06:17:20Z</time></trkpt>
<trkpt lat="39.803053" lon="-7.856428">
<ele>553</ele>
<time>2026-05-08T06:17:25Z</time></trkpt>
<trkpt lat="39.803289" lon="-7.856254">
<ele>556</ele>
<time>2026-05-08T06:17:31Z</time></trkpt>
<trkpt lat="39.803843" lon="-7.85568">
<ele>559</ele>
<time>2026-05-08T06:17:45Z</time></trkpt>
<trkpt lat="39.804053" lon="-7.855519">
<ele>559</ele>
<time>2026-05-08T06:17:50Z</time></trkpt>
<trkpt lat="39.804263" lon="-7.855428">
<ele>559</ele>
<time>2026-05-08T06:17:54Z</time></trkpt>
<trkpt lat="39.804556" lon="-7.855417">
<ele>560</ele>
<time>2026-05-08T06:18:00Z</time></trkpt>
<trkpt lat="39.804771" lon="-7.855485">
<ele>559</ele>
<time>2026-05-08T06:18:04Z</time></trkpt>
<trkpt lat="39.805014" lon="-7.855637">
<ele>558</ele>
<time>2026-05-08T06:18:10Z</time></trkpt>
<trkpt lat="39.805465" lon="-7.85601">
<ele>559</ele>
<time>2026-05-08T06:18:21Z</time></trkpt>
<trkpt lat="39.805745" lon="-7.856161">
<ele>560</ele>
<time>2026-05-08T06:18:27Z</time></trkpt>
<trkpt lat="39.806009" lon="-7.856193">
<ele>558</ele>
<time>2026-05-08T06:18:32Z</time></trkpt>
<trkpt lat="39.806274" lon="-7.856112">
<ele>557</ele>
<time>2026-05-08T06:18:37Z</time></trkpt>
<trkpt lat="39.806473" lon="-7.855976">
<ele>557</ele>
<time>2026-05-08T06:18:42Z</time></trkpt>
<trkpt lat="39.806672" lon="-7.855728">
<ele>557</ele>
<time>2026-05-08T06:18:47Z</time></trkpt>
<trkpt lat="39.807055" lon="-7.854988">
<ele>555</ele>
<time>2026-05-08T06:19:01Z</time></trkpt>
<trkpt lat="39.807213" lon="-7.854733">
<ele>556</ele>
<time>2026-05-08T06:19:06Z</time></trkpt>
<trkpt lat="39.8074" lon="-7.8545">
<ele>556</ele>
<time>2026-05-08T06:19:11Z</time></trkpt>
<trkpt lat="39.807638" lon="-7.85427">
<ele>557</ele>
<time>2026-05-08T06:19:17Z</time></trkpt>
<trkpt lat="39.808058" lon="-7.853944">
<ele>560</ele>
<time>2026-05-08T06:19:27Z</time></trkpt>
<trkpt lat="39.808202" lon="-7.853798">
<ele>563</ele>
<time>2026-05-08T06:19:31Z</time></trkpt>
<trkpt lat="39.809446" lon="-7.8529">
<ele>585</ele>
<time>2026-05-08T06:19:59Z</time></trkpt>
<trkpt lat="39.809698" lon="-7.852698">
<ele>586</ele>
<time>2026-05-08T06:20:05Z</time></trkpt>
<trkpt lat="39.809854" lon="-7.852605">
<ele>586</ele>
<time>2026-05-08T06:20:09Z</time></trkpt>
<trkpt lat="39.810027" lon="-7.852525">
<ele>586</ele>
<time>2026-05-08T06:20:12Z</time></trkpt>
<trkpt lat="39.810348" lon="-7.852449">
<ele>588</ele>
<time>2026-05-08T06:20:19Z</time></trkpt>
<trkpt lat="39.810508" lon="-7.852443">
<ele>589</ele>
<time>2026-05-08T06:20:22Z</time></trkpt>
<trkpt lat="39.810828" lon="-7.852483">
<ele>592</ele>
<time>2026-05-08T06:20:28Z</time></trkpt>
<trkpt lat="39.811252" lon="-7.852649">
<ele>598</ele>
<time>2026-05-08T06:20:37Z</time></trkpt>
<trkpt lat="39.811608" lon="-7.852829">
<ele>605</ele>
<time>2026-05-08T06:20:45Z</time></trkpt>
<trkpt lat="39.811796" lon="-7.852954">
<ele>608</ele>
<time>2026-05-08T06:20:49Z</time></trkpt>
<trkpt lat="39.813488" lon="-7.8538">
<ele>626</ele>
<time>2026-05-08T06:21:26Z</time></trkpt>
<trkpt lat="39.813854" lon="-7.85406">
<ele>627</ele>
<time>2026-05-08T06:21:34Z</time></trkpt>
<trkpt lat="39.814344" lon="-7.854557">
<ele>626</ele>
<time>2026-05-08T06:21:46Z</time></trkpt>
<trkpt lat="39.815128" lon="-7.855447">
<ele>631</ele>
<time>2026-05-08T06:22:07Z</time></trkpt>
<trkpt lat="39.815443" lon="-7.855699">
<ele>633</ele>
<time>2026-05-08T06:22:15Z</time></trkpt>
<trkpt lat="39.815883" lon="-7.855881">
<ele>637</ele>
<time>2026-05-08T06:22:24Z</time></trkpt>
<trkpt lat="39.816274" lon="-7.855886">
<ele>640</ele>
<time>2026-05-08T06:22:32Z</time></trkpt>
<trkpt lat="39.817849" lon="-7.855703">
<ele>649</ele>
<time>2026-05-08T06:23:03Z</time></trkpt>
<trkpt lat="39.818166" lon="-7.85569">
<ele>652</ele>
<time>2026-05-08T06:23:10Z</time></trkpt>
<trkpt lat="39.818444" lon="-7.855735">
<ele>655</ele>
<time>2026-05-08T06:23:15Z</time></trkpt>
<trkpt lat="39.81874" lon="-7.855895">
<ele>658</ele>
<time>2026-05-08T06:23:22Z</time></trkpt>
<trkpt lat="39.818927" lon="-7.856104">
<ele>661</ele>
<time>2026-05-08T06:23:27Z</time></trkpt>
<trkpt lat="39.819101" lon="-7.856376">
<ele>665</ele>
<time>2026-05-08T06:23:32Z</time></trkpt>
<trkpt lat="39.819246" lon="-7.856813">
<ele>671</ele>
<time>2026-05-08T06:23:39Z</time></trkpt>
<trkpt lat="39.819395" lon="-7.85756">
<ele>678</ele>
<time>2026-05-08T06:23:51Z</time></trkpt>
<trkpt lat="39.819496" lon="-7.858183">
<ele>685</ele>
<time>2026-05-08T06:24:01Z</time></trkpt>
<trkpt lat="39.819598" lon="-7.858655">
<ele>689</ele>
<time>2026-05-08T06:24:09Z</time></trkpt>
<trkpt lat="39.819677" lon="-7.8589">
<ele>691</ele>
<time>2026-05-08T06:24:13Z</time></trkpt>
<trkpt lat="39.819806" lon="-7.859166">
<ele>694</ele>
<time>2026-05-08T06:24:18Z</time></trkpt>
<trkpt lat="39.819988" lon="-7.859448">
<ele>698</ele>
<time>2026-05-08T06:24:23Z</time></trkpt>
<trkpt lat="39.820221" lon="-7.859668">
<ele>700</ele>
<time>2026-05-08T06:24:29Z</time></trkpt>
<trkpt lat="39.820497" lon="-7.859841">
<ele>704</ele>
<time>2026-05-08T06:24:35Z</time></trkpt>
<trkpt lat="39.822223" lon="-7.860656">
<ele>721</ele>
<time>2026-05-08T06:25:12Z</time></trkpt>
<trkpt lat="39.823037" lon="-7.861061">
<ele>728</ele>
<time>2026-05-08T06:25:29Z</time></trkpt>
<trkpt lat="39.823552" lon="-7.861231">
<ele>732</ele>
<time>2026-05-08T06:25:40Z</time></trkpt>
<trkpt lat="39.823956" lon="-7.861318">
<ele>733</ele>
<time>2026-05-08T06:25:48Z</time></trkpt>
<trkpt lat="39.824405" lon="-7.861365">
<ele>737</ele>
<time>2026-05-08T06:25:57Z</time></trkpt>
<trkpt lat="39.825857" lon="-7.861393">
<ele>749</ele>
<time>2026-05-08T06:26:26Z</time></trkpt>
<trkpt lat="39.827078" lon="-7.861463">
<ele>769</ele>
<time>2026-05-08T06:26:51Z</time></trkpt>
<trkpt lat="39.827355" lon="-7.861446">
<ele>773</ele>
<time>2026-05-08T06:26:56Z</time></trkpt>
<trkpt lat="39.82785" lon="-7.861293">
<ele>776</ele>
<time>2026-05-08T06:27:07Z</time></trkpt>
<trkpt lat="39.828208" lon="-7.861086">
<ele>777</ele>
<time>2026-05-08T06:27:15Z</time></trkpt>
<trkpt lat="39.828738" lon="-7.860705">
<ele>776</ele>
<time>2026-05-08T06:27:27Z</time></trkpt>
<trkpt lat="39.829018" lon="-7.860499">
<ele>776</ele>
<time>2026-05-08T06:27:33Z</time></trkpt>
<trkpt lat="39.829283" lon="-7.860355">
<ele>777</ele>
<time>2026-05-08T06:27:39Z</time></trkpt>
<trkpt lat="39.829473" lon="-7.860293">
<ele>778</ele>
<time>2026-05-08T06:27:43Z</time></trkpt>
<trkpt lat="39.829849" lon="-7.860235">
<ele>782</ele>
<time>2026-05-08T06:27:50Z</time></trkpt>
<trkpt lat="39.830519" lon="-7.860154">
<ele>788</ele>
<time>2026-05-08T06:28:04Z</time></trkpt>
<trkpt lat="39.831768" lon="-7.860025">
<ele>804</ele>
<time>2026-05-08T06:28:29Z</time></trkpt>
<trkpt lat="39.832406" lon="-7.860015">
<ele>813</ele>
<time>2026-05-08T06:28:42Z</time></trkpt>
<trkpt lat="39.832773" lon="-7.859954">
<ele>818</ele>
<time>2026-05-08T06:28:49Z</time></trkpt>
<trkpt lat="39.832995" lon="-7.859883">
<ele>822</ele>
<time>2026-05-08T06:28:54Z</time></trkpt>
<trkpt lat="39.83324" lon="-7.859752">
<ele>826</ele>
<time>2026-05-08T06:28:59Z</time></trkpt>
<trkpt lat="39.83346" lon="-7.859579">
<ele>827</ele>
<time>2026-05-08T06:29:04Z</time></trkpt>
<trkpt lat="39.833643" lon="-7.859398">
<ele>826</ele>
<time>2026-05-08T06:29:09Z</time></trkpt>
<trkpt lat="39.833809" lon="-7.85919">
<ele>826</ele>
<time>2026-05-08T06:29:13Z</time></trkpt>
<trkpt lat="39.835208" lon="-7.856898">
<ele>827</ele>
<time>2026-05-08T06:29:58Z</time></trkpt>
<trkpt lat="39.835629" lon="-7.856261">
<ele>825</ele>
<time>2026-05-08T06:30:11Z</time></trkpt>
<trkpt lat="39.835882" lon="-7.85597">
<ele>828</ele>
<time>2026-05-08T06:30:18Z</time></trkpt>
<trkpt lat="39.83617" lon="-7.855706">
<ele>830</ele>
<time>2026-05-08T06:30:25Z</time></trkpt>
<trkpt lat="39.836559" lon="-7.855436">
<ele>829</ele>
<time>2026-05-08T06:30:34Z</time></trkpt>
<trkpt lat="39.837788" lon="-7.854725">
<ele>825</ele>
<time>2026-05-08T06:31:01Z</time></trkpt>
<trkpt lat="39.839985" lon="-7.853407">
<ele>822</ele>
<time>2026-05-08T06:31:49Z</time></trkpt>
<trkpt lat="39.840451" lon="-7.853188">
<ele>819</ele>
<time>2026-05-08T06:31:59Z</time></trkpt>
<trkpt lat="39.841569" lon="-7.852745">
<ele>813</ele>
<time>2026-05-08T06:32:23Z</time></trkpt>
<trkpt lat="39.841713" lon="-7.852727">
<ele>813</ele>
<time>2026-05-08T06:32:26Z</time></trkpt>
<trkpt lat="39.841838" lon="-7.852725">
<ele>813</ele>
<time>2026-05-08T06:32:28Z</time></trkpt>
<trkpt lat="39.842135" lon="-7.852856">
<ele>813</ele>
<time>2026-05-08T06:32:34Z</time></trkpt>
<trkpt lat="39.842702" lon="-7.853288">
<ele>812</ele>
<time>2026-05-08T06:32:48Z</time></trkpt>
<trkpt lat="39.843077" lon="-7.853647">
<ele>810</ele>
<time>2026-05-08T06:32:57Z</time></trkpt>
<trkpt lat="39.843238" lon="-7.853867">
<ele>809</ele>
<time>2026-05-08T06:33:02Z</time></trkpt>
<trkpt lat="39.843769" lon="-7.855009">
<ele>800</ele>
<time>2026-05-08T06:33:22Z</time></trkpt>
<trkpt lat="39.844093" lon="-7.855483">
<ele>799</ele>
<time>2026-05-08T06:33:32Z</time></trkpt>
<trkpt lat="39.844224" lon="-7.855781">
<ele>798</ele>
<time>2026-05-08T06:33:37Z</time></trkpt>
<trkpt lat="39.844402" lon="-7.856531">
<ele>790</ele>
<time>2026-05-08T06:33:49Z</time></trkpt>
<trkpt lat="39.844483" lon="-7.856737">
<ele>789</ele>
<time>2026-05-08T06:33:53Z</time></trkpt>
<trkpt lat="39.844595" lon="-7.856943">
<ele>788</ele>
<time>2026-05-08T06:33:57Z</time></trkpt>
<trkpt lat="39.844699" lon="-7.857054">
<ele>788</ele>
<time>2026-05-08T06:33:59Z</time></trkpt>
<trkpt lat="39.844833" lon="-7.857164">
<ele>787</ele>
<time>2026-05-08T06:34:03Z</time></trkpt>
<trkpt lat="39.845059" lon="-7.857238">
<ele>788</ele>
<time>2026-05-08T06:34:07Z</time></trkpt>
<trkpt lat="39.845664" lon="-7.857312">
<ele>785</ele>
<time>2026-05-08T06:34:19Z</time></trkpt>
<trkpt lat="39.845898" lon="-7.857368">
<ele>783</ele>
<time>2026-05-08T06:34:24Z</time></trkpt>
<trkpt lat="39.846145" lon="-7.857481">
<ele>782</ele>
<time>2026-05-08T06:34:29Z</time></trkpt>
<trkpt lat="39.846609" lon="-7.85782">
<ele>781</ele>
<time>2026-05-08T06:34:40Z</time></trkpt>
<trkpt lat="39.846785" lon="-7.857924">
<ele>780</ele>
<time>2026-05-08T06:34:44Z</time></trkpt>
<trkpt lat="39.84697" lon="-7.857966">
<ele>779</ele>
<time>2026-05-08T06:34:48Z</time></trkpt>
<trkpt lat="39.847176" lon="-7.857944">
<ele>780</ele>
<time>2026-05-08T06:34:52Z</time></trkpt>
<trkpt lat="39.847343" lon="-7.857887">
<ele>782</ele>
<time>2026-05-08T06:34:55Z</time></trkpt>
<trkpt lat="39.847779" lon="-7.857594">
<ele>787</ele>
<time>2026-05-08T06:35:05Z</time></trkpt>
<trkpt lat="39.84795" lon="-7.857532">
<ele>788</ele>
<time>2026-05-08T06:35:09Z</time></trkpt>
<trkpt lat="39.848152" lon="-7.857501">
<ele>787</ele>
<time>2026-05-08T06:35:13Z</time></trkpt>
<trkpt lat="39.849071" lon="-7.857553">
<ele>785</ele>
<time>2026-05-08T06:35:31Z</time></trkpt>
<trkpt lat="39.849358" lon="-7.857606">
<ele>788</ele>
<time>2026-05-08T06:35:37Z</time></trkpt>
<trkpt lat="39.849544" lon="-7.857709">
<ele>791</ele>
<time>2026-05-08T06:35:41Z</time></trkpt>
<trkpt lat="39.84972" lon="-7.857908">
<ele>794</ele>
<time>2026-05-08T06:35:46Z</time></trkpt>
<trkpt lat="39.850312" lon="-7.858748">
<ele>802</ele>
<time>2026-05-08T06:36:03Z</time></trkpt>
<trkpt lat="39.850535" lon="-7.858923">
<ele>804</ele>
<time>2026-05-08T06:36:09Z</time></trkpt>
<trkpt lat="39.850775" lon="-7.859001">
<ele>807</ele>
<time>2026-05-08T06:36:14Z</time></trkpt>
<trkpt lat="39.851057" lon="-7.859008">
<ele>807</ele>
<time>2026-05-08T06:36:19Z</time></trkpt>
<trkpt lat="39.852381" lon="-7.858801">
<ele>811</ele>
<time>2026-05-08T06:36:46Z</time></trkpt>
<trkpt lat="39.852602" lon="-7.85881">
<ele>812</ele>
<time>2026-05-08T06:36:50Z</time></trkpt>
<trkpt lat="39.85282" lon="-7.858892">
<ele>814</ele>
<time>2026-05-08T06:36:55Z</time></trkpt>
<trkpt lat="39.853049" lon="-7.85905">
<ele>814</ele>
<time>2026-05-08T06:37:00Z</time></trkpt>
<trkpt lat="39.853842" lon="-7.859837">
<ele>821</ele>
<time>2026-05-08T06:37:20Z</time></trkpt>
<trkpt lat="39.853966" lon="-7.859941">
<ele>822</ele>
<time>2026-05-08T06:37:23Z</time></trkpt>
<trkpt lat="39.854124" lon="-7.860026">
<ele>824</ele>
<time>2026-05-08T06:37:26Z</time></trkpt>
<trkpt lat="39.854341" lon="-7.860103">
<ele>825</ele>
<time>2026-05-08T06:37:31Z</time></trkpt>
<trkpt lat="39.854563" lon="-7.860094">
<ele>827</ele>
<time>2026-05-08T06:37:35Z</time></trkpt>
<trkpt lat="39.855154" lon="-7.859942">
<ele>836</ele>
<time>2026-05-08T06:37:47Z</time></trkpt>
<trkpt lat="39.85543" lon="-7.859974">
<ele>839</ele>
<time>2026-05-08T06:37:53Z</time></trkpt>
<trkpt lat="39.855627" lon="-7.860081">
<ele>839</ele>
<time>2026-05-08T06:37:57Z</time></trkpt>
<trkpt lat="39.856354" lon="-7.860667">
<ele>838</ele>
<time>2026-05-08T06:38:14Z</time></trkpt>
<trkpt lat="39.856566" lon="-7.860755">
<ele>840</ele>
<time>2026-05-08T06:38:19Z</time></trkpt>
<trkpt lat="39.85679" lon="-7.86076">
<ele>842</ele>
<time>2026-05-08T06:38:23Z</time></trkpt>
<trkpt lat="39.857009" lon="-7.860712">
<ele>843</ele>
<time>2026-05-08T06:38:28Z</time></trkpt>
<trkpt lat="39.858557" lon="-7.859806">
<ele>860</ele>
<time>2026-05-08T06:39:02Z</time></trkpt>
<trkpt lat="39.858903" lon="-7.859632">
<ele>861</ele>
<time>2026-05-08T06:39:09Z</time></trkpt>
<trkpt lat="39.86007" lon="-7.859309">
<ele>865</ele>
<time>2026-05-08T06:39:33Z</time></trkpt>
<trkpt lat="39.860799" lon="-7.85894">
<ele>868</ele>
<time>2026-05-08T06:39:49Z</time></trkpt>
<trkpt lat="39.861153" lon="-7.858915">
<ele>870</ele>
<time>2026-05-08T06:39:56Z</time></trkpt>
<trkpt lat="39.861643" lon="-7.858935">
<ele>871</ele>
<time>2026-05-08T06:40:06Z</time></trkpt>
<trkpt lat="39.861901" lon="-7.85907">
<ele>873</ele>
<time>2026-05-08T06:40:11Z</time></trkpt>
<trkpt lat="39.862466" lon="-7.859539">
<ele>874</ele>
<time>2026-05-08T06:40:25Z</time></trkpt>
<trkpt lat="39.862744" lon="-7.859594">
<ele>876</ele>
<time>2026-05-08T06:40:30Z</time></trkpt>
<trkpt lat="39.863162" lon="-7.859526">
<ele>881</ele>
<time>2026-05-08T06:40:39Z</time></trkpt>
<trkpt lat="39.863307" lon="-7.859535">
<ele>882</ele>
<time>2026-05-08T06:40:42Z</time></trkpt>
<trkpt lat="39.863663" lon="-7.859745">
<ele>888</ele>
<time>2026-05-08T06:40:50Z</time></trkpt>
<trkpt lat="39.863761" lon="-7.860017">
<ele>886</ele>
<time>2026-05-08T06:40:54Z</time></trkpt>
<trkpt lat="39.863896" lon="-7.860876">
<ele>886</ele>
<time>2026-05-08T06:41:08Z</time></trkpt>
<trkpt lat="39.864131" lon="-7.861218">
<ele>887</ele>
<time>2026-05-08T06:41:15Z</time></trkpt>
<trkpt lat="39.865306" lon="-7.862235">
<ele>892</ele>
<time>2026-05-08T06:41:43Z</time></trkpt>
<trkpt lat="39.865612" lon="-7.86252">
<ele>892</ele>
<time>2026-05-08T06:41:51Z</time></trkpt>
<trkpt lat="39.865854" lon="-7.862932">
<ele>894</ele>
<time>2026-05-08T06:41:58Z</time></trkpt>
<trkpt lat="39.866295" lon="-7.863993">
<ele>897</ele>
<time>2026-05-08T06:42:17Z</time></trkpt>
<trkpt lat="39.866605" lon="-7.8645">
<ele>895</ele>
<time>2026-05-08T06:42:27Z</time></trkpt>
<trkpt lat="39.867941" lon="-7.866044">
<ele>907</ele>
<time>2026-05-08T06:43:03Z</time></trkpt>
<trkpt lat="39.868342" lon="-7.866471">
<ele>913</ele>
<time>2026-05-08T06:43:13Z</time></trkpt>
<trkpt lat="39.869091" lon="-7.86729">
<ele>929</ele>
<time>2026-05-08T06:43:33Z</time></trkpt>
<trkpt lat="39.869319" lon="-7.867568">
<ele>929</ele>
<time>2026-05-08T06:43:39Z</time></trkpt>
<trkpt lat="39.869503" lon="-7.867954">
<ele>927</ele>
<time>2026-05-08T06:43:46Z</time></trkpt>
<trkpt lat="39.869592" lon="-7.868587">
<ele>925</ele>
<time>2026-05-08T06:43:56Z</time></trkpt>
<trkpt lat="39.869516" lon="-7.869392">
<ele>932</ele>
<time>2026-05-08T06:44:08Z</time></trkpt>
<trkpt lat="39.869503" lon="-7.869681">
<ele>936</ele>
<time>2026-05-08T06:44:13Z</time></trkpt>
<trkpt lat="39.86952" lon="-7.869954">
<ele>939</ele>
<time>2026-05-08T06:44:17Z</time></trkpt>
<trkpt lat="39.869582" lon="-7.870184">
<ele>943</ele>
<time>2026-05-08T06:44:21Z</time></trkpt>
<trkpt lat="39.86984" lon="-7.870641">
<ele>946</ele>
<time>2026-05-08T06:44:30Z</time></trkpt>
<trkpt lat="39.870987" lon="-7.872048">
<ele>952</ele>
<time>2026-05-08T06:45:01Z</time></trkpt>
<trkpt lat="39.87119" lon="-7.872328">
<ele>954</ele>
<time>2026-05-08T06:45:07Z</time></trkpt>
<trkpt lat="39.871343" lon="-7.872629">
<ele>956</ele>
<time>2026-05-08T06:45:13Z</time></trkpt>
<trkpt lat="39.872993" lon="-7.876334">
<ele>977</ele>
<time>2026-05-08T06:46:18Z</time></trkpt>
<trkpt lat="39.873253" lon="-7.876766">
<ele>981</ele>
<time>2026-05-08T06:46:27Z</time></trkpt>
<trkpt lat="39.873409" lon="-7.876922">
<ele>983</ele>
<time>2026-05-08T06:46:31Z</time></trkpt>
<trkpt lat="39.87359" lon="-7.877022">
<ele>985</ele>
<time>2026-05-08T06:46:35Z</time></trkpt>
<trkpt lat="39.874666" lon="-7.877271">
<ele>985</ele>
<time>2026-05-08T06:46:57Z</time></trkpt>
<trkpt lat="39.87576" lon="-7.87792">
<ele>981</ele>
<time>2026-05-08T06:47:21Z</time></trkpt>
<trkpt lat="39.87604" lon="-7.878016">
<ele>981</ele>
<time>2026-05-08T06:47:27Z</time></trkpt>
<trkpt lat="39.877598" lon="-7.878064">
<ele>967</ele>
<time>2026-05-08T06:47:58Z</time></trkpt>
<trkpt lat="39.878199" lon="-7.877945">
<ele>966</ele>
<time>2026-05-08T06:48:10Z</time></trkpt>
<trkpt lat="39.878685" lon="-7.877808">
<ele>960</ele>
<time>2026-05-08T06:48:20Z</time></trkpt>
<trkpt lat="39.87925" lon="-7.877581">
<ele>953</ele>
<time>2026-05-08T06:48:32Z</time></trkpt>
<trkpt lat="39.87949" lon="-7.87744">
<ele>954</ele>
<time>2026-05-08T06:48:37Z</time></trkpt>
<trkpt lat="39.879758" lon="-7.877136">
<ele>952</ele>
<time>2026-05-08T06:48:44Z</time></trkpt>
<trkpt lat="39.880337" lon="-7.875896">
<ele>942</ele>
<time>2026-05-08T06:49:06Z</time></trkpt>
<trkpt lat="39.880474" lon="-7.875694">
<ele>940</ele>
<time>2026-05-08T06:49:11Z</time></trkpt>
<trkpt lat="39.880805" lon="-7.8754">
<ele>938</ele>
<time>2026-05-08T06:49:19Z</time></trkpt>
<trkpt lat="39.881505" lon="-7.874994">
<ele>927</ele>
<time>2026-05-08T06:49:34Z</time></trkpt>
<trkpt lat="39.88238" lon="-7.874441">
<ele>920</ele>
<time>2026-05-08T06:49:53Z</time></trkpt>
<trkpt lat="39.882547" lon="-7.874399">
<ele>920</ele>
<time>2026-05-08T06:49:57Z</time></trkpt>
<trkpt lat="39.882834" lon="-7.874425">
<ele>917</ele>
<time>2026-05-08T06:50:03Z</time></trkpt>
<trkpt lat="39.883004" lon="-7.874486">
<ele>916</ele>
<time>2026-05-08T06:50:06Z</time></trkpt>
<trkpt lat="39.883313" lon="-7.874786">
<ele>915</ele>
<time>2026-05-08T06:50:14Z</time></trkpt>
<trkpt lat="39.883418" lon="-7.875013">
<ele>913</ele>
<time>2026-05-08T06:50:18Z</time></trkpt>
<trkpt lat="39.883701" lon="-7.876046">
<ele>902</ele>
<time>2026-05-08T06:50:35Z</time></trkpt>
<trkpt lat="39.883944" lon="-7.877288">
<ele>896</ele>
<time>2026-05-08T06:50:55Z</time></trkpt>
<trkpt lat="39.883908" lon="-7.878215">
<ele>892</ele>
<time>2026-05-08T06:51:09Z</time></trkpt>
<trkpt lat="39.883973" lon="-7.878744">
<ele>892</ele>
<time>2026-05-08T06:51:17Z</time></trkpt>
<trkpt lat="39.884188" lon="-7.879071">
<ele>888</ele>
<time>2026-05-08T06:51:24Z</time></trkpt>
<trkpt lat="39.884524" lon="-7.879283">
<ele>884</ele>
<time>2026-05-08T06:51:31Z</time></trkpt>
<trkpt lat="39.885965" lon="-7.879687">
<ele>864</ele>
<time>2026-05-08T06:52:01Z</time></trkpt>
<trkpt lat="39.886559" lon="-7.87993">
<ele>861</ele>
<time>2026-05-08T06:52:13Z</time></trkpt>
<trkpt lat="39.887038" lon="-7.880347">
<ele>855</ele>
<time>2026-05-08T06:52:25Z</time></trkpt>
<trkpt lat="39.887534" lon="-7.880686">
<ele>849</ele>
<time>2026-05-08T06:52:36Z</time></trkpt>
<trkpt lat="39.889296" lon="-7.882066">
<ele>827</ele>
<time>2026-05-08T06:53:17Z</time></trkpt>
<trkpt lat="39.88957" lon="-7.882152">
<ele>824</ele>
<time>2026-05-08T06:53:23Z</time></trkpt>
<trkpt lat="39.889952" lon="-7.882103">
<ele>826</ele>
<time>2026-05-08T06:53:30Z</time></trkpt>
<trkpt lat="39.891142" lon="-7.88166">
<ele>817</ele>
<time>2026-05-08T06:53:55Z</time></trkpt>
<trkpt lat="39.891667" lon="-7.881741">
<ele>810</ele>
<time>2026-05-08T06:54:06Z</time></trkpt>
<trkpt lat="39.893658" lon="-7.883135">
<ele>790</ele>
<time>2026-05-08T06:54:51Z</time></trkpt>
<trkpt lat="39.894017" lon="-7.88359">
<ele>785</ele>
<time>2026-05-08T06:55:01Z</time></trkpt>
<trkpt lat="39.894309" lon="-7.884293">
<ele>778</ele>
<time>2026-05-08T06:55:13Z</time></trkpt>
<trkpt lat="39.894535" lon="-7.885397">
<ele>770</ele>
<time>2026-05-08T06:55:31Z</time></trkpt>
<trkpt lat="39.894622" lon="-7.88597">
<ele>767</ele>
<time>2026-05-08T06:55:40Z</time></trkpt>
<trkpt lat="39.894783" lon="-7.886818">
<ele>762</ele>
<time>2026-05-08T06:55:53Z</time></trkpt>
<trkpt lat="39.894987" lon="-7.887335">
<ele>760</ele>
<time>2026-05-08T06:56:02Z</time></trkpt>
<trkpt lat="39.895302" lon="-7.887672">
<ele>756</ele>
<time>2026-05-08T06:56:11Z</time></trkpt>
<trkpt lat="39.895478" lon="-7.887816">
<ele>753</ele>
<time>2026-05-08T06:56:15Z</time></trkpt>
<trkpt lat="39.896111" lon="-7.88847">
<ele>740</ele>
<time>2026-05-08T06:56:31Z</time></trkpt>
<trkpt lat="39.896893" lon="-7.889025">
<ele>739</ele>
<time>2026-05-08T06:56:49Z</time></trkpt>
<trkpt lat="39.897749" lon="-7.889514">
<ele>732</ele>
<time>2026-05-08T06:57:07Z</time></trkpt>
<trkpt lat="39.898907" lon="-7.890112">
<ele>724</ele>
<time>2026-05-08T06:57:32Z</time></trkpt>
<trkpt lat="39.899174" lon="-7.890415">
<ele>719</ele>
<time>2026-05-08T06:57:40Z</time></trkpt>
<trkpt lat="39.89928" lon="-7.890683">
<ele>716</ele>
<time>2026-05-08T06:57:44Z</time></trkpt>
<trkpt lat="39.899414" lon="-7.891203">
<ele>710</ele>
<time>2026-05-08T06:57:53Z</time></trkpt>
<trkpt lat="39.899473" lon="-7.891515">
<ele>707</ele>
<time>2026-05-08T06:57:58Z</time></trkpt>
<trkpt lat="39.899628" lon="-7.892021">
<ele>703</ele>
<time>2026-05-08T06:58:06Z</time></trkpt>
<trkpt lat="39.899882" lon="-7.892352">
<ele>701</ele>
<time>2026-05-08T06:58:13Z</time></trkpt>
<trkpt lat="39.900071" lon="-7.892499">
<ele>700</ele>
<time>2026-05-08T06:58:18Z</time></trkpt>
<trkpt lat="39.900363" lon="-7.892558">
<ele>696</ele>
<time>2026-05-08T06:58:23Z</time></trkpt>
<trkpt lat="39.900743" lon="-7.892456">
<ele>696</ele>
<time>2026-05-08T06:58:31Z</time></trkpt>
<trkpt lat="39.900933" lon="-7.892353">
<ele>696</ele>
<time>2026-05-08T06:58:35Z</time></trkpt>
<trkpt lat="39.901503" lon="-7.891976">
<ele>693</ele>
<time>2026-05-08T06:58:48Z</time></trkpt>
<trkpt lat="39.901875" lon="-7.891809">
<ele>692</ele>
<time>2026-05-08T06:58:56Z</time></trkpt>
<trkpt lat="39.902385" lon="-7.891758">
<ele>688</ele>
<time>2026-05-08T06:59:06Z</time></trkpt>
<trkpt lat="39.908093" lon="-7.891863">
<ele>628</ele>
<time>2026-05-08T07:01:01Z</time></trkpt>
<trkpt lat="39.909612" lon="-7.891358">
<ele>617</ele>
<time>2026-05-08T07:01:32Z</time></trkpt>
<trkpt lat="39.910357" lon="-7.89101">
<ele>611</ele>
<time>2026-05-08T07:01:48Z</time></trkpt>
<trkpt lat="39.911117" lon="-7.890147">
<ele>605</ele>
<time>2026-05-08T07:02:08Z</time></trkpt>
<trkpt lat="39.911183" lon="-7.890063">
<ele>604</ele>
<time>2026-05-08T07:02:10Z</time></trkpt>
<trkpt lat="39.911434" lon="-7.88968">
<ele>602</ele>
<time>2026-05-08T07:02:18Z</time></trkpt>
<trkpt lat="39.911723" lon="-7.888944">
<ele>597</ele>
<time>2026-05-08T07:02:30Z</time></trkpt>
<trkpt lat="39.91197" lon="-7.888493">
<ele>593</ele>
<time>2026-05-08T07:02:39Z</time></trkpt>
<trkpt lat="39.91219" lon="-7.888291">
<ele>588</ele>
<time>2026-05-08T07:02:44Z</time></trkpt>
<trkpt lat="39.912594" lon="-7.888165">
<ele>580</ele>
<time>2026-05-08T07:02:53Z</time></trkpt>
<trkpt lat="39.913483" lon="-7.888219">
<ele>571</ele>
<time>2026-05-08T07:03:10Z</time></trkpt>
<trkpt lat="39.913869" lon="-7.888147">
<ele>568</ele>
<time>2026-05-08T07:03:18Z</time></trkpt>
<trkpt lat="39.914211" lon="-7.887969">
<ele>566</ele>
<time>2026-05-08T07:03:26Z</time></trkpt>
<trkpt lat="39.915562" lon="-7.887053">
<ele>555</ele>
<time>2026-05-08T07:03:56Z</time></trkpt>
<trkpt lat="39.916012" lon="-7.886907">
<ele>555</ele>
<time>2026-05-08T07:04:05Z</time></trkpt>
<trkpt lat="39.91638" lon="-7.886959">
<ele>555</ele>
<time>2026-05-08T07:04:13Z</time></trkpt>
<trkpt lat="39.916613" lon="-7.887064">
<ele>554</ele>
<time>2026-05-08T07:04:18Z</time></trkpt>
<trkpt lat="39.916916" lon="-7.887344">
<ele>550</ele>
<time>2026-05-08T07:04:25Z</time></trkpt>
<trkpt lat="39.917066" lon="-7.88754">
<ele>548</ele>
<time>2026-05-08T07:04:30Z</time></trkpt>
<trkpt lat="39.917273" lon="-7.888016">
<ele>547</ele>
<time>2026-05-08T07:04:38Z</time></trkpt>
<trkpt lat="39.917342" lon="-7.888489">
<ele>548</ele>
<time>2026-05-08T07:04:45Z</time></trkpt>
<trkpt lat="39.917203" lon="-7.890023">
<ele>550</ele>
<time>2026-05-08T07:05:09Z</time></trkpt>
<trkpt lat="39.916947" lon="-7.892273">
<ele>542</ele>
<time>2026-05-08T07:05:44Z</time></trkpt>
<trkpt lat="39.916903" lon="-7.892894">
<ele>538</ele>
<time>2026-05-08T07:05:54Z</time></trkpt>
<trkpt lat="39.916998" lon="-7.89368">
<ele>536</ele>
<time>2026-05-08T07:06:06Z</time></trkpt>
<trkpt lat="39.917298" lon="-7.896258">
<ele>529</ele>
<time>2026-05-08T07:06:46Z</time></trkpt>
<trkpt lat="39.917276" lon="-7.896853">
<ele>525</ele>
<time>2026-05-08T07:06:55Z</time></trkpt>
<trkpt lat="39.917139" lon="-7.898523">
<ele>514</ele>
<time>2026-05-08T07:07:21Z</time></trkpt>
<trkpt lat="39.917006" lon="-7.900036">
<ele>506</ele>
<time>2026-05-08T07:07:44Z</time></trkpt>
<trkpt lat="39.916907" lon="-7.900429">
<ele>504</ele>
<time>2026-05-08T07:07:51Z</time></trkpt>
<trkpt lat="39.916772" lon="-7.900648">
<ele>504</ele>
<time>2026-05-08T07:07:55Z</time></trkpt>
<trkpt lat="39.916004" lon="-7.901501">
<ele>500</ele>
<time>2026-05-08T07:08:15Z</time></trkpt>
<trkpt lat="39.915852" lon="-7.901832">
<ele>500</ele>
<time>2026-05-08T07:08:21Z</time></trkpt>
<trkpt lat="39.915785" lon="-7.902107">
<ele>500</ele>
<time>2026-05-08T07:08:26Z</time></trkpt>
<trkpt lat="39.915566" lon="-7.903189">
<ele>496</ele>
<time>2026-05-08T07:08:43Z</time></trkpt>
<trkpt lat="39.915594" lon="-7.903498">
<ele>494</ele>
<time>2026-05-08T07:08:48Z</time></trkpt>
<trkpt lat="39.915651" lon="-7.903682">
<ele>493</ele>
<time>2026-05-08T07:08:51Z</time></trkpt>
<trkpt lat="39.915841" lon="-7.903951">
<ele>491</ele>
<time>2026-05-08T07:08:56Z</time></trkpt>
<trkpt lat="39.916054" lon="-7.90408">
<ele>490</ele>
<time>2026-05-08T07:09:01Z</time></trkpt>
<trkpt lat="39.916247" lon="-7.904141">
<ele>490</ele>
<time>2026-05-08T07:09:05Z</time></trkpt>
<trkpt lat="39.916683" lon="-7.904268">
<ele>490</ele>
<time>2026-05-08T07:09:14Z</time></trkpt>
<trkpt lat="39.916893" lon="-7.904359">
<ele>493</ele>
<time>2026-05-08T07:09:18Z</time></trkpt>
<trkpt lat="39.917102" lon="-7.904523">
<ele>495</ele>
<time>2026-05-08T07:09:23Z</time></trkpt>
<trkpt lat="39.917461" lon="-7.905137">
<ele>496</ele>
<time>2026-05-08T07:09:35Z</time></trkpt>
<trkpt lat="39.917677" lon="-7.905325">
<ele>497</ele>
<time>2026-05-08T07:09:40Z</time></trkpt>
<trkpt lat="39.918008" lon="-7.905446">
<ele>498</ele>
<time>2026-05-08T07:09:47Z</time></trkpt>
<trkpt lat="39.918108" lon="-7.905428">
<ele>499</ele>
<time>2026-05-08T07:09:49Z</time></trkpt>
<trkpt lat="39.918201" lon="-7.905388">
<ele>499</ele>
<time>2026-05-08T07:09:51Z</time></trkpt>
<trkpt lat="39.91827" lon="-7.90531">
<ele>500</ele>
<time>2026-05-08T07:09:53Z</time></trkpt>
<trkpt lat="39.918314" lon="-7.905292">
<ele>500</ele>
<time>2026-05-08T07:09:54Z</time></trkpt>
<trkpt lat="39.918405" lon="-7.905301">
<ele>501</ele>
<time>2026-05-08T07:09:56Z</time></trkpt>
<trkpt lat="39.918481" lon="-7.905369">
<ele>502</ele>
<time>2026-05-08T07:09:58Z</time></trkpt>
<trkpt lat="39.918506" lon="-7.905419">
<ele>502</ele>
<time>2026-05-08T07:09:58Z</time></trkpt>
<trkpt lat="39.918523" lon="-7.905537">
<ele>502</ele>
<time>2026-05-08T07:10:00Z</time></trkpt>
<trkpt lat="39.918513" lon="-7.905595">
<ele>501</ele>
<time>2026-05-08T07:10:01Z</time></trkpt>
<trkpt lat="39.918461" lon="-7.905694">
<ele>500</ele>
<time>2026-05-08T07:10:03Z</time></trkpt>
<trkpt lat="39.918379" lon="-7.905745">
<ele>499</ele>
<time>2026-05-08T07:10:05Z</time></trkpt>
<trkpt lat="39.918296" lon="-7.90603">
<ele>498</ele>
<time>2026-05-08T07:10:10Z</time></trkpt>
<trkpt lat="39.91816" lon="-7.906994">
<ele>498</ele>
<time>2026-05-08T07:10:25Z</time></trkpt>
<trkpt lat="39.917779" lon="-7.909815">
<ele>495</ele>
<time>2026-05-08T07:11:09Z</time></trkpt>
<trkpt lat="39.917727" lon="-7.910144">
<ele>494</ele>
<time>2026-05-08T07:11:14Z</time></trkpt>
<trkpt lat="39.917648" lon="-7.910474">
<ele>494</ele>
<time>2026-05-08T07:11:19Z</time></trkpt>
<trkpt lat="39.91754" lon="-7.91083">
<ele>494</ele>
<time>2026-05-08T07:11:25Z</time></trkpt>
<trkpt lat="39.917431" lon="-7.911102">
<ele>493</ele>
<time>2026-05-08T07:11:30Z</time></trkpt>
<trkpt lat="39.917153" lon="-7.91161">
<ele>492</ele>
<time>2026-05-08T07:11:39Z</time></trkpt>
<trkpt lat="39.91701" lon="-7.911805">
<ele>492</ele>
<time>2026-05-08T07:11:43Z</time></trkpt>
<trkpt lat="39.916834" lon="-7.912026">
<ele>494</ele>
<time>2026-05-08T07:11:48Z</time></trkpt>
<trkpt lat="39.91493" lon="-7.914198">
<ele>491</ele>
<time>2026-05-08T07:12:39Z</time></trkpt>
<trkpt lat="39.914688" lon="-7.914628">
<ele>491</ele>
<time>2026-05-08T07:12:47Z</time></trkpt>
<trkpt lat="39.914607" lon="-7.914856">
<ele>491</ele>
<time>2026-05-08T07:12:51Z</time></trkpt>
<trkpt lat="39.914535" lon="-7.91516">
<ele>491</ele>
<time>2026-05-08T07:12:56Z</time></trkpt>
<trkpt lat="39.914514" lon="-7.91551">
<ele>491</ele>
<time>2026-05-08T07:13:01Z</time></trkpt>
<trkpt lat="39.914543" lon="-7.91582">
<ele>492</ele>
<time>2026-05-08T07:13:06Z</time></trkpt>
<trkpt lat="39.914605" lon="-7.916118">
<ele>493</ele>
<time>2026-05-08T07:13:11Z</time></trkpt>
<trkpt lat="39.914692" lon="-7.916398">
<ele>493</ele>
<time>2026-05-08T07:13:16Z</time></trkpt>
<trkpt lat="39.914956" lon="-7.916799">
<ele>494</ele>
<time>2026-05-08T07:13:24Z</time></trkpt>
<trkpt lat="39.915678" lon="-7.917715">
<ele>489</ele>
<time>2026-05-08T07:13:44Z</time></trkpt>
<trkpt lat="39.915795" lon="-7.917755">
<ele>489</ele>
<time>2026-05-08T07:13:46Z</time></trkpt>
<trkpt lat="39.915877" lon="-7.91775">
<ele>489</ele>
<time>2026-05-08T07:13:48Z</time></trkpt>
<trkpt lat="39.915923" lon="-7.917686">
<ele>489</ele>
<time>2026-05-08T07:13:49Z</time></trkpt>
<trkpt lat="39.915926" lon="-7.917663">
<ele>489</ele>
<time>2026-05-08T07:13:50Z</time></trkpt>
<trkpt lat="39.915956" lon="-7.917598">
<ele>489</ele>
<time>2026-05-08T07:13:51Z</time></trkpt>
<trkpt lat="39.916008" lon="-7.917564">
<ele>489</ele>
<time>2026-05-08T07:13:52Z</time></trkpt>
<trkpt lat="39.916053" lon="-7.917566">
<ele>489</ele>
<time>2026-05-08T07:13:53Z</time></trkpt>
<trkpt lat="39.91613" lon="-7.917473">
<ele>489</ele>
<time>2026-05-08T07:13:55Z</time></trkpt>
<trkpt lat="39.916357" lon="-7.916977">
<ele>492</ele>
<time>2026-05-08T07:14:04Z</time></trkpt>
<trkpt lat="39.916486" lon="-7.916791">
<ele>492</ele>
<time>2026-05-08T07:14:08Z</time></trkpt>
<trkpt lat="39.916625" lon="-7.916632">
<ele>492</ele>
<time>2026-05-08T07:14:11Z</time></trkpt>
<trkpt lat="39.91681" lon="-7.916493">
<ele>495</ele>
<time>2026-05-08T07:14:16Z</time></trkpt>
<trkpt lat="39.916837" lon="-7.916423">
<ele>497</ele>
<time>2026-05-08T07:14:17Z</time></trkpt>
<trkpt lat="39.916867" lon="-7.916393">
<ele>497</ele>
<time>2026-05-08T07:14:18Z</time></trkpt>
<trkpt lat="39.916915" lon="-7.91638">
<ele>498</ele>
<time>2026-05-08T07:14:19Z</time></trkpt>
<trkpt lat="39.916981" lon="-7.916406">
<ele>498</ele>
<time>2026-05-08T07:14:20Z</time></trkpt>
<trkpt lat="39.917256" lon="-7.916435">
<ele>498</ele>
<time>2026-05-08T07:14:26Z</time></trkpt>
<trkpt lat="39.91833" lon="-7.916668">
<ele>501</ele>
<time>2026-05-08T07:14:47Z</time></trkpt>
<trkpt lat="39.918436" lon="-7.916666">
<ele>501</ele>
<time>2026-05-08T07:14:49Z</time></trkpt>
<trkpt lat="39.918534" lon="-7.91664">
<ele>501</ele>
<time>2026-05-08T07:14:52Z</time></trkpt>
<trkpt lat="39.918709" lon="-7.916518">
<ele>502</ele>
<time>2026-05-08T07:14:55Z</time></trkpt>
<trkpt lat="39.918868" lon="-7.916239">
<ele>504</ele>
<time>2026-05-08T07:15:01Z</time></trkpt>
<trkpt lat="39.918928" lon="-7.916022">
<ele>506</ele>
<time>2026-05-08T07:15:04Z</time></trkpt>
<trkpt lat="39.918955" lon="-7.915787">
<ele>508</ele>
<time>2026-05-08T07:15:08Z</time></trkpt>
<trkpt lat="39.918948" lon="-7.915636">
<ele>508</ele>
<time>2026-05-08T07:15:10Z</time></trkpt>
<trkpt lat="39.918908" lon="-7.915504">
<ele>509</ele>
<time>2026-05-08T07:15:13Z</time></trkpt>
<trkpt lat="39.918616" lon="-7.914957">
<ele>510</ele>
<time>2026-05-08T07:15:23Z</time></trkpt>
<trkpt lat="39.91852" lon="-7.914744">
<ele>511</ele>
<time>2026-05-08T07:15:27Z</time></trkpt>
<trkpt lat="39.918442" lon="-7.914437">
<ele>511</ele>
<time>2026-05-08T07:15:32Z</time></trkpt>
<trkpt lat="39.918397" lon="-7.914138">
<ele>511</ele>
<time>2026-05-08T07:15:36Z</time></trkpt>
<trkpt lat="39.919194" lon="-7.914175">
<ele>509</ele>
<time>2026-05-08T07:15:52Z</time></trkpt>
<trkpt lat="39.920397" lon="-7.91421">
<ele>516</ele>
<time>2026-05-08T07:16:16Z</time></trkpt>
</trkseg>
</trk>
</gpx>